[[{"header":{"parameterUnit":"m.s-1","parameterCategory":1,"la1":30.6,"la2":28.766,"lo1":-90.7593,"lo2":-88.6598,"dy":0.0162,"dx":0.0183,"nx":116,"ny":114,"refTime":"2023-11-09T18:00:00:Z","depth":0,"parameterNumber":2,"parameterNumberName":"U-component_of_WINDS"},"data":[0.0,0.0,0.0,0.0,0.0,0.0,0.0,0.0,0.0,0.0,0.0,0.0,0.0,0.0,0.0,0.0,0.0,0.0,0.0,0.0,0.0,0.0,0.0,0.0,0.0,0.0,0.0,0.0,0.0,0.0,0.0,0.0,0.0,0.0,0.0,0.0,0.0,0.0,0.0,0.0,0.0,0.0,0.0,0.0,0.0,0.0,0.0,0.0,0.0,0.0,0.0,0.0,0.0,0.0,0.0,0.0,0.0,0.0,0.0,0.0,0.0,0.0,0.0,0.0,0.0,0.0,0.0,0.0,0.0,0.0,0.0,0.0,0.0,0.0,0.0,0.0,0.0,0.0,0.0,0.0,0.0,0.0,0.0,0.0,0.0,0.0,0.0,0.0,0.0,0.0,0.0,0.0,0.0,0.0,0.0,0.0,0.0,0.0,0.0,0.0,0.0,0.0,0.0,0.0,0.0,0.0,0.0,0.0,0.0,0.0,0.0,0.0,0.0,0.0,0.0,0.0,0.0,0.0,0.0,0.0,0.0,0.0,0.0,0.0,0.0,0.0,0.0,0.0,0.0,0.0,0.0,0.0,0.0,0.0,0.0,0.0,0.0,0.0,0.0,0.0,0.0,0.0,0.0,0.0,0.0,0.0,0.0,0.0,0.0,0.0,0.0,0.0,0.0,0.0,0.0,0.0,0.0,0.0,0.0,0.0,0.0,0.0,0.0,0.0,0.0,0.0,0.0,0.0,0.0,0.0,0.0,0.0,0.0,0.0,0.0,0.0,0.0,0.0,0.0,0.0,0.0,0.0,0.0,0.0,0.0,0.0,0.0,0.0,0.0,0.0,0.0,0.0,0.0,0.0,0.0,0.0,0.0,0.0,0.0,0.0,0.0,0.0,0.0,0.0,0.0,0.0,0.0,0.0,0.0,0.0,0.0,0.0,0.0,0.0,0.0,0.0,0.0,0.0,0.0,0.0,0.0,0.0,0.0,0.0,0.0,0.0,0.0,0.0,0.0,0.0,0.0,0.0,0.0,0.0,0.0,0.0,0.0,0.0,0.0,0.0,0.0,0.0,0.0,0.0,0.0,0.0,0.0,0.0,0.0,0.0,0.0,0.0,0.0,0.0,0.0,0.0,0.0,0.0,0.0,0.0,0.0,0.0,0.0,0.0,0.0,0.0,0.0,0.0,0.0,0.0,0.0,0.0,0.0,0.0,0.0,0.0,0.0,0.0,0.0,0.0,0.0,0.0,0.0,0.0,0.0,0.0,0.0,0.0,0.0,0.0,0.0,0.0,0.0,0.0,0.0,0.0,0.0,0.0,0.0,0.0,0.0,0.0,0.0,0.0,0.0,0.0,0.0,0.0,0.0,0.0,0.0,0.0,0.0,0.0,0.0,0.0,0.0,0.0,0.0,0.0,0.0,0.0,0.0,0.0,0.0,0.0,0.0,0.0,0.0,0.0,0.0,0.0,0.0,0.0,0.0,0.0,0.0,0.0,0.0,0.0,0.0,0.0,0.0,0.0,0.0,0.0,0.0,0.0,0.0,0.0,0.0,0.0,0.0,0.0,0.0,0.0,0.0,0.0,0.0,0.0,0.0,0.0,0.0,0.0,0.0,0.0,0.0,0.0,0.0,0.0,0.0,0.0,0.0,0.0,0.0,0.0,0.0,0.0,0.0,0.0,0.0,0.0,0.0,0.0,0.0,0.0,0.0,0.0,0.0,0.0,0.0,0.0,0.0,0.0,0.0,0.0,0.0,0.0,0.0,0.0,0.0,0.0,0.0,0.0,0.0,0.0,0.0,0.0,0.0,0.0,0.0,0.0,0.0,0.0,0.0,0.0,0.0,0.0,0.0,0.0,0.0,0.0,0.0,0.0,0.0,0.0,0.0,0.0,0.0,0.0,0.0,0.0,0.0,0.0,0.0,0.0,0.0,0.0,0.0,0.0,0.0,0.0,0.0,0.0,0.0,0.0,0.0,0.0,0.0,0.0,0.0,0.0,0.0,0.0,0.0,0.0,0.0,0.0,0.0,0.0,0.0,0.0,0.0,0.0,0.0,0.0,0.0,0.0,0.0,0.0,0.0,0.0,0.0,0.0,0.0,0.0,0.0,0.0,0.0,0.0,0.0,0.0,0.0,0.0,0.0,0.0,0.0,0.0,0.0,0.0,0.0,0.0,0.0,0.0,0.0,0.0,0.0,0.0,0.0,0.0,0.0,0.0,0.0,0.0,0.0,0.0,0.0,0.0,0.0,0.0,0.0,0.0,0.0,0.0,0.0,0.0,0.0,0.0,0.0,0.0,0.0,0.0,0.0,0.0,0.0,0.0,0.0,0.0,0.0,0.0,0.0,0.0,0.0,0.0,0.0,0.0,0.0,0.0,0.0,0.0,0.0,0.0,0.0,0.0,0.0,0.0,0.0,0.0,0.0,0.0,0.0,0.0,0.0,0.0,0.0,0.0,0.0,0.0,0.0,0.0,0.0,0.0,0.0,0.0,0.0,0.0,0.0,0.0,0.0,0.0,0.0,0.0,0.0,0.0,0.0,0.0,0.0,0.0,0.0,0.0,0.0,0.0,0.0,0.0,0.0,0.0,0.0,0.0,0.0,0.0,0.0,0.0,0.0,0.0,0.0,0.0,0.0,0.0,0.0,0.0,0.0,0.0,0.0,0.0,0.0,0.0,0.0,0.0,0.0,0.0,0.0,0.0,0.0,0.0,0.0,0.0,0.0,0.0,0.0,0.0,0.0,0.0,0.0,0.0,0.0,0.0,0.0,0.0,0.0,0.0,0.0,0.0,0.0,0.0,0.0,0.0,0.0,0.0,0.0,0.0,0.0,0.0,0.0,0.0,0.0,0.0,0.0,0.0,0.0,0.0,0.0,0.0,0.0,0.0,0.0,0.0,0.0,0.0,0.0,0.0,0.0,0.0,0.0,0.0,0.0,0.0,0.0,0.0,0.0,0.0,0.0,0.0,0.0,0.0,0.0,0.0,0.0,0.0,0.0,0.0,0.0,0.0,0.0,0.0,0.0,0.0,0.0,0.0,0.0,0.0,0.0,0.0,0.0,0.0,0.0,0.0,0.0,0.0,0.0,0.0,0.0,0.0,0.0,0.0,0.0,0.0,0.0,0.0,0.0,0.0,0.0,0.0,0.0,0.0,0.0,0.0,0.0,0.0,0.0,0.0,0.0,0.0,0.0,0.0,0.0,0.0,0.0,0.0,0.0,0.0,0.0,0.0,0.0,0.0,0.0,0.0,0.0,0.0,0.0,0.0,0.0,0.0,0.0,0.0,0.0,0.0,0.0,0.0,0.0,0.0,0.0,0.0,0.0,0.0,0.0,0.0,0.0,0.0,0.0,0.0,0.0,0.0,0.0,0.0,0.0,0.0,0.0,0.0,0.0,0.0,0.0,0.0,0.0,0.0,0.0,0.0,0.0,0.0,0.0,0.0,0.0,0.0,0.0,0.0,0.0,0.0,0.0,0.0,0.0,0.0,0.0,0.0,0.0,0.0,0.0,0.0,0.0,0.0,0.0,0.0,0.0,0.0,0.0,0.0,0.0,0.0,0.0,0.0,0.0,0.0,0.0,0.0,0.0,0.0,0.0,0.0,0.0,0.0,0.0,0.0,0.0,0.0,0.0,0.0,0.0,0.0,0.0,0.0,0.0,0.0,0.0,0.0,0.0,0.0,0.0,0.0,0.0,0.0,0.0,0.0,0.0,0.0,0.0,0.0,0.0,0.0,0.0,0.0,0.0,0.0,0.0,0.0,0.0,0.0,0.0,0.0,0.0,0.0,0.0,0.0,0.0,0.0,0.0,0.0,0.0,0.0,0.0,0.0,0.0,0.0,0.0,0.0,0.0,0.0,0.0,0.0,0.0,0.0,0.0,0.0,0.0,0.0,0.0,0.0,0.0,0.0,0.0,0.0,0.0,0.0,0.0,0.0,0.0,0.0,0.0,0.0,0.0,0.0,0.0,0.0,0.0,0.0,0.0,0.0,0.0,0.0,0.0,0.0,0.0,0.0,0.0,0.0,0.0,0.0,0.0,0.0,0.0,0.0,0.0,0.0,0.0,0.0,0.0,0.0,0.0,0.0,0.0,0.0,0.0,0.0,0.0,0.0,0.0,0.0,0.0,0.0,0.0,0.0,0.0,0.0,0.0,0.0,0.0,0.0,0.0,0.0,0.0,0.0,0.0,0.0,0.0,0.0,0.0,0.0,0.0,0.0,0.0,0.0,0.0,0.0,0.0,0.0,0.0,0.0,0.0,0.0,0.0,0.0,0.0,0.0,0.0,0.0,0.0,0.0,0.0,0.0,0.0,0.0,0.0,0.0,0.0,0.0,0.0,0.0,0.0,0.0,0.0,0.0,0.0,0.0,0.0,0.0,0.0,0.0,0.0,0.0,0.0,0.0,0.0,0.0,0.0,0.0,0.0,0.0,0.0,0.0,0.0,0.0,0.0,0.0,0.0,0.0,0.0,0.0,0.0,0.0,0.0,0.0,0.0,0.0,0.0,0.0,0.0,0.0,0.0,0.0,0.0,0.0,0.0,0.0,0.0,0.0,0.0,0.0,0.0,0.0,0.0,0.0,0.0,0.0,0.0,0.0,0.0,0.0,0.0,0.0,0.0,0.0,0.0,0.0,0.0,0.0,0.0,0.0,0.0,0.0,0.0,0.0,0.0,0.0,0.0,0.0,0.0,0.0,0.0,0.0,0.0,0.0,0.0,0.0,0.0,0.0,0.0,0.0,0.0,0.0,0.0,0.0,0.0,0.0,0.0,0.0,0.0,0.0,0.0,0.0,0.0,0.0,0.0,0.0,0.0,0.0,0.0,0.0,0.0,0.0,0.0,0.0,0.0,0.0,0.0,0.0,0.0,0.0,0.0,0.0,0.0,0.0,0.0,0.0,0.0,0.0,0.0,0.0,0.0,0.0,0.0,0.0,0.0,0.0,0.0,0.0,0.0,0.0,0.0,0.0,0.0,0.0,0.0,0.0,0.0,0.0,0.0,0.0,0.0,0.0,0.0,0.0,0.0,0.0,0.0,0.0,0.0,0.0,0.0,0.0,0.0,0.0,0.0,0.0,0.0,0.0,0.0,0.0,0.0,0.0,0.0,0.0,0.0,0.0,0.0,0.0,0.0,0.0,0.0,0.0,0.0,0.0,0.0,0.0,0.0,0.0,0.0,0.0,0.0,0.0,0.0,0.0,0.0,0.0,0.0,0.0,0.0,0.0,0.0,0.0,0.0,0.0,0.0,0.0,0.0,0.0,0.0,0.0,0.0,0.0,0.0,0.0,0.0,0.0,0.0,0.0,0.0,0.0,0.0,0.0,0.0,0.0,0.0,0.0,0.0,0.0,0.0,0.0,0.0,0.0,0.0,0.0,0.0,0.0,0.0,0.0,0.0,0.0,0.0,0.0,0.0,0.0,0.0,0.0,0.0,0.0,0.0,0.0,0.0,0.0,0.0,0.0,0.0,0.0,0.0,0.0,0.0,0.0,0.0,0.0,0.0,0.0,0.0,0.0,0.0,0.0,0.0,0.0,0.0,0.0,0.0,0.0,0.0,0.0,0.0,0.0,0.0,0.0,0.0,0.0,0.0,0.0,0.0,0.0,0.0,0.0,0.0,0.0,0.0,0.0,0.0,0.0,0.0,0.0,0.0,0.0,0.0,0.0,0.0,0.0,0.0,0.0,0.0,0.0,0.0,0.0,0.0,0.0,0.0,0.0,0.0,0.0,0.0,0.0,0.0,0.0,0.0,0.0,0.0,0.0,0.0,0.0,0.0,0.0,0.0,0.0,0.0,0.0,0.0,0.0,0.0,0.0,0.0,0.0,0.0,0.0,0.0,0.0,0.0,0.0,0.0,0.0,0.0,0.0,0.0,0.0,0.0,0.0,0.0,0.0,0.0,0.0,0.0,0.0,0.0,0.0,0.0,0.0,0.0,0.0,0.0,0.0,0.0,0.0,0.0,0.0,0.0,0.0,0.0,0.0,0.0,0.0,0.0,0.0,0.0,0.0,0.0,0.0,0.0,0.0,0.0,0.0,0.0,0.0,0.0,0.0,0.0,0.0,0.0,0.0,0.0,0.0,0.0,0.0,3.1228,0.0,0.0,0.0,0.0,0.0,0.0,0.0,0.0,0.0,0.0,0.0,0.0,0.0,0.0,0.0,0.0,0.0,0.0,0.0,0.0,0.0,0.0,0.0,0.0,0.0,0.0,0.0,0.0,0.0,0.0,0.0,0.0,0.0,0.0,0.0,0.0,0.0,0.0,0.0,3.0215,3.0215,3.0215,3.0215,3.0009,2.9598,0.0,0.0,0.0,0.0,0.0,0.0,0.0,0.0,0.0,0.0,0.0,0.0,0.0,0.0,0.0,0.0,0.0,0.0,0.0,0.0,0.0,0.0,0.0,0.0,0.0,0.0,0.0,0.0,0.0,0.0,0.0,0.0,0.0,0.0,0.0,0.0,0.0,0.0,0.0,0.0,0.0,0.0,0.0,0.0,0.0,0.0,0.0,0.0,0.0,0.0,0.0,0.0,0.0,0.0,0.0,0.0,0.0,0.0,0.0,0.0,0.0,0.0,0.0,0.0,0.0,0.0,0.0,0.0,0.0,0.0,0.0,3.0898,0.0,0.0,0.0,0.0,0.0,0.0,0.0,0.0,0.0,0.0,0.0,0.0,0.0,0.0,0.0,0.0,0.0,0.0,0.0,0.0,0.0,0.0,0.0,0.0,3.0898,3.0898,3.0898,3.0898,0.0,0.0,0.0,0.0,0.0,0.0,0.0,3.0898,3.0898,3.0898,3.0898,3.0898,3.0898,3.0898,3.0537,2.9833,2.9833,0.0,0.0,0.0,0.0,0.0,0.0,0.0,0.0,0.0,0.0,0.0,0.0,0.0,0.0,0.0,0.0,0.0,0.0,0.0,0.0,0.0,0.0,0.0,0.0,0.0,0.0,0.0,0.0,0.0,0.0,0.0,0.0,0.0,0.0,0.0,0.0,0.0,0.0,0.0,0.0,0.0,0.0,0.0,0.0,0.0,0.0,0.0,0.0,0.0,0.0,0.0,0.0,0.0,0.0,0.0,0.0,0.0,0.0,0.0,0.0,0.0,0.0,0.0,3.0996,3.1035,3.1143,3.1143,3.1143,3.1143,3.1143,3.1035,3.0898,3.0898,0.0,0.0,0.0,0.0,0.0,0.0,0.0,0.0,0.0,0.0,0.0,0.0,0.0,0.0,0.0,0.0,0.0,0.0,0.0,0.0,0.0,3.0859,3.0898,3.0898,3.0898,3.0898,0.0,0.0,0.0,0.0,0.0,0.0,3.0898,3.0898,3.0898,3.0898,3.0898,3.0898,3.0898,3.0898,3.082,3.0723,3.0723,3.0488,3.0117,0.0,0.0,0.0,0.0,0.0,0.0,0.0,0.0,0.0,0.0,0.0,0.0,0.0,0.0,0.0,0.0,0.0,0.0,0.0,0.0,0.0,0.0,0.0,0.0,0.0,0.0,0.0,0.0,0.0,0.0,0.0,0.0,0.0,0.0,0.0,0.0,0.0,0.0,0.0,0.0,0.0,3.0898,3.0898,0.0,0.0,0.0,0.0,0.0,0.0,0.0,0.0,0.0,0.0,0.0,0.0,0.0,3.0898,3.0898,3.0898,3.1074,3.1426,3.1426,3.1641,3.2022,3.2022,3.2022,3.2022,3.2022,0.0,3.0898,3.0898,0.0,0.0,0.0,0.0,0.0,0.0,0.0,0.0,0.0,0.0,0.0,0.0,0.0,0.0,0.0,0.0,0.0,0.0,0.0,0.0,0.0,3.0898,3.0898,3.0898,3.0898,3.0898,3.0898,3.0898,0.0,0.0,0.0,3.0898,3.0898,3.0898,3.0898,3.0898,3.0898,3.0898,3.0898,3.0898,3.0898,3.0898,3.0898,3.0781,3.0586,3.0586,0.0,0.0,0.0,0.0,0.0,0.0,0.0,0.0,0.0,0.0,0.0,0.0,0.0,0.0,0.0,0.0,0.0,0.0,0.0,0.0,0.0,0.0,0.0,0.0,0.0,0.0,0.0,0.0,0.0,0.0,0.0,0.0,0.0,0.0,0.0,0.0,0.0,0.0,0.0,3.0898,3.0898,3.0898,3.0898,3.0898,0.0,0.0,0.0,0.0,0.0,0.0,0.0,0.0,0.0,3.1631,3.1631,3.1631,3.1631,3.1631,3.1729,3.1875,3.1875,3.2022,3.2198,3.2198,3.2198,3.2198,3.2198,3.1983,3.1631,3.1631,3.1631,3.1631,0.0,0.0,0.0,0.0,3.1631,3.1631,0.0,0.0,0.0,0.0,0.0,0.0,0.0,0.0,0.0,0.0,0.0,0.0,3.0898,3.0898,3.0898,3.0898,3.0898,3.0898,3.0898,3.0898,0.0,3.0898,3.0898,3.0898,3.0898,3.0898,3.0898,3.0898,3.0898,3.0898,3.0898,3.0898,3.0898,3.0898,3.0898,3.0898,3.0898,3.0898,3.0898,3.0898,0.0,0.0,0.0,0.0,0.0,0.0,0.0,0.0,0.0,0.0,0.0,0.0,0.0,0.0,0.0,0.0,0.0,0.0,0.0,0.0,0.0,0.0,0.0,0.0,0.0,0.0,0.0,0.0,0.0,0.0,0.0,0.0,0.0,0.0,0.0,0.0,0.0,3.0898,3.0898,3.0898,3.0898,3.0937,0.0,0.0,0.0,0.0,0.0,0.0,3.166,3.168,3.1836,3.2179,3.2198,3.2198,3.2198,3.2316,3.2413,3.2531,3.2628,3.2746,3.2843,3.2843,3.2843,3.2843,3.2843,3.2843,3.2824,3.2374,3.2198,3.2198,3.2198,3.2198,3.2198,3.2198,3.2198,3.2198,0.0,0.0,0.0,0.0,0.0,0.0,0.0,0.0,0.0,0.0,0.0,3.0898,3.0898,3.0898,3.0898,3.0898,3.0898,3.0898,3.0898,3.0898,3.0898,3.0898,3.0898,3.0898,3.0898,3.0898,3.0898,3.0898,3.0898,3.0898,3.0898,3.0898,3.0898,3.0898,3.0898,3.0898,3.0898,3.0898,3.0898,3.0898,3.0898,0.0,0.0,0.0,0.0,0.0,0.0,0.0,0.0,0.0,0.0,0.0,0.0,0.0,0.0,0.0,0.0,0.0,0.0,0.0,0.0,0.0,0.0,0.0,0.0,0.0,0.0,0.0,0.0,0.0,0.0,0.0,0.0,0.0,0.0,0.0,0.0,0.0,0.0,3.0898,3.0898,0.0,0.0,0.0,0.0,3.2101,3.214,3.214,3.2159,3.2159,3.2179,3.2198,3.2198,3.2198,3.2198,3.2589,3.2969,3.3359,3.3769,3.418,3.457,3.457,3.457,3.457,3.457,3.457,3.4453,3.2863,3.2198,3.2198,3.2198,3.2198,3.2198,3.2198,3.2198,3.2198,0.0,0.0,0.0,0.0,0.0,0.0,0.0,0.0,3.0898,3.0898,3.0898,3.0898,3.0898,3.0898,3.0898,3.0898,3.0898,3.0898,3.0898,3.0898,3.0898,3.0898,3.0898,3.0898,3.0898,3.0898,3.0898,3.0898,3.0898,3.0898,3.0898,3.0898,3.0898,3.0898,3.0898,3.0898,3.0898,3.0898,3.0898,3.0898,3.0898,3.0898,0.0,0.0,0.0,0.0,0.0,0.0,0.0,0.0,0.0,0.0,0.0,0.0,0.0,0.0,0.0,0.0,0.0,0.0,0.0,0.0,0.0,0.0,0.0,0.0,0.0,0.0,0.0,0.0,0.0,0.0,0.0,0.0,0.0,0.0,0.0,0.0,0.0,3.171,3.1749,0.0,3.1944,3.1934,3.2042,3.2179,3.2198,3.2433,3.2949,3.2969,3.3223,3.3769,3.3789,3.3789,3.3789,3.3945,3.4101,3.4238,3.4394,3.4551,3.4707,3.4707,3.4707,3.4707,3.4707,3.4707,3.4648,3.4043,3.3789,3.3789,3.3789,3.3789,3.3789,3.3789,3.3789,3.3789,0.0,0.0,0.0,0.0,0.0,0.0,0.0,0.0,3.0898,3.0898,3.0898,3.0898,3.0898,3.0898,3.0898,3.0898,3.0898,3.0898,3.0898,3.0898,3.0898,3.0898,3.0898,3.0898,3.0898,3.0898,3.0898,3.0898,3.0898,3.0898,3.0898,3.0898,3.0898,3.0898,3.0898,3.0898,3.0898,3.0898,3.0898,3.0898,3.0898,3.0898,3.0898,0.0,0.0,0.0,0.0,0.0,0.0,0.0,0.0,0.0,0.0,0.0,0.0,0.0,0.0,0.0,0.0,0.0,0.0,0.0,0.0,0.0,0.0,0.0,0.0,0.0,0.0,0.0,0.0,0.0,0.0,0.0,0.0,0.0,0.0,0.0,3.1836,3.2159,3.2198,3.2257,3.2394,3.255,3.2687,3.2824,3.298,3.3262,3.3828,3.3848,3.4121,3.4687,3.4844,3.4941,3.4941,3.5215,3.5371,3.5371,3.5508,3.5586,3.5586,3.5586,3.5586,3.5586,3.5586,3.5586,3.5586,3.5586,3.5586,3.5527,3.4922,3.4707,3.4707,3.4707,3.4707,3.4707,0.0,0.0,0.0,0.0,0.0,0.0,0.0,3.0898,3.0898,3.0898,3.0898,3.0898,3.0898,3.0898,3.0898,3.0898,3.0898,3.0898,3.0898,3.0898,3.0898,3.0898,3.0898,3.0898,3.0898,3.0898,3.0898,3.0898,3.0898,3.0898,3.0898,3.0898,3.0898,3.0898,3.0898,3.0898,3.0898,3.0898,3.0898,3.0898,3.0898,3.0898,3.0898,0.0,0.0,0.0,0.0,0.0,0.0,0.0,0.0,0.0,0.0,0.0,0.0,0.0,0.0,0.0,0.0,0.0,0.0,0.0,0.0,0.0,0.0,0.0,0.0,0.0,0.0,0.0,0.0,0.0,0.0,0.0,0.0,0.0,3.2218,3.2218,3.2237,3.2257,3.2257,3.2433,3.2812,3.3223,3.3633,3.4095,3.4473,3.4726,3.4746,3.4746,3.4766,3.4785,3.5215,3.5449,3.5449,3.6304,3.6714,3.6734,3.7109,3.7305,3.7305,3.7305,3.7305,3.7305,3.7305,3.7305,3.7305,3.7305,3.7305,3.7129,3.543,3.4785,3.4785,3.4785,3.4785,3.4785,0.0,0.0,0.0,0.0,0.0,0.0,0.0,3.0898,3.0898,3.0898,3.0898,3.0898,3.0898,3.0898,3.0898,3.0898,3.0898,3.0898,3.0898,3.0898,3.0898,3.0898,3.0898,3.0898,3.0898,3.0898,3.0898,3.0898,3.0898,3.0898,3.0898,3.0898,3.0898,3.0898,3.0898,3.0898,3.0898,3.0898,3.0898,3.0898,3.0898,3.0898,3.0898,0.0,0.0,0.0,0.0,0.0,0.0,0.0,0.0,0.0,0.0,0.0,0.0,0.0,0.0,0.0,0.0,0.0,0.0,0.0,0.0,0.0,0.0,0.0,0.0,0.0,0.0,0.0,0.0,0.0,0.0,0.0,0.0,3.2969,3.2656,3.2617,3.2883,3.3508,3.3586,3.3743,3.4141,3.4277,3.4394,3.4512,3.4941,3.5332,3.5644,3.5957,3.6269,3.6582,3.6699,3.6777,3.6777,3.7012,3.7129,3.7129,3.7246,3.7305,3.7305,3.7305,3.7305,3.7305,3.7305,3.7305,3.7305,3.7305,3.7305,3.7246,3.6777,3.6582,3.6582,3.6582,3.6582,3.6582,0.0,0.0,0.0,0.0,0.0,0.0,0.0,3.0898,3.0898,3.0898,3.0898,3.0898,3.0898,3.0898,3.0898,3.0898,3.0898,3.0898,3.0898,3.0898,3.0898,3.0898,3.0898,3.0898,3.0898,3.0898,3.0898,3.0898,3.0898,3.0898,3.0898,3.0898,3.0898,3.0898,3.0898,3.0898,3.0898,3.0898,3.0898,3.0898,3.0898,3.0898,3.0898,3.0898,3.0898,3.0898,3.0898,3.0898,3.0898,3.0898,0.0,0.0,0.0,0.0,0.0,0.0,0.0,0.0,0.0,0.0,0.0,0.0,0.0,0.0,0.0,0.0,0.0,0.0,0.0,0.0,0.0,0.0,0.0,0.0,3.3691,3.3867,3.3633,3.3437,3.3606,3.429,3.4336,3.4512,3.4941,3.5156,3.5332,3.5508,3.5937,3.6289,3.6543,3.6797,3.7129,3.7539,3.7734,3.791,3.8086,3.8281,3.8379,3.8379,3.8379,3.8379,3.8379,3.8379,3.8379,3.8379,3.8379,3.8379,3.8379,3.8379,3.7851,0.0,0.0,0.0,0.0,0.0,3.7305,3.7305,0.0,0.0,0.0,0.0,0.0,0.0,0.0,3.0898,3.0898,3.0898,3.0898,3.0898,3.0898,3.0898,3.0898,3.0898,3.0898,3.0898,3.0898,3.0898,3.0898,3.0898,3.0898,3.0898,3.0898,3.0898,3.0898,3.0898,3.0898,3.0898,3.0898,3.0898,3.0898,3.0898,3.0898,3.0898,3.0898,3.0937,3.0957,3.0957,3.1045,3.0976,3.0898,3.0898,3.0898,3.0898,3.0898,3.0918,3.0957,3.0957,0.0,0.0,0.0,0.0,0.0,0.0,0.0,0.0,0.0,0.0,0.0,0.0,0.0,0.0,0.0,0.0,0.0,0.0,0.0,0.0,0.0,0.0,0.0,0.0,3.4492,3.4785,3.4844,3.457,3.4525,3.4805,3.4844,3.5059,3.5566,3.5937,3.6328,3.6753,3.7168,3.7441,3.7441,0.0,0.0,0.0,0.0,3.8906,3.9277,3.9687,3.9902,3.9902,3.9902,3.9902,3.9902,3.9902,3.9902,3.9902,3.9902,3.9902,3.9902,3.9619,3.8234,3.6272,3.6712,3.6847,3.6882,3.7132,3.7222,3.7258,0.0,0.0,0.0,0.0,0.0,0.0,0.0,3.0898,3.0898,3.0898,3.0898,3.0898,3.0898,3.0898,3.0898,3.0898,3.0898,3.0898,3.0898,3.0898,3.0898,3.0898,3.0898,3.0898,3.0898,3.0898,3.0898,3.0898,3.0898,3.0898,3.0898,3.0898,3.0898,3.0898,3.0898,3.0898,3.0918,3.125,3.1377,3.1426,3.1807,3.1534,3.0898,3.0898,3.0898,3.0898,3.0898,3.1113,3.1377,3.1377,3.1621,3.1944,3.1944,3.1944,0.0,0.0,0.0,0.0,0.0,0.0,0.0,0.0,0.0,0.0,0.0,0.0,0.0,0.0,0.0,0.0,0.0,0.0,0.0,3.457,3.4961,3.5371,3.5723,3.5996,3.6108,3.5801,3.5728,3.6074,3.6855,3.6992,3.709,3.7168,3.7926,3.8356,3.8356,3.9004,3.9434,3.9512,3.959,3.9687,3.9766,3.9844,3.9902,3.9902,0.0,0.0,3.9902,3.9902,3.9902,3.9902,3.9902,3.9902,3.977,3.7948,3.5973,3.4015,3.4118,3.4171,3.4363,3.6102,3.6728,3.6993,0.0,0.0,0.0,0.0,0.0,0.0,0.0,3.0898,3.0898,3.0898,3.0898,3.0898,3.0898,3.0898,3.0898,3.0898,3.0898,3.0898,3.0898,3.0898,3.0898,3.0898,3.0898,3.0996,3.1191,3.1211,3.1309,3.1553,3.1553,3.1553,3.1553,3.1553,3.1553,3.1553,3.1553,3.1553,3.1543,3.1788,3.1836,3.1855,3.212,3.1944,3.1553,3.1553,3.1553,3.1553,3.1553,3.166,3.1836,3.1836,3.2022,3.2198,3.2198,3.2198,3.2237,0.0,0.0,0.0,0.0,0.0,0.0,0.0,0.0,0.0,0.0,0.0,0.0,0.0,0.0,3.4453,0.0,0.0,3.5351,3.5351,3.5918,3.6426,3.6621,3.6855,3.6894,3.668,3.666,3.6992,3.7851,3.793,3.8125,3.8555,3.8984,3.9238,3.9238,3.9648,4.0,4.0195,4.0215,4.0312,4.0527,4.0527,4.0527,4.0527,4.0527,4.0527,4.0527,4.0527,4.0527,4.0527,4.0527,4.0527,4.0297,3.6988,3.4346,3.2277,3.1198,3.1873,3.3539,3.4596,3.4986,3.5158,0.0,0.0,0.0,0.0,0.0,0.0,0.0,3.0898,3.0898,3.0898,3.0898,3.0898,3.0898,3.0898,3.0898,3.0898,3.0898,3.0898,3.0898,3.0957,3.1016,3.1016,3.1094,3.1289,3.1641,3.1641,3.1816,3.2198,3.2198,3.2198,3.2198,3.2198,3.2198,3.2198,3.2198,3.2198,3.2198,3.2276,3.2316,3.2335,3.2413,3.2452,3.2452,3.2452,3.2335,3.2198,3.2198,3.2257,3.2316,3.2316,3.2374,3.2452,3.2452,3.2452,3.2511,3.2812,3.2988,0.0,0.0,0.0,0.0,0.0,0.0,0.0,0.0,0.0,3.4726,3.4824,3.4902,3.498,3.5059,3.5723,3.6235,3.6235,3.6992,3.7539,3.7539,3.7695,3.7793,3.7793,3.7656,3.7891,3.8787,3.8828,3.9121,3.9844,3.9961,4.0019,4.0019,4.0098,4.0293,4.0644,4.0644,4.082,4.1211,4.1211,4.1211,4.1211,4.1211,4.1211,4.1211,4.1211,4.0977,4.0548,4.0118,3.9688,3.9001,3.55,3.2735,3.0634,2.888,2.9916,3.2483,3.3357,3.3397,3.3199,0.0,0.0,0.0,0.0,0.0,0.0,0.0,0.0,3.0898,3.0898,3.0898,3.0898,3.0898,3.0898,3.0898,3.0898,3.0898,3.0898,3.0898,3.123,3.1416,3.1416,3.1816,3.2081,3.212,3.212,3.2159,3.2198,3.2198,3.2198,3.2198,3.2198,3.2198,3.2198,3.2198,3.2198,3.2218,3.2559,3.2734,3.2754,3.3125,3.3281,3.3281,3.3281,3.2812,3.2198,3.2198,3.2433,3.2734,3.2734,3.2969,3.3281,3.3281,3.3281,3.325,3.3308,0.0,3.3977,3.4016,3.4277,3.457,3.4609,3.4629,3.4648,0.0,0.0,3.4824,3.5234,3.5605,3.5996,3.6421,3.6836,3.7148,3.7148,3.7871,3.8474,3.8474,3.9101,3.9609,3.9609,3.8906,3.8826,3.9668,3.9746,3.9785,3.9883,4.0234,4.0411,4.0411,4.082,4.1093,4.1132,4.1094,4.1172,4.1211,4.1211,4.1211,4.1211,4.1211,4.1211,4.1211,4.1211,4.0138,3.8134,3.6241,3.4327,3.2448,3.197,3.0509,2.8516,2.8305,2.8433,2.9272,3.3116,3.3319,3.2463,0.0,0.0,0.0,0.0,0.0,0.0,0.0,0.0,0.0,3.0898,3.0898,3.0898,3.0898,3.0898,3.0996,3.123,3.125,3.1367,3.1651,3.1797,3.1894,3.1894,3.2101,3.2316,3.2519,3.257,3.2656,3.2891,3.2891,3.2891,3.2891,3.2891,3.2891,3.2891,3.2891,3.2891,3.291,3.3086,3.3164,3.3184,3.3328,3.3386,3.3386,3.3386,3.3203,3.2891,3.2891,3.3008,0.0,3.3164,3.325,3.3457,3.3711,3.3809,3.3848,3.4101,3.4297,0.0,3.4434,3.457,0.0,0.0,3.5098,3.5176,3.541,3.5664,3.5932,3.6128,3.6465,3.6816,3.6992,3.7578,3.8083,0.0,3.8769,3.9336,3.9336,3.9668,3.998,4.0234,3.9941,3.9844,4.0234,4.0254,4.0371,4.0625,4.0801,4.0898,4.0898,4.1074,4.1211,4.1211,4.1211,4.1211,4.1211,4.1211,4.1211,4.1172,3.9903,3.9276,3.9237,3.7993,3.6882,3.6,3.5097,3.3431,3.1392,3.1392,3.0135,2.8179,2.8179,2.8179,2.8431,3.0274,3.0343,2.9941,0.0,0.0,0.0,0.0,0.0,0.0,0.0,0.0,0.0,0.0,3.0898,3.0937,3.1055,3.1055,3.123,3.166,3.1699,3.1836,3.2179,3.2316,3.2374,3.2374,3.2492,3.2656,3.2969,3.2969,3.3125,3.3386,3.3386,3.3386,3.3386,3.3386,3.3386,3.3386,3.3386,3.3386,3.3386,3.3386,3.3386,3.3386,3.3386,3.3386,3.3406,3.3523,3.3594,3.3594,3.3457,3.3464,3.3594,3.3594,3.3672,3.3828,3.4141,3.4271,3.4297,3.4609,3.4785,3.4922,3.5039,0.0,0.0,3.5625,3.5742,3.5859,3.6269,3.6621,3.6871,3.6871,3.7266,3.7656,3.7656,3.8359,3.8982,3.8982,3.957,4.0078,4.0078,4.0176,4.0351,4.0664,4.0703,4.0703,4.0703,4.0703,4.084,4.1191,4.1211,4.1211,4.1211,4.1211,4.1269,4.1348,4.1387,4.1113,4.0619,4.058,4.0284,3.9631,3.802,3.7239,3.7158,3.503,3.4047,3.4006,3.3404,3.2217,3.0729,3.0729,2.9832,2.8433,2.8433,2.8433,2.8433,2.8433,2.8326,2.8389,0.0,0.0,0.0,0.0,0.0,0.0,0.0,0.0,0.0,0.0,0.0,0.0,0.0,3.1474,3.168,3.214,3.2179,3.2179,3.2198,3.2589,3.2773,3.2773,3.3164,3.3347,3.3367,3.3367,3.3386,3.3386,3.3386,3.3386,3.3386,3.3386,3.3386,3.3386,3.3386,3.3386,3.3386,3.3386,3.3386,3.3386,3.3386,3.3386,3.3445,3.3919,3.4095,3.4036,3.3574,3.3691,3.4095,3.4095,3.4349,3.4668,3.4668,3.4687,0.0,3.4687,3.5019,3.5469,3.5845,0.0,3.6094,3.6523,3.6675,3.6773,3.7168,3.7266,3.7285,3.7285,3.7949,3.8571,3.8571,3.9258,3.9863,3.9863,4.0215,4.0469,4.0469,4.0859,4.1172,4.1191,4.1191,4.1191,0.0,4.1191,4.1191,4.1211,4.1211,4.1211,4.1211,4.1211,4.1367,4.1758,4.1777,4.0899,3.9073,3.9073,3.7906,3.5691,3.5608,3.5566,3.5524,3.3353,3.2391,3.2263,3.0104,2.9135,2.9048,2.9048,2.9005,2.8961,2.8961,2.8961,2.8961,2.8961,2.8644,2.8796,0.0,0.0,0.0,0.0,0.0,0.0,0.0,0.0,0.0,0.0,0.0,0.0,0.0,0.0,0.0,0.0,3.2578,3.2695,3.2988,3.3125,3.3203,3.3203,3.3308,3.3386,3.3386,3.3386,3.3386,3.3386,3.3386,3.3386,3.3386,3.3386,3.3386,3.3386,3.3386,3.3386,3.3386,3.3386,3.3594,3.3848,3.3848,3.4023,3.4277,3.4434,3.4492,3.4473,0.0,3.4355,3.431,3.3077,3.3567,3.4549,3.355,3.4132,3.5215,3.5488,3.5684,3.5898,3.6328,0.0,3.6562,3.6973,3.709,3.7129,3.7266,3.7734,3.8144,3.8144,3.7685,3.7255,3.7255,3.7794,3.8165,3.8165,3.8498,3.9285,4.0744,3.9848,3.957,4.1055,4.1211,0.0,0.0,0.0,0.0,4.1211,4.1426,4.1582,4.1582,4.1855,4.1354,4.0002,3.9921,3.8901,3.6683,3.6683,3.6267,3.5473,3.4045,3.2592,3.1181,3.0674,3.0437,3.0407,2.9835,2.9619,2.9619,2.9619,2.9619,2.9619,2.9619,2.9499,2.9339,2.9339,2.9085,2.8939,0.0,0.0,0.0,0.0,0.0,0.0,0.0,0.0,0.0,0.0,0.0,0.0,0.0,0.0,0.0,0.0,0.0,3.3125,3.3367,3.3386,3.3386,3.3386,3.3386,3.3496,3.3652,3.3652,3.373,3.3855,3.373,3.3652,3.3652,3.3496,3.3496,3.3652,3.3652,3.373,3.3855,3.3855,3.4043,3.4297,3.4297,3.4453,3.4726,3.4883,3.4941,0.0,3.5117,3.5176,3.4971,3.3598,3.3602,3.4107,3.383,3.4717,3.5758,3.5173,3.5697,3.6504,3.6675,3.6271,3.5917,3.6335,3.5969,3.5739,3.6686,3.7418,3.7874,3.7874,3.7327,3.6612,3.5817,3.6053,3.6355,3.6355,3.6605,3.7538,3.9707,3.8152,3.7578,3.9786,4.0154,4.0249,0.0,0.0,0.0,4.1367,4.1046,4.0817,4.0817,4.0238,3.9345,3.8051,3.8084,3.7115,3.4911,3.4979,3.4611,3.3805,3.2398,3.1035,2.9673,2.986,2.9953,2.9967,3.0154,3.0234,3.0234,3.0234,3.0234,3.0234,3.0234,3.0114,2.9953,2.9953,2.9833,2.9562,0.0,0.0,0.0,0.0,0.0,0.0,0.0,0.0,0.0,0.0,0.0,0.0,0.0,0.0,0.0,0.0,0.0,0.0,3.3386,3.3386,3.3406,3.3425,3.3425,3.3652,3.4134,3.4134,3.4329,3.4707,3.4329,3.4134,3.4134,3.3672,3.3711,3.4134,3.4134,3.4349,3.4707,3.4707,3.4707,3.4726,3.4726,3.468,3.4673,3.5221,3.5363,3.5335,3.5743,3.5845,3.5821,3.5412,3.4357,3.3517,3.5436,3.6348,3.627,3.4047,3.5245,3.7226,3.6871,3.5637,3.4523,3.4884,3.3719,3.3149,3.5506,3.628,3.6472,3.6472,3.6755,3.6338,0.0,0.0,3.453,3.453,3.453,3.5275,3.7436,3.6017,3.5494,0.0,0.0,0.0,0.0,0.0,0.0,4.1398,0.0,3.8858,3.8876,3.6809,3.5761,3.608,3.6355,3.5581,3.368,3.3887,3.2928,3.0795,3.0795,3.0795,3.0795,3.0808,3.0808,3.0808,3.0835,3.0835,3.0835,3.0835,3.0835,3.0835,3.0835,3.0835,3.0808,3.0808,3.0808,3.0635,0.0,0.0,0.0,0.0,0.0,0.0,0.0,0.0,0.0,0.0,0.0,0.0,0.0,0.0,0.0,0.0,0.0,0.0,3.3386,3.3386,3.3574,3.3887,3.3906,3.4134,3.4531,3.4531,3.459,3.4707,3.459,3.4531,3.4531,3.4434,3.4434,3.4531,3.4531,3.459,3.4707,3.4707,3.4902,3.5215,3.5215,3.4566,3.3758,3.5292,3.4971,3.3769,3.3879,3.3916,3.3898,3.3806,3.3513,3.3572,3.5816,3.6616,3.663,3.6335,3.6758,3.7344,3.7539,3.7532,3.721,3.5993,3.5635,3.5285,3.4326,3.4396,3.4649,3.4649,3.3733,3.2733,0.0,0.0,0.0,3.2258,3.2258,0.0,3.5464,3.5416,0.0,3.6031,0.0,3.817,3.6406,3.6677,0.0,0.0,3.7292,3.7014,3.7173,3.6986,3.6213,3.4751,3.4769,3.3752,3.1565,3.1647,3.1367,3.0795,3.0795,3.0795,3.0795,3.1022,3.1116,3.1129,3.1356,3.145,3.145,3.145,3.145,3.145,3.145,3.1316,3.1116,3.1116,3.0982,3.0755,0.0,0.0,0.0,0.0,0.0,0.0,0.0,0.0,0.0,0.0,0.0,0.0,0.0,0.0,0.0,0.0,0.0,0.0,0.0,3.3594,3.3809,3.4095,3.429,3.4551,3.5,3.5,3.5098,3.5273,3.5098,3.5,3.5,3.4805,3.4805,3.5,3.5,3.5117,3.5273,3.5273,3.543,0.0,0.0,3.5171,3.4555,3.5587,3.5348,3.4333,3.3648,3.3496,3.3781,3.4696,3.4864,3.4859,3.5536,3.64,3.7086,3.6292,0.0,3.6774,3.7909,3.6553,3.4819,3.4936,3.382,3.2619,3.2395,3.2608,3.2861,3.2861,3.2079,0.0,3.0176,3.0024,0.0,0.0,0.0,0.0,3.3302,3.3013,3.293,0.0,3.5557,0.0,3.473,3.5044,3.5378,0.0,3.5312,3.5265,3.5539,3.4871,3.3902,3.2745,3.2842,3.2352,3.1216,3.1169,3.1169,3.1169,3.1169,3.1169,3.1183,3.1343,3.149,3.1623,0.0,3.1979,3.2099,3.2099,3.2099,3.2099,3.2099,3.2005,3.1784,3.1664,3.1503,3.1343,0.0,0.0,0.0,0.0,0.0,0.0,0.0,0.0,0.0,0.0,0.0,0.0,0.0,0.0,0.0,0.0,0.0,0.0,0.0,0.0,3.4134,3.4192,3.457,3.5,3.5469,3.5488,3.5664,3.5982,3.5664,3.5488,3.5469,3.5059,3.5098,3.5488,3.5488,3.5684,3.5982,3.5982,3.5982,3.5982,3.5982,3.5845,3.5655,0.0,3.5884,3.5551,3.4486,3.3965,3.4198,3.6581,3.7109,3.6573,3.5327,3.6329,3.7529,3.5624,3.5504,3.6312,3.7845,3.4626,3.1268,3.283,3.0694,2.8607,3.0252,3.0801,3.0993,3.0993,0.0,3.0426,2.8558,2.8179,2.8179,2.8179,0.0,2.9275,3.1159,3.0323,3.0129,3.1857,3.2878,3.3338,3.3073,3.3499,3.3747,3.3791,3.3587,3.3542,3.3776,3.1928,3.0862,3.0915,3.1156,3.141,3.1711,3.1751,3.173,3.173,3.1818,3.1831,3.1831,3.1831,3.1965,3.2158,3.2158,0.0,3.2594,3.2594,3.2594,3.2594,3.2594,3.2594,3.2567,3.2251,3.2158,3.2131,0.0,0.0,0.0,0.0,0.0,0.0,0.0,0.0,0.0,0.0,3.3347,0.0,0.0,0.0,0.0,0.0,0.0,0.0,0.0,0.0,0.0,3.457,3.5019,3.5469,3.5898,3.5918,3.5937,3.5982,3.5937,3.5918,3.5884,3.5786,3.584,3.5918,3.5918,3.5923,3.5982,3.5982,3.5982,3.5982,3.5982,3.5055,3.3847,3.5416,0.0,0.0,3.608,3.4611,3.2494,3.6457,3.7539,3.723,3.73,3.7565,3.7897,3.788,3.8196,3.8248,3.6847,3.6254,3.5263,3.2102,3.1037,3.0381,2.9007,2.8713,0.0,0.0,2.8754,2.8628,2.8263,2.8179,2.8179,2.8179,2.8446,2.8813,2.9387,3.108,3.1858,0.0,3.2491,3.3053,0.0,0.0,0.0,0.0,3.1694,3.168,3.1735,3.1329,3.1263,3.155,3.157,3.1623,3.1711,3.1904,3.2024,3.2024,3.2326,3.2447,3.2447,3.2447,3.2474,3.2514,3.2514,0.0,3.2594,3.2594,3.2594,3.2594,3.2594,3.2594,3.2581,3.2541,3.2514,3.2514,0.0,0.0,0.0,0.0,0.0,0.0,0.0,0.0,0.0,0.0,3.3386,3.3386,0.0,0.0,0.0,0.0,0.0,0.0,0.0,0.0,0.0,0.0,3.5351,3.582,3.6016,3.5982,3.5982,3.5982,0.0,3.5982,3.5982,3.5982,3.5982,3.5982,3.5982,3.5982,3.5982,3.5982,3.5982,3.5982,3.5982,3.5451,3.4799,0.0,0.0,0.0,0.0,3.5846,3.4037,3.7204,3.8125,3.8008,3.8203,3.8262,3.8122,3.7443,3.7446,3.7257,3.5459,3.5317,3.5248,3.3306,3.2094,3.1117,3.0093,0.0,0.0,0.0,2.8179,2.8179,2.8179,2.8179,2.8232,2.8406,2.8631,2.8895,2.9232,3.0594,3.1307,3.0509,3.1601,3.2079,0.0,3.1156,3.1303,3.145,3.145,3.145,3.145,3.145,3.1517,3.1711,3.1824,3.1891,3.1891,3.2233,3.238,3.238,3.2527,3.2594,3.2594,3.2594,3.2674,3.2822,3.2822,0.0,3.3,3.3,3.3,3.3,3.3,3.3,3.2973,3.2875,3.2822,3.2795,0.0,0.0,0.0,0.0,0.0,0.0,0.0,3.3386,3.3386,3.3386,3.3386,3.3386,3.3386,3.3386,0.0,0.0,0.0,0.0,0.0,0.0,0.0,0.0,0.0,0.0,3.5982,0.0,0.0,3.5982,3.5982,0.0,0.0,0.0,0.0,0.0,3.5982,3.5982,3.5982,3.5982,3.5982,0.0,0.0,3.6152,0.0,0.0,0.0,0.0,0.0,3.6952,3.5812,3.7878,3.8611,3.8611,3.8611,3.8611,3.836,3.7053,3.6824,3.6645,3.5128,3.4851,3.4809,3.418,3.271,3.1283,3.0827,2.9411,0.0,0.0,2.8179,2.8179,2.8179,2.8179,2.8286,2.8564,2.8815,2.9121,2.9526,3.0079,3.0453,0.0,3.0942,0.0,3.1316,3.153,0.0,3.1711,3.173,3.1805,3.1805,3.1805,3.1845,3.1898,3.2078,3.2198,3.2198,3.2541,3.2688,3.2688,3.2755,3.2781,3.2781,3.2781,3.2902,3.3066,3.3066,0.0,0.0,3.3414,3.3414,3.3414,3.3414,3.3414,3.3387,3.316,3.3066,3.304,0.0,0.0,0.0,0.0,0.0,0.0,0.0,3.3386,3.3386,3.3386,3.3386,3.3386,3.3386,3.3386,0.0,0.0,0.0,0.0,0.0,0.0,0.0,0.0,0.0,0.0,0.0,0.0,0.0,3.5982,3.5982,0.0,0.0,0.0,0.0,0.0,0.0,3.5982,3.5982,3.5982,0.0,0.0,0.0,0.0,0.0,0.0,0.0,0.0,0.0,3.7234,3.5812,3.7878,3.8611,3.8611,3.8611,3.8611,3.8652,3.8841,0.0,0.0,3.7483,3.7256,3.663,3.2694,3.1557,3.0868,2.8964,0.0,2.8179,2.8179,2.8179,2.8179,2.8179,2.8179,2.8286,2.8564,2.8815,2.9188,2.9793,3.0154,3.06,3.1089,0.0,0.0,3.1597,3.1698,3.1711,3.1711,3.1917,3.2064,3.2064,3.2064,3.2185,3.25,3.2541,3.2554,3.2554,3.2848,3.2933,3.2995,3.32,3.3334,3.3334,3.3334,3.3347,3.3374,3.3374,0.0,0.0,3.3414,3.3414,3.3414,3.3414,3.3414,3.3414,3.3387,3.3374,3.3374,0.0,0.0,0.0,0.0,0.0,0.0,0.0,3.3386,3.3386,3.3386,3.3386,3.3386,3.3386,3.3386,3.3386,0.0,0.0,0.0,0.0,0.0,0.0,0.0,0.0,0.0,0.0,0.0,3.5982,3.5982,3.5982,0.0,0.0,0.0,0.0,0.0,0.0,3.5982,3.5982,3.5982,0.0,0.0,0.0,0.0,0.0,0.0,0.0,0.0,0.0,0.0,3.7492,3.8299,3.8611,3.865,3.8867,3.8945,3.8802,0.0,3.8899,3.9606,3.6566,3.7788,3.8843,3.4489,3.339,3.2817,3.0634,0.0,2.8179,2.8179,2.8179,2.8179,2.8179,2.8179,2.8339,2.8791,2.8921,2.9268,3.0074,3.0434,3.0768,3.1183,3.1383,0.0,0.0,0.0,3.1791,3.1917,3.2246,3.2487,3.2625,3.2465,3.2474,3.2594,3.2768,3.2848,3.2848,3.3093,3.324,3.324,3.336,3.3414,3.3414,3.3414,3.3414,3.3414,3.3414,0.0,0.0,3.3414,3.3414,3.3414,3.3414,3.3414,3.3414,3.3414,3.3414,3.3414,0.0,0.0,0.0,0.0,0.0,0.0,3.3386,3.3386,3.3386,3.3386,3.3386,3.3386,3.3386,3.3386,3.3386,3.3386,0.0,0.0,0.0,0.0,0.0,0.0,0.0,0.0,0.0,0.0,3.5982,3.5982,3.5982,3.5982,0.0,0.0,3.5982,3.5982,0.0,0.0,0.0,0.0,0.0,0.0,0.0,0.0,0.0,0.0,0.0,0.0,0.0,0.0,0.0,0.0,0.0,3.8735,3.8341,3.889,3.9348,3.8118,3.905,3.9932,3.7312,3.839,3.9335,3.5638,3.4205,3.3145,0.0,0.0,2.8389,2.9006,2.8628,2.8389,2.9034,2.871,2.8486,2.8908,2.9068,2.9486,3.0413,3.0662,3.0929,3.1316,0.0,3.1711,0.0,3.1744,3.1957,3.2332,3.2607,3.2848,3.3093,3.2969,3.2848,3.2848,3.3,3.3106,3.3106,3.3307,3.3414,3.3414,3.3414,3.3414,3.3414,3.3414,3.3414,3.3414,3.3414,0.0,0.0,3.3414,3.3414,3.3414,3.3414,3.3414,3.3414,3.3414,3.3414,3.3414,0.0,0.0,0.0,0.0,0.0,0.0,0.0,3.3386,3.3386,3.3386,3.3386,3.3386,3.3386,3.3386,3.3386,3.3386,0.0,0.0,0.0,0.0,0.0,0.0,0.0,0.0,0.0,0.0,0.0,3.5982,3.5982,3.5982,3.5982,3.5982,3.5982,3.5982,0.0,0.0,0.0,0.0,0.0,0.0,0.0,0.0,0.0,0.0,0.0,0.0,0.0,0.0,0.0,0.0,0.0,0.0,0.0,3.8101,4.0469,4.0469,4.0469,4.0587,4.1016,3.957,3.7419,3.5218,3.3063,3.0868,0.0,2.8221,2.8796,3.091,2.969,2.8838,3.0993,2.9832,2.8698,2.8948,2.9285,2.978,3.0662,3.0795,3.1009,0.0,3.1711,3.1711,3.1711,3.1931,3.2345,3.2969,3.2973,0.0,3.3387,3.34,3.34,3.34,3.34,3.3414,3.3414,3.3414,3.3414,3.3414,3.3414,3.3414,3.3414,3.3414,3.3414,0.0,0.0,0.0,0.0,3.3414,3.3414,3.3414,3.3414,3.3414,3.3414,3.3414,3.3414,3.3414,0.0,0.0,0.0,0.0,0.0,0.0,0.0,3.3386,3.3386,3.3386,3.3386,3.3386,3.3386,3.3386,3.3386,3.3386,0.0,0.0,0.0,0.0,0.0,0.0,0.0,0.0,0.0,0.0,0.0,0.0,0.0,3.5982,3.5982,3.5982,3.5982,3.5982,3.5982,3.5982,0.0,0.0,0.0,0.0,0.0,0.0,0.0,0.0,0.0,0.0,0.0,0.0,0.0,0.0,0.0,0.0,0.0,0.0,0.0,4.0434,3.9909,3.9088,4.0763,3.957,3.7361,3.5218,3.4164,3.3063,3.0868,3.0385,3.0578,3.1283,3.0868,3.0592,3.1283,2.9874,2.9199,3.0952,3.0431,3.002,3.0702,3.0969,3.1236,3.1671,3.1851,3.1971,0.0,0.0,3.2772,3.3009,3.316,3.332,3.3414,3.3414,3.3414,3.3414,3.3414,3.3414,3.3414,3.3414,3.3414,3.3414,3.3414,3.3414,3.3414,3.3414,3.3414,0.0,0.0,0.0,0.0,3.3414,3.3414,3.3414,3.3414,3.3414,3.3414,3.3414,3.3414,3.3414,0.0,0.0,0.0,0.0,0.0,0.0,0.0,3.3386,3.3386,3.3386,3.3386,3.3386,3.3386,3.3386,3.3386,3.3386,0.0,0.0,0.0,0.0,0.0,0.0,0.0,0.0,0.0,0.0,0.0,0.0,0.0,0.0,0.0,0.0,3.5982,3.5982,3.5982,3.6113,0.0,0.0,0.0,0.0,0.0,0.0,3.8611,0.0,0.0,0.0,0.0,0.0,0.0,0.0,0.0,0.0,0.0,0.0,0.0,0.0,3.835,3.839,4.0588,3.839,3.5339,3.4813,3.4083,0.0,3.1722,3.2052,3.2858,3.3676,3.3227,3.2659,3.2783,3.124,3.0281,3.1095,3.0605,3.0247,3.0728,3.1036,3.137,3.1784,3.1998,0.0,0.0,3.2759,3.3026,3.3133,3.3307,3.3414,3.3414,3.3414,3.3414,3.3414,3.3414,3.3414,3.3414,3.3414,3.3414,3.3414,3.3414,3.3414,3.3414,3.3414,3.3414,0.0,0.0,0.0,0.0,3.3414,3.3414,3.3414,3.3414,3.3414,3.3414,3.3414,3.3414,3.3414,0.0,0.0,0.0,0.0,0.0,0.0,0.0,0.0,0.0,0.0,3.3386,3.3386,3.3386,3.3386,3.3386,0.0,0.0,0.0,0.0,0.0,0.0,0.0,0.0,0.0,0.0,0.0,0.0,3.5982,3.5982,3.5982,3.5982,0.0,0.0,3.5982,3.5982,0.0,0.0,0.0,0.0,0.0,3.8418,3.8611,0.0,0.0,0.0,0.0,0.0,0.0,0.0,0.0,0.0,0.0,0.0,0.0,0.0,0.0,0.0,0.0,0.0,3.6281,0.0,0.0,0.0,0.0,3.164,3.3349,0.0,3.7498,3.6339,3.5003,3.5089,3.3588,3.177,3.0019,3.0142,3.0533,3.0782,3.1089,3.149,3.2038,3.2144,0.0,3.2969,3.3,3.312,3.3387,3.3414,3.3414,3.3414,3.3414,3.3414,3.3414,3.3414,3.3414,3.3414,3.3414,3.3414,3.3414,3.3414,3.3414,3.3414,3.3414,3.3414,0.0,0.0,0.0,0.0,3.3414,3.3414,3.3414,3.3414,3.3414,3.3414,3.3414,3.3414,3.3414,0.0,0.0,0.0,0.0,0.0,0.0,0.0,0.0,0.0,0.0,0.0,3.3386,3.3386,3.3386,0.0,0.0,0.0,0.0,0.0,0.0,0.0,0.0,0.0,0.0,0.0,0.0,0.0,3.5982,3.5982,3.5982,3.5982,3.5982,0.0,0.0,0.0,0.0,0.0,0.0,0.0,0.0,3.8571,3.8611,0.0,0.0,0.0,0.0,3.8611,3.8611,0.0,0.0,0.0,0.0,0.0,0.0,0.0,0.0,3.6362,3.5557,3.6081,0.0,3.4042,0.0,0.0,3.392,0.0,3.5581,3.7299,3.7816,3.773,3.7096,3.541,3.3833,3.267,3.2354,3.1405,3.0795,3.1076,3.157,3.1944,3.2091,3.2505,3.2826,3.3009,3.3187,3.3334,3.3414,3.3414,3.3414,3.3414,3.3414,3.3414,3.3414,3.3414,3.3414,3.3414,3.3414,3.3414,3.3414,3.3414,3.3414,3.3414,3.3414,3.3414,0.0,0.0,0.0,3.3414,3.3414,3.3414,3.3414,3.3414,3.3414,3.3414,3.3414,3.3414,3.3414,0.0,0.0,0.0,0.0,0.0,0.0,0.0,0.0,0.0,0.0,0.0,0.0,0.0,0.0,0.0,0.0,0.0,0.0,0.0,0.0,0.0,0.0,0.0,0.0,0.0,3.5982,0.0,0.0,0.0,3.5982,0.0,0.0,0.0,0.0,0.0,0.0,0.0,0.0,0.0,0.0,3.8611,0.0,0.0,0.0,0.0,0.0,3.8611,3.8611,0.0,3.8789,3.9316,3.9922,0.0,0.0,0.0,0.0,3.7777,3.7259,3.5218,3.3961,3.3431,3.4449,3.4692,3.4935,3.596,3.7856,3.9413,3.9413,3.9732,3.9029,3.5849,3.5827,3.5719,3.3853,3.3059,3.245,3.1698,3.2878,3.3469,3.2611,3.2786,3.3026,0.0,3.332,3.3414,3.3414,3.3414,3.3414,3.3414,3.3414,3.3414,3.3414,3.3414,3.3414,3.3414,3.3414,3.3414,3.3414,3.3414,3.3414,3.3414,3.3414,3.3414,0.0,0.0,0.0,3.3414,3.3414,3.3414,3.3414,3.3414,3.3414,3.3414,3.3414,3.3414,3.3414,0.0,0.0,0.0,0.0,0.0,0.0,0.0,0.0,0.0,0.0,0.0,0.0,0.0,0.0,0.0,0.0,0.0,0.0,0.0,0.0,0.0,0.0,0.0,3.5982,3.5982,3.5982,3.5982,0.0,0.0,0.0,0.0,0.0,3.6055,0.0,0.0,0.0,0.0,0.0,0.0,0.0,3.8611,0.0,0.0,0.0,0.0,0.0,0.0,0.0,0.0,3.9062,3.9512,3.9961,4.0352,0.0,0.0,0.0,0.0,0.0,3.5799,3.3308,3.234,3.4246,3.4935,3.5661,3.7498,3.961,4.123,4.1289,4.1601,4.0756,3.6934,3.8502,3.9018,3.484,3.4607,3.4402,3.2859,3.4516,3.5144,3.3251,3.3013,0.0,3.3387,3.3414,3.3414,3.3414,3.3414,3.3414,3.3414,3.3414,3.3414,3.3414,3.3414,3.3414,3.3414,3.3414,3.3414,3.3414,3.3414,3.3414,3.3414,3.3414,3.3414,3.3414,0.0,0.0,3.3414,3.3414,3.3414,3.3414,3.3414,3.3414,3.3414,3.3414,3.3414,3.3414,0.0,0.0,0.0,0.0,0.0,0.0,0.0,0.0,0.0,0.0,0.0,0.0,0.0,0.0,0.0,0.0,0.0,0.0,0.0,0.0,0.0,0.0,3.5762,3.5982,3.5982,3.5982,3.5982,3.5982,0.0,0.0,3.5982,3.5982,3.6211,3.6636,0.0,0.0,0.0,0.0,0.0,3.8611,3.8611,0.0,0.0,0.0,0.0,0.0,0.0,0.0,0.0,3.9062,3.9512,3.9961,4.0352,0.0,0.0,0.0,0.0,0.0,3.5379,3.4449,3.4286,3.4611,3.6081,3.7498,3.7816,3.961,4.1308,4.1621,4.2031,4.1733,3.9892,4.0245,3.9487,3.5394,3.5009,3.5243,3.5221,3.5786,3.5391,3.3278,3.32,3.336,3.3414,3.3414,3.3414,3.3414,3.3414,3.3414,3.3414,3.3414,3.3414,3.3414,3.3414,3.3414,3.3414,3.3414,3.3414,3.3414,3.3414,3.3414,3.3414,3.3414,3.3414,3.3414,0.0,3.3414,3.3414,3.3414,3.3414,3.3414,3.3414,3.3414,3.3414,3.3414,3.3414,3.3414,0.0,0.0,0.0,0.0,0.0,0.0,0.0,0.0,0.0,0.0,0.0,0.0,0.0,0.0,0.0,0.0,0.0,0.0,0.0,0.0,0.0,3.5703,3.5884,3.5982,3.5982,3.5982,3.5982,3.5982,3.5982,3.6133,3.6367,3.6601,3.6816,3.7031,0.0,0.0,0.0,0.0,3.8611,3.8611,0.0,0.0,0.0,0.0,0.0,0.0,0.0,0.0,0.0,0.0,3.9726,4.0019,4.0664,0.0,0.0,0.0,0.0,0.0,3.5598,3.6402,3.7954,3.6722,3.7162,3.8286,3.9694,4.0816,4.1621,4.2051,4.2656,4.2507,4.0667,4.205,4.2504,3.9548,3.9316,3.9175,3.8228,3.7167,3.6699,0.0,0.0,3.3937,3.5352,3.4236,3.3414,3.3414,3.3414,3.3414,3.3414,3.3414,3.3414,3.3414,3.3414,3.3414,3.3414,3.3414,3.3414,3.3414,3.3414,3.3414,3.3414,3.3414,3.3414,3.3414,0.0,3.3414,3.3414,3.3414,3.3414,3.3414,3.3414,3.3414,3.3427,3.3601,3.3668,3.3694,0.0,0.0,0.0,0.0,0.0,0.0,0.0,0.0,0.0,0.0,0.0,0.0,0.0,0.0,0.0,0.0,0.0,0.0,0.0,0.0,3.5215,3.5996,3.5982,3.5982,3.5982,3.5982,3.5982,3.5982,3.6113,3.6406,3.6851,3.7246,3.7441,0.0,0.0,0.0,0.0,0.0,3.8611,3.8611,0.0,0.0,0.0,0.0,0.0,0.0,0.0,0.0,0.0,0.0,0.0,0.0,0.0,0.0,0.0,3.7935,3.8724,3.9707,3.6362,3.7896,4.0177,3.9072,3.8814,3.9342,4.1344,4.1875,4.209,4.2617,4.3242,4.3272,4.1843,4.3418,4.4679,4.3756,4.3352,4.265,4.1302,3.9576,3.8875,4.0142,3.6756,3.4869,3.6263,3.4571,3.3414,3.3414,3.3414,3.3414,3.3414,3.3414,3.3414,3.3414,3.3414,3.3414,3.3414,3.3414,3.3414,3.3414,3.3414,3.3414,3.3414,3.3414,3.3414,3.3414,3.3414,3.3414,3.3414,3.3494,3.3521,3.3534,3.3601,3.3627,3.3654,3.3895,3.3988,3.4015,0.0,0.0,0.0,0.0,0.0,0.0,0.0,0.0,0.0,0.0,0.0,0.0,0.0,0.0,0.0,0.0,0.0,0.0,0.0,0.0,3.5547,3.5962,3.5982,3.5982,3.5982,3.5982,3.5982,3.5982,3.6426,3.6871,3.7266,3.7676,3.7835,3.7891,0.0,0.0,0.0,0.0,3.8611,3.8611,3.8611,0.0,0.0,0.0,0.0,0.0,0.0,0.0,0.0,0.0,0.0,0.0,0.0,0.0,4.0353,3.6161,3.6442,3.8054,3.7737,3.7896,3.8679,4.0951,4.1501,4.156,4.1757,4.2109,4.2577,4.3437,4.3672,4.404,4.5122,4.3965,4.3641,4.6157,4.4741,4.3487,4.4013,0.0,4.2262,3.8069,3.7233,3.6129,3.39,3.3514,3.3414,3.3414,3.3414,3.3414,3.3414,3.3414,3.3414,3.3414,3.3414,3.3414,3.3414,3.3414,3.3414,3.3414,3.3414,3.3414,3.3414,3.3414,3.3414,3.3414,3.3414,3.3414,3.3427,3.3734,3.3855,3.3881,3.4148,3.4255,3.4255,3.4282,3.4282,3.4295,0.0,0.0,0.0,0.0,0.0,0.0,0.0,0.0,0.0,0.0,0.0,0.0,0.0,0.0,0.0,0.0,0.0,0.0,0.0,0.0,3.5586,3.5962,3.5982,3.5982,3.5982,3.5982,3.6152,3.6426,3.7109,3.7539,3.7695,3.8125,0.0,0.0,0.0,0.0,0.0,0.0,0.0,3.8611,3.8611,3.8611,0.0,0.0,0.0,0.0,0.0,0.0,0.0,0.0,4.0352,4.0432,4.0044,3.957,3.8843,3.7162,3.7241,3.7896,3.7896,3.9107,4.0558,4.156,4.2207,4.2598,4.2598,4.293,4.3398,4.4004,4.457,0.0,0.0,4.562,4.5636,4.6717,4.528,4.4617,4.6487,4.2833,4.0511,4.1939,3.7806,3.5104,3.5734,3.4336,3.3414,3.3414,3.3414,3.3414,3.3414,3.3414,3.3414,3.3414,3.3414,3.3414,3.3414,3.3414,3.3414,3.3414,3.3414,3.3414,3.3414,3.3414,3.3521,3.3708,3.3708,3.3814,3.3988,3.4108,3.4162,3.4162,3.4282,3.4322,3.4349,3.4523,3.4603,3.4616,0.0,0.0,0.0,0.0,0.0,0.0,0.0,0.0,0.0,0.0,0.0,0.0,0.0,0.0,0.0,0.0,0.0,0.0,0.0,3.5332,3.5723,3.5982,3.5982,3.5982,3.5982,3.6152,3.6367,3.6714,3.7519,3.7988,3.8144,0.0,0.0,0.0,0.0,0.0,0.0,0.0,0.0,0.0,3.8611,3.8611,0.0,0.0,0.0,0.0,0.0,0.0,0.0,0.0,4.0125,3.9718,4.0062,3.8627,3.6882,3.6882,3.7379,3.7896,3.7896,3.9832,4.1836,4.1973,4.2637,4.332,4.3457,4.3711,4.4082,4.4687,4.5488,4.6152,4.6445,0.0,0.0,4.7305,4.6368,4.6259,4.815,4.342,4.0754,4.3499,3.8392,3.5004,3.5981,3.4435,3.3414,3.3414,3.3414,3.3414,3.3414,3.3414,3.3414,3.3414,3.3414,3.3414,3.3414,3.3414,3.3467,3.3561,3.3561,3.3561,3.3561,3.3561,3.3734,3.4028,3.4028,3.4135,3.4322,3.4416,3.4509,3.4603,3.4603,3.4603,3.4616,3.483,3.4949,3.4923,0.0,0.0,0.0,0.0,0.0,0.0,0.0,0.0,0.0,0.0,0.0,0.0,0.0,0.0,0.0,0.0,0.0,0.0,3.5371,3.5781,3.5982,3.5982,3.5982,3.5982,3.6035,3.6465,3.6714,3.6714,3.7519,3.8144,3.8611,3.8611,0.0,0.0,0.0,0.0,0.0,0.0,0.0,0.0,3.8611,3.8611,3.8611,0.0,0.0,0.0,0.0,0.0,0.0,0.0,3.9349,3.7935,3.7896,3.6442,3.4732,3.4732,3.6241,3.7896,3.7935,3.9832,4.1914,4.2304,4.3045,4.3828,4.4297,4.4414,4.4648,4.5508,4.6348,4.6889,4.6889,4.7285,0.0,4.8144,4.8203,4.8359,4.8835,4.6635,4.4069,4.1524,3.8929,3.6312,3.37,3.3464,3.3414,3.3414,3.3414,3.3414,3.3414,3.3414,3.3414,3.3414,3.3414,3.3414,3.3414,3.3414,3.3574,3.3881,3.3895,3.3895,3.3895,3.3895,3.4055,3.4322,3.4322,3.4322,3.4349,3.4643,3.4937,3.5191,3.5191,3.5191,3.5191,3.5191,3.5191,3.5191,0.0,0.0,0.0,0.0,0.0,0.0,0.0,0.0,0.0,0.0,0.0,0.0,0.0,0.0,0.0,0.0,0.0,0.0,3.5371,3.5781,3.5982,3.5982,3.5982,3.6152,3.6499,3.7187,3.7559,3.7559,3.8105,3.8457,3.8611,3.8611,0.0,3.8611,0.0,0.0,0.0,0.0,0.0,0.0,3.8611,3.8611,0.0,0.0,0.0,0.0,0.0,0.0,0.0,0.0,0.0,0.0,3.6602,3.6241,3.6962,3.6962,3.7401,3.8286,4.0126,4.1419,4.2422,4.3144,4.3769,4.4394,4.5137,4.5293,4.5547,4.6387,4.6714,4.6987,4.7324,4.7734,0.0,4.8183,4.8476,4.8757,4.8894,4.6635,4.4748,4.3974,4.162,3.9026,3.6411,3.6115,3.5401,3.3564,3.3414,3.3414,3.3414,3.3414,3.3414,3.3414,3.3414,3.3414,3.3414,3.3627,3.3788,3.3895,3.4095,3.4189,3.4189,3.4189,3.4349,3.4629,3.4629,3.475,3.495,3.503,3.5124,3.5191,3.5191,3.5191,3.5191,3.5191,3.5191,3.5191,0.0,0.0,0.0,0.0,0.0,0.0,0.0,0.0,0.0,0.0,3.3386,0.0,0.0,0.0,0.0,0.0,0.0,0.0,0.0,0.0,3.5982,3.5982,3.6191,3.6562,3.7148,3.7676,3.8008,3.8184,3.8437,3.8611,3.8611,3.8611,3.8611,3.8611,0.0,3.8611,0.0,0.0,3.8708,3.8828,3.8828,3.8945,3.9121,0.0,0.0,0.0,0.0,0.0,0.0,0.0,0.0,0.0,3.6241,3.5097,3.4408,3.6121,3.6747,3.7405,3.9818,4.1567,4.2851,4.3535,4.418,4.4922,4.5937,4.6172,4.6308,4.6772,4.7162,4.7519,4.7793,4.8183,0.0,4.8476,4.8737,4.8913,4.8913,4.6635,4.4984,4.4984,4.272,4.0561,3.901,3.888,3.8197,3.6608,3.555,3.4969,3.4969,3.3937,3.3414,3.3414,3.3414,3.3467,3.3601,3.3788,3.4002,3.4242,3.4416,3.4549,3.4656,3.4549,3.4656,3.4937,3.4937,3.503,3.5191,3.5191,3.5191,3.5191,3.5191,3.5191,3.5191,3.5191,3.5191,3.5191,0.0,0.0,0.0,0.0,0.0,0.0,0.0,0.0,0.0,0.0,3.3425,3.3445,0.0,0.0,0.0,0.0,0.0,0.0,0.0,0.0,3.5982,3.5982,3.6465,3.7109,3.7874,3.7933,3.8184,3.8611,3.8611,3.8611,3.8611,3.8611,3.863,3.8669,0.0,3.8689,3.8728,3.8728,3.8796,3.8961,3.8961,3.9193,3.9619,3.9657,0.0,0.0,0.0,0.0,0.0,0.0,0.0,0.0,3.6184,3.339,2.9621,3.3757,3.5283,3.6058,3.8267,4.0952,4.3242,4.3711,4.4512,4.5465,4.6616,4.6948,4.7006,4.7006,4.7676,4.8223,4.8262,4.8594,4.8913,4.8913,4.8913,4.8913,4.8913,4.6868,4.5379,4.5379,4.3292,4.1812,4.1572,4.1524,4.1428,4.1235,3.8993,3.764,3.7674,3.5153,3.375,3.375,3.3541,3.3587,3.3881,3.3935,3.4229,3.4815,3.4842,3.4937,3.5191,3.4976,3.495,3.5191,3.5191,3.5191,3.5191,3.5191,3.5191,3.5191,3.5191,3.5191,3.5191,3.5191,3.5191,3.5191,0.0,0.0,0.0,0.0,0.0,0.0,0.0,0.0,0.0,0.0,0.0,0.0,0.0,0.0,0.0,0.0,0.0,0.0,0.0,0.0,3.5982,3.5982,3.6758,3.7402,3.7874,3.8262,3.8513,3.8611,3.8611,3.8611,3.8611,0.0,0.0,3.9062,0.0,3.9277,3.9609,3.9609,3.867,3.7171,3.7171,3.7226,3.7354,3.7704,3.7927,0.0,0.0,0.0,0.0,0.0,0.0,0.0,3.3594,3.3022,3.3798,3.6442,3.7525,3.8383,4.0908,4.2525,4.375,4.4551,4.5601,4.6538,4.6831,4.7441,4.793,4.793,4.8086,4.832,4.8698,4.8835,4.8913,4.8913,4.8913,4.8913,4.8913,4.8412,4.8088,4.8088,4.7605,4.6429,4.4353,4.4163,4.3339,4.1332,4.0657,4.0368,4.0368,3.7855,3.646,3.646,3.4734,3.3814,3.3881,3.44,3.4695,3.4815,3.499,3.5137,3.5191,3.5137,3.5137,3.5191,3.5191,3.5191,3.5191,3.5191,3.5191,3.5191,3.5191,3.5191,3.5191,3.5191,3.5191,3.5191,0.0,0.0,0.0,0.0,0.0,0.0,0.0,0.0,0.0,0.0,0.0,0.0,0.0,0.0,0.0,0.0,0.0,0.0,0.0,0.0,0.0,3.6621,3.7246,3.7793,3.8223,3.8457,3.8611,3.8611,3.8769,3.8887,0.0,0.0,0.0,3.9531,0.0,3.9668,3.9807,3.8785,3.8384,3.8284,3.6217,3.6127,0.0,0.0,3.668,3.7467,3.6652,0.0,0.0,0.0,0.0,0.0,0.0,0.0,3.4968,3.6287,3.767,3.9177,4.0718,4.256,4.4238,4.5117,4.6133,4.6948,4.7187,4.7734,4.8262,4.8476,4.8516,4.864,4.8855,4.8913,4.8913,4.8913,4.8913,4.8913,4.8913,4.8913,4.8913,4.8913,4.8913,4.8366,4.7008,4.6868,4.6336,4.4984,4.3737,4.2482,4.1283,3.8734,3.678,3.5728,3.4532,3.4028,3.436,3.4668,3.4882,3.4977,3.5124,3.5191,3.5191,3.5191,3.5191,3.5191,3.5191,3.5191,3.5191,3.5191,3.5191,3.5191,3.5191,3.5191,3.5191,3.5191,3.5191,3.5191,0.0,0.0,0.0,0.0,0.0,0.0,0.0,0.0,0.0,0.0,0.0,0.0,0.0,0.0,0.0,0.0,0.0,0.0,0.0,0.0,0.0,3.7363,3.7734,3.8125,3.8591,3.8611,3.865,3.8691,3.9023,0.0,0.0,0.0,0.0,4.0,0.0,4.0039,4.0003,3.8153,3.8185,3.9179,3.556,0.0,0.0,0.0,0.0,0.0,3.4773,3.4367,3.4854,3.5863,0.0,0.0,0.0,0.0,3.4351,3.549,3.7439,3.9299,3.9752,4.2227,4.4805,4.5586,4.6426,4.7129,4.75,4.7969,4.8418,4.8835,4.8913,4.8913,4.8913,4.8913,4.8913,4.8913,4.8913,4.8913,4.8913,4.8913,4.8913,4.8913,4.8913,4.8913,4.8913,4.8913,4.8913,4.8913,4.6476,4.4069,4.1955,3.8975,3.6481,3.4614,3.4229,3.432,3.4815,3.4869,3.4963,3.5191,3.5191,3.5191,3.5191,3.5191,3.5191,3.5191,3.5191,3.5191,3.5191,3.5191,3.5191,3.5191,3.5191,3.5191,3.5191,3.5191,3.5191,3.5191,0.0,0.0,0.0,0.0,0.0,0.0,0.0,0.0,0.0,0.0,3.5019,0.0,0.0,0.0,0.0,0.0,0.0,0.0,3.5982,0.0,0.0,3.7777,3.7855,3.8125,3.8591,3.8611,3.875,3.9121,0.0,0.0,0.0,0.0,0.0,4.043,0.0,0.0,4.0996,4.0725,0.0,0.0,0.0,0.0,0.0,0.0,0.0,0.0,0.0,0.0,3.4164,3.0676,3.1614,0.0,0.0,0.0,3.2649,3.6713,3.8518,3.9354,4.0054,4.2824,4.5625,4.6094,4.6855,4.75,4.7578,4.8249,4.8835,4.8894,4.8913,4.8913,4.8913,4.8913,4.8913,4.8913,4.8913,4.8913,4.8913,4.8913,4.8913,4.8913,4.8913,4.8913,4.8913,4.8913,4.8913,4.8913,4.6476,4.4843,4.4494,4.0139,3.7511,3.7207,3.5581,3.4735,3.4815,3.5017,3.5151,3.5191,3.5191,3.5191,3.5191,3.5191,3.5191,3.5191,3.5191,3.5191,3.5191,3.5191,3.5191,3.5191,3.5191,3.5191,3.5191,3.5191,3.5191,3.5191,0.0,0.0,0.0,0.0,0.0,0.0,0.0,0.0,0.0,0.0,0.0,0.0,0.0,0.0,0.0,3.5982,3.5982,3.6133,3.6367,3.7012,3.7539,3.7874,3.8164,3.8379,3.8611,3.8809,3.9023,3.9199,0.0,0.0,0.0,4.0586,4.0703,0.0,0.0,0.0,0.0,0.0,0.0,0.0,0.0,0.0,0.0,0.0,0.0,0.0,0.0,0.0,0.0,0.0,3.2093,3.4894,3.6121,0.0,0.0,0.0,4.0062,3.9918,4.2303,4.4295,4.584,4.6484,4.7109,4.7637,4.7871,4.8464,4.8913,4.8913,4.8913,4.8913,4.8913,4.8913,4.8913,4.8913,4.8913,4.8913,4.8913,4.8913,4.8913,4.8913,4.8913,4.8913,4.8913,4.8913,4.8273,4.6822,4.5661,4.3737,4.0834,3.878,3.7095,3.5849,3.5143,3.4895,3.5004,3.5137,3.5191,3.5191,3.5191,3.5191,3.5191,3.5191,3.5191,3.5191,3.5191,3.5191,3.5191,3.5191,3.5191,3.5191,3.5191,3.5191,3.5191,3.5191,3.5191,3.5191,0.0,0.0,0.0,0.0,0.0,0.0,0.0,0.0,0.0,0.0,0.0,0.0,0.0,0.0,0.0,0.0,3.6113,3.6406,3.6953,3.7578,3.7933,3.8086,3.8398,3.8669,3.873,3.9043,3.9316,3.9531,0.0,0.0,4.0703,4.1016,4.1211,0.0,3.9492,0.0,0.0,0.0,0.0,0.0,0.0,0.0,0.0,0.0,0.0,0.0,0.0,0.0,0.0,0.0,0.0,0.0,0.0,3.6557,0.0,0.0,0.0,4.0729,4.3462,4.5015,4.5976,4.6621,4.7187,4.7656,4.7969,4.8476,4.8913,4.8913,4.8913,4.8913,4.8913,4.8913,4.8913,4.8913,4.8913,4.8913,4.8913,4.8913,4.8913,4.8913,4.8913,4.8913,4.8913,4.8913,4.7837,4.522,4.44,4.2085,3.7647,3.7048,3.6102,3.4467,3.4723,3.4977,3.5191,3.5191,3.5191,3.5191,3.5191,3.5191,3.5191,3.5191,3.5191,3.5191,3.5191,3.5191,3.5191,3.5191,3.5191,3.5191,3.5191,3.5191,3.5191,3.5191,3.5191,3.5191,0.0,0.0,0.0,0.0,0.0,0.0,0.0,0.0,0.0,0.0,0.0,0.0,0.0,3.5982,3.5982,3.5982,3.6406,3.6992,3.7812,3.7874,3.8105,3.8552,3.8591,0.0,3.916,3.9199,3.9609,4.0411,4.0469,0.0,4.1172,4.1211,4.1211,4.1172,4.1094,3.9943,3.8054,0.0,0.0,0.0,0.0,0.0,0.0,0.0,0.0,0.0,0.0,0.0,0.0,0.0,0.0,0.0,0.0,0.0,0.0,0.0,0.0,0.0,4.2032,4.4159,4.6289,4.6328,4.6973,4.7623,4.7617,4.8307,4.8913,4.8913,4.8913,4.8913,4.8913,4.8913,4.8913,4.8913,4.8913,4.8913,4.8913,4.8913,4.8913,4.8913,4.8913,4.8913,4.8913,4.8913,4.7837,4.522,4.2768,4.0336,3.781,3.5623,3.4584,3.4788,3.5017,3.5177,3.5191,3.5191,3.5191,3.5191,3.5191,3.5191,3.5191,3.5191,3.5191,3.5191,3.5191,3.5191,3.5191,3.5191,3.5191,3.5191,3.5191,3.5191,3.5191,3.5191,3.5191,3.5191,0.0,0.0,0.0,0.0,0.0,0.0,0.0,0.0,0.0,0.0,0.0,0.0,0.0,3.6269,3.6445,3.6445,3.707,3.7598,3.7874,3.8184,3.8418,3.8611,3.8828,3.9043,3.9199,3.9766,4.0215,4.0489,4.0801,4.1016,4.1172,3.9746,3.908,3.9001,3.7618,3.7339,3.7618,3.3431,0.0,0.0,0.0,0.0,0.0,0.0,0.0,0.0,0.0,0.0,0.0,0.0,0.0,0.0,0.0,0.0,0.0,0.0,3.6855,3.9639,4.1496,4.2927,4.4377,4.6224,4.7148,4.7656,4.793,4.8483,4.8913,4.8913,4.8913,4.8913,4.8913,4.8913,4.8913,4.8913,4.8913,4.8913,4.8913,4.8913,4.8913,4.8913,4.8913,4.8913,4.8913,4.8913,4.7167,4.2863,4.1684,3.9427,3.5495,3.466,3.4456,3.4802,3.5044,3.5191,3.5191,3.5191,3.5191,3.5191,3.5191,3.5191,3.5191,3.5191,3.5191,3.5191,3.5191,3.5191,3.5191,3.5191,3.5191,3.5191,3.5191,3.5191,3.5191,3.5191,3.5311,3.5471,0.0,0.0,0.0,0.0,0.0,0.0,0.0,0.0,0.0,0.0,0.0,0.0,0.0,0.0,3.6968,3.709,3.7598,3.7952,3.8125,3.8418,3.8669,3.8826,3.9062,3.9336,3.9629,4.0177,4.0586,4.0742,4.0297,4.0099,4.0021,3.7856,3.6842,3.6722,3.457,3.4367,0.0,0.0,0.0,3.0343,0.0,0.0,3.0474,0.0,0.0,0.0,0.0,0.0,0.0,0.0,0.0,0.0,0.0,0.0,0.0,0.0,0.0,3.8302,3.943,4.0573,4.2048,4.4792,4.528,4.534,4.6462,4.714,4.7586,4.7586,4.8273,4.8913,4.8913,4.8913,4.8913,4.8913,4.8913,4.8913,4.8913,4.8913,4.8913,4.8913,4.8913,4.857,4.7698,4.7586,4.5473,4.0271,3.9852,3.8132,3.4256,3.4215,3.4496,3.4897,3.5097,3.5191,3.5191,3.5191,3.5191,3.5191,3.5191,3.5191,3.5191,3.5191,3.5191,3.5191,3.5191,3.5191,3.5191,3.5191,3.5191,3.5204,3.5311,3.5338,3.5351,3.5458,3.5605,3.5778,0.0,0.0,0.0,0.0,0.0,0.0,0.0,0.0,0.0,0.0,0.0,0.0,0.0,0.0,0.0,3.7874,3.7913,3.8125,3.8591,3.863,3.8769,3.918,3.9219,3.9648,4.0469,4.0451,4.0665,4.1094,3.8882,3.7816,3.7777,3.5621,3.4611,3.4489,3.2299,3.1309,3.1309,0.0,3.0107,2.8205,0.0,2.8379,2.8617,0.0,0.0,0.0,2.9827,3.0419,0.0,0.0,0.0,0.0,0.0,0.0,0.0,0.0,0.0,0.0,0.0,0.0,0.0,4.1888,4.1287,4.0721,4.3058,4.4267,4.489,4.489,4.6915,4.8709,4.8755,4.8709,4.8709,4.8755,4.8848,4.8913,4.8913,4.8913,4.8848,4.8801,4.8755,4.7744,4.5126,4.489,4.2768,3.7674,3.7282,3.6404,3.4385,3.4336,3.4603,3.5177,3.5191,3.5191,3.5191,3.5191,3.5191,3.5191,3.5191,3.5191,3.5191,3.5191,3.5191,3.5191,3.5191,3.5191,3.5191,3.5191,3.5204,3.5231,3.5525,3.5631,3.5672,3.5965,3.614,3.6086,0.0,0.0,0.0,0.0,0.0,0.0,0.0,0.0,0.0,0.0,0.0,0.0,0.0,0.0,0.0,3.8359,3.8398,3.8437,3.8611,3.8867,3.9082,3.9199,3.9824,4.0235,4.0469,3.9251,3.8674,3.8803,3.6642,3.5598,3.554,3.3349,0.0,0.0,3.0066,2.909,2.909,2.909,0.0,0.0,2.8484,2.8657,0.0,0.0,0.0,0.0,0.0,3.052,0.0,0.0,3.0421,3.0555,0.0,0.0,0.0,0.0,0.0,0.0,3.4923,0.0,0.0,0.0,0.0,0.0,4.0954,4.1717,4.2243,4.2243,4.2833,4.3879,4.5755,4.456,4.3927,4.5802,4.7698,4.8913,4.8913,4.8913,4.8227,4.6289,4.6083,4.5079,4.2482,4.2243,4.085,0.0,3.7297,3.6433,3.4385,3.4723,3.503,3.5191,3.5191,3.5191,3.5191,3.5191,3.5191,3.5191,3.5191,3.5191,3.5191,3.5191,3.5191,3.5191,3.5191,3.5191,3.5191,3.5191,3.5324,3.5511,3.5591,3.5765,3.5952,3.6046,3.6206,3.6393,0.0,0.0,0.0,0.0,0.0,0.0,0.0,0.0,0.0,0.0,0.0,0.0,0.0,0.0,0.0,0.0,3.873,3.8828,3.8828,3.9258,3.957,3.9746,4.0254,4.0163,3.9447,3.8438,3.7458,3.6562,3.4408,3.3308,3.3267,0.0,0.0,0.0,0.0,0.0,0.0,0.0,0.0,0.0,2.8738,0.0,0.0,2.9593,2.9927,0.0,0.0,0.0,3.0795,3.0795,3.0875,0.0,0.0,0.0,0.0,0.0,0.0,0.0,0.0,0.0,0.0,0.0,0.0,0.0,3.8371,3.9116,3.9561,3.9561,4.0416,4.1668,4.3149,4.2195,4.1668,4.3166,4.4701,4.5708,4.5708,4.5708,4.5126,4.3594,4.3387,4.2386,3.9836,3.9561,3.8505,3.5882,3.5649,3.5249,3.4333,3.4883,3.5191,3.5191,3.5191,3.5191,3.5191,3.5191,3.5191,3.5191,3.5191,3.5191,3.5191,3.5191,3.5191,3.5191,3.5191,3.5271,3.5378,3.5378,3.5471,3.5658,3.5899,3.6099,3.6273,3.6393,3.654,3.6687,0.0,0.0,0.0,0.0,0.0,0.0,0.0,0.0,0.0,0.0,0.0,0.0,0.0,0.0,0.0,0.0,3.9023,3.9277,3.9277,3.9707,0.0,0.0,0.0,0.0,0.0,3.7281,3.6224,3.4327,3.2134,3.1034,3.0993,0.0,0.0,0.0,0.0,0.0,0.0,0.0,0.0,2.8778,2.8988,2.9428,0.0,0.0,3.0381,0.0,3.0875,3.0915,3.0942,3.0982,3.1156,0.0,0.0,0.0,0.0,0.0,3.1711,0.0,0.0,0.0,0.0,0.0,0.0,0.0,3.5676,3.6535,3.6869,3.6854,3.8734,4.0416,4.0706,4.0513,4.0416,4.0706,4.0513,4.0513,4.1139,4.1187,4.1091,4.0802,4.0754,3.9739,3.7134,3.6869,3.5897,3.355,3.3467,3.3748,3.4295,3.4883,3.5191,3.5191,3.5191,3.5191,3.5191,3.5191,3.5191,3.5191,3.5191,3.5191,3.5191,3.5191,3.5191,3.5191,3.5191,3.5364,3.5578,3.5672,3.5645,3.5725,3.6299,3.654,3.658,3.6834,3.6885,3.6885,0.0,0.0,0.0,0.0,0.0,0.0,0.0,0.0,0.0,0.0,0.0,0.0,0.0,0.0,0.0,0.0,0.0,3.9766,0.0,0.0,0.0,0.0,0.0,0.0,0.0,0.0,3.2448,3.2052,2.9899,2.8838,2.8838,0.0,0.0,0.0,0.0,0.0,0.0,0.0,0.0,2.9659,2.9682,0.0,3.0373,3.0795,3.1036,3.1169,3.141,3.165,3.1891,0.0,3.2286,3.23,0.0,0.0,0.0,0.0,0.0,0.0,0.0,0.0,0.0,0.0,0.0,0.0,3.3587,3.3931,3.4136,3.4136,3.4571,3.5536,3.7674,3.6362,3.5585,3.7723,3.6263,3.6411,4.0609,4.1187,4.0416,3.8295,3.8066,3.7017,3.4435,3.4136,3.395,3.3464,3.3868,3.4189,3.4309,3.4883,3.5191,3.5191,3.5191,3.5191,3.5191,3.5191,3.5191,3.5191,3.5191,3.5191,3.5191,3.5191,3.5191,3.5191,3.5191,3.5364,3.5591,3.5885,3.6126,3.634,3.6473,3.6647,3.6805,3.6901,3.6885,3.6885,0.0,0.0,0.0,0.0,0.0,0.0,0.0,0.0,0.0,0.0,0.0,0.0,0.0,0.0,0.0,0.0,0.0,0.0,0.0,0.0,0.0,0.0,0.0,0.0,0.0,0.0,0.0,2.9815,2.8712,2.8179,0.0,0.0,0.0,0.0,0.0,0.0,0.0,0.0,3.0087,3.0354,3.0354,0.0,3.0835,3.1276,3.1543,3.1704,3.2045,3.2246,3.2393,3.2541,3.2594,0.0,0.0,3.2367,3.234,0.0,3.2152,3.2152,0.0,0.0,0.0,3.2505,0.0,0.0,0.0,3.3307,3.3414,3.3414,3.3414,3.38,3.5104,3.4286,3.385,3.5153,3.4236,3.4336,3.6953,3.7331,3.6805,3.55,3.5366,3.4834,3.35,3.3414,3.3414,3.3414,3.3975,3.4322,3.4322,3.4883,3.5191,3.5191,3.5191,3.5191,3.5191,3.5191,3.5191,3.5191,3.5191,3.5191,3.5191,3.5191,3.5191,3.5191,3.5191,3.5444,3.5859,3.6006,3.6326,3.6727,3.6727,3.6794,3.6885,3.6885,3.6885,3.6885,0.0,0.0,0.0,0.0,0.0,0.0,0.0,0.0,0.0,0.0,0.0,0.0,0.0,0.0,0.0,0.0,0.0,0.0,0.0,0.0,0.0,0.0,0.0,3.3022,0.0,0.0,0.0,2.8179,2.8179,2.8219,2.8272,0.0,0.0,0.0,0.0,0.0,2.9927,0.0,0.0,3.0969,0.0,3.1156,3.1343,3.1637,3.1931,3.2225,3.2567,3.2674,3.2688,3.2741,0.0,3.2755,3.2701,3.2674,0.0,0.0,0.0,0.0,0.0,0.0,0.0,0.0,0.0,3.312,0.0,0.0,0.0,3.3414,3.3414,3.3414,3.3414,3.3414,3.3374,3.3267,3.3334,3.3374,3.3253,3.3334,3.3414,3.3414,3.3414,3.3414,3.3414,3.3414,3.3414,3.3414,3.3921,3.4269,3.4322,3.483,3.5137,3.5191,3.5191,3.5191,3.5191,3.5191,3.5191,3.5191,3.5191,3.5191,3.5191,3.5191,3.5191,3.5191,3.5191,3.5525,3.6072,3.6072,3.6393,3.6885,3.6885,3.6885,3.6885,3.6885,3.6885,3.6885,3.8574,3.8571,0.0,0.0,0.0,0.0,0.0,0.0,0.0,3.9746,0.0,0.0,0.0,0.0,0.0,0.0,0.0,0.0,3.8317,0.0,0.0,0.0,0.0,0.0,2.86,0.0,0.0,2.8179,2.8179,2.8326,2.8551,0.0,0.0,0.0,2.9495,0.0,0.0,0.0,3.1263,0.0,3.1851,3.1824,0.0,3.1944,3.2238,3.2581,3.2875,3.2933,3.2973,0.0,3.332,3.3267,0.0,3.2933,0.0,0.0,0.0,0.0,0.0,0.0,0.0,0.0,3.3173,0.0,0.0,0.0,3.3414,3.3414,0.0,3.3414,3.3414,0.0,0.0,3.2781,3.308,3.3227,3.2768,3.3093,3.3414,3.3414,3.3414,3.3414,3.3414,3.3414,3.3414,3.3414,3.3734,3.4055,3.4309,3.4629,3.4923,3.5191,3.5191,3.5191,3.5191,3.5191,3.5191,3.5191,3.5191,3.5191,3.5191,3.5191,3.5191,3.5191,3.5191,3.5525,3.6072,3.6072,3.6393,3.6885,3.6885,3.6885,3.6885,3.6885,3.6885,3.6885,0.0,3.916,0.0,0.0,0.0,0.0,0.0,0.0,0.0,3.9902,0.0,0.0,0.0,0.0,0.0,0.0,0.0,0.0,0.0,0.0,0.0,0.0,0.0,0.0,0.0,0.0,0.0,0.0,2.8417,2.8564,2.8815,0.0,0.0,0.0,2.9993,0.0,3.0715,0.0,3.165,0.0,0.0,0.0,0.0,3.2559,3.2786,3.3066,3.3187,3.3227,3.3253,0.0,3.3414,0.0,0.0,0.0,0.0,0.0,0.0,0.0,0.0,0.0,0.0,0.0,0.0,0.0,0.0,0.0,3.3414,0.0,0.0,0.0,0.0,0.0,0.0,0.0,3.3253,3.332,3.308,3.3253,3.3414,3.3414,3.3414,3.3414,3.3414,3.3414,3.3414,3.3414,3.3708,3.4015,3.4309,3.4603,3.4897,3.5191,3.5191,3.5191,3.5191,3.5191,3.5191,3.5191,3.5191,3.5191,3.5191,3.5191,3.5191,3.5191,3.5191,3.5525,3.6072,3.6072,3.6393,3.6885,3.6885,3.6885,3.6885,3.6885,3.6885,3.6885,0.0,0.0,0.0,0.0,0.0,0.0,0.0,0.0,0.0,0.0,0.0,0.0,4.0703,4.0976,0.0,0.0,0.0,3.9119,0.0,0.0,3.2833,0.0,0.0,0.0,0.0,0.0,0.0,2.8724,2.8724,2.8868,2.9242,2.9499,0.0,0.0,0.0,3.0875,3.137,0.0,3.1998,3.2358,3.2621,3.2888,3.3093,3.3093,3.3227,3.3414,3.3414,3.3414,3.3414,3.3414,3.3414,0.0,3.3414,0.0,0.0,0.0,0.0,0.0,3.3414,0.0,0.0,0.0,0.0,0.0,0.0,0.0,0.0,0.0,0.0,0.0,0.0,0.0,0.0,0.0,0.0,3.336,3.32,3.3307,3.3414,3.3414,3.3414,3.3414,3.3414,3.3414,3.3414,3.3414,3.3627,3.3881,3.4189,3.4482,3.4776,3.507,3.5151,3.5191,3.5191,3.5191,3.5191,3.5191,3.5191,3.5191,3.5191,3.5191,3.5191,3.5191,3.5191,3.5525,3.6072,3.6072,3.6393,3.6885,3.6885,3.6885,3.6885,3.6885,3.6885,3.6885,4.045,4.0156,0.0,0.0,0.0,0.0,0.0,0.0,0.0,0.0,0.0,0.0,0.0,0.0,0.0,0.0,0.0,3.6184,3.1887,0.0,3.0551,0.0,0.0,0.0,0.0,0.0,0.0,0.0,0.0,2.9282,2.9887,2.99,3.0207,0.0,3.1062,3.137,3.1724,3.1971,3.2425,3.2946,3.2959,3.3133,3.34,0.0,3.34,3.3414,3.3414,0.0,0.0,3.3414,3.3414,0.0,0.0,0.0,0.0,0.0,0.0,0.0,0.0,0.0,0.0,3.3414,0.0,0.0,0.0,0.0,3.3414,0.0,0.0,0.0,0.0,0.0,0.0,0.0,0.0,0.0,0.0,3.3053,3.3414,3.3414,3.3414,3.3414,3.3414,3.3414,3.3414,3.3414,3.3427,3.3561,3.3881,3.4175,3.4469,3.4815,3.5044,3.5191,3.5191,3.5191,3.5191,3.5191,3.5191,3.5191,3.5191,3.5191,3.5191,3.5191,3.5191,3.5525,3.6072,3.6072,3.6393,3.6885,3.6885,3.6885,3.6885,3.6885,3.6885,3.6885,0.0,0.0,0.0,0.0,0.0,0.0,0.0,4.1211,0.0,0.0,0.0,0.0,0.0,0.0,4.0314,0.0,0.0,3.6063,3.1681,3.1392,0.0,0.0,0.0,2.8591,0.0,0.0,0.0,0.0,0.0,2.9913,3.0501,3.0688,3.0996,3.143,0.0,3.1971,0.0,0.0,0.0,0.0,0.0,3.332,3.3414,0.0,0.0,3.3414,3.3414,3.3414,0.0,3.3414,3.3414,3.3414,3.3414,3.3414,3.3414,3.3414,3.3414,0.0,0.0,0.0,3.3414,3.3414,0.0,0.0,0.0,0.0,0.0,0.0,0.0,0.0,0.0,0.0,0.0,0.0,0.0,0.0,0.0,3.3293,3.3414,3.3414,3.3414,0.0,3.3414,3.3414,3.3414,3.3414,3.3414,3.3547,3.3868,3.4162,3.4456,3.4802,3.5044,3.5191,3.5191,3.5191,3.5191,3.5191,3.5191,3.5191,3.5191,3.5191,3.5191,3.5191,3.5191,3.5525,3.6072,3.6072,3.6393,3.6885,3.6885,3.6885,3.6885,3.6885,3.6885,3.6885,4.1211,0.0,0.0,0.0,0.0,0.0,0.0,0.0,0.0,0.0,4.1211,0.0,4.1211,0.0,3.9158,0.0,3.6023,3.4091,3.0642,3.0405,0.0,2.8794,2.8721,0.0,0.0,0.0,0.0,0.0,0.0,3.0474,3.0955,3.1249,3.1543,3.1885,3.2131,3.2474,3.2755,3.2955,3.304,0.0,0.0,3.3414,0.0,0.0,3.3414,3.3414,0.0,3.3414,3.3414,3.3414,3.3414,3.3414,3.3414,3.3414,3.3414,3.3414,3.3414,3.3414,3.3414,3.3414,0.0,3.3414,3.3414,0.0,3.3414,0.0,0.0,0.0,0.0,0.0,0.0,0.0,0.0,0.0,0.0,0.0,0.0,3.3414,3.3414,3.3414,3.3414,0.0,0.0,3.3414,3.3414,3.3414,3.3414,3.3507,3.3708,3.4095,3.4402,3.4603,3.499,3.5191,3.5191,3.5191,3.5191,3.5191,3.5191,3.5191,3.5191,3.5191,3.5191,3.5191,3.5191,3.5525,3.6072,3.6072,3.6393,3.6885,3.6885,3.6885,3.6885,3.6885,3.6885,3.6885,0.0,0.0,0.0,0.0,3.7737,0.0,0.0,0.0,4.0919,0.0,4.0919,4.0919,4.1055,3.9059,3.6917,3.4725,3.2659,0.0,2.8733,2.8644,0.0,0.0,2.9055,2.9322,2.994,0.0,0.0,0.0,0.0,0.0,3.1229,3.157,3.1864,3.2158,3.2487,3.2781,3.3,3.3,3.316,3.3414,3.3414,3.3414,3.3414,3.3414,3.3414,3.3414,3.3414,3.3414,3.3414,3.3414,3.3414,3.3414,3.3414,3.3414,3.3414,3.3414,3.3414,3.3414,3.3414,3.3414,3.3414,3.3414,0.0,0.0,0.0,0.0,3.3414,0.0,0.0,0.0,0.0,0.0,0.0,0.0,0.0,0.0,0.0,0.0,0.0,0.0,0.0,0.0,0.0,3.3414,3.3414,3.3414,3.3414,3.3414,0.0,3.3975,3.4309,3.4322,3.487,3.5177,3.5191,3.5191,3.5191,3.5191,3.5191,3.5191,3.5191,3.5191,3.5191,3.5191,3.5191,3.5525,3.6072,3.6072,3.6393,3.6885,3.6885,3.6885,3.6885,3.6885,3.6885,3.6885,3.6362,3.5056,3.4246,0.0,3.55,3.5719,0.0,0.0,0.0,0.0,3.7379,3.698,3.8548,3.6967,3.4924,3.2751,3.2227,0.0,0.0,0.0,0.0,2.9673,2.99,3.0194,3.0555,3.0568,0.0,3.1116,0.0,0.0,3.1877,3.2233,3.2527,3.2759,3.2888,3.3026,3.3293,3.3293,3.3347,3.3414,3.3414,3.3414,0.0,0.0,3.3414,3.3414,3.3414,3.3414,3.3414,3.3414,3.3414,3.3414,3.3414,3.3414,3.3414,3.3414,3.3414,3.3414,3.3414,3.3414,3.3414,3.3414,3.3414,3.3414,0.0,0.0,0.0,0.0,0.0,0.0,0.0,0.0,0.0,0.0,0.0,0.0,0.0,0.0,0.0,3.3414,0.0,0.0,3.3414,3.3414,3.3414,3.3414,3.3414,3.3414,3.3414,3.3788,3.4095,3.4309,3.4683,3.4977,3.5191,3.5191,3.5191,3.5191,3.5191,3.5191,3.5191,3.5191,3.5191,3.5191,3.5191,3.5525,3.6072,3.6072,3.6393,3.6885,3.6885,3.6885,3.6885,3.6885,3.6885,3.6885,3.4692,0.0,0.0,3.3022,0.0,0.0,3.4408,0.0,0.0,3.6362,3.5555,0.0,3.6564,3.5007,3.3384,3.2137,3.1439,0.0,0.0,0.0,0.0,3.0287,3.0461,3.0742,3.1169,3.1169,0.0,3.1797,0.0,0.0,3.2353,3.2648,3.2875,3.2986,3.3106,3.3253,3.3414,3.3414,3.3414,3.3414,3.3414,3.3494,0.0,3.3614,3.3694,3.3801,3.3801,3.3734,3.3601,3.3454,3.3507,3.3587,3.3454,3.3414,3.3414,3.3414,3.3414,3.3414,3.3414,3.3414,3.3414,3.3414,3.3414,3.3414,3.3414,3.3414,3.3414,0.0,0.0,0.0,0.0,0.0,0.0,0.0,0.0,0.0,0.0,0.0,0.0,0.0,3.3414,3.3414,3.3414,3.3414,3.3414,3.3414,3.3414,3.3414,0.0,3.3721,3.4015,3.4309,3.4603,3.491,3.5191,3.5191,3.5191,3.5191,3.5191,3.5191,3.5191,3.5191,3.5191,3.5191,3.5191,3.5525,3.6072,3.6072,3.6393,3.6885,3.6885,3.6885,3.6885,3.6885,3.6885,3.6885,0.0,0.0,0.0,0.0,0.0,0.0,0.0,3.3911,0.0,3.4335,0.0,3.4394,3.4684,3.308,3.1999,3.1999,0.0,2.9766,3.002,3.0314,3.0654,3.0902,3.0942,3.1223,3.1818,3.1831,0.0,0.0,0.0,0.0,3.2661,3.2955,3.304,3.3053,3.3293,3.3414,3.3414,3.3414,3.344,3.3467,3.3467,3.3668,3.3948,3.3948,3.4095,3.4322,3.4322,3.4162,3.3895,3.3627,3.3708,3.3895,3.3614,3.3534,3.3534,3.3534,3.3534,3.3521,3.348,3.3467,3.3467,3.3427,3.3414,3.3414,3.3414,3.3414,3.3414,3.3414,3.3414,3.3414,0.0,0.0,0.0,0.0,0.0,0.0,0.0,0.0,0.0,0.0,0.0,0.0,3.3414,3.3414,3.3414,3.3414,3.3414,3.3414,0.0,0.0,3.3975,3.4309,3.4576,3.4857,3.5191,3.5191,3.5191,3.5191,3.5191,3.5191,3.5191,3.5191,3.5191,3.5191,3.5191,3.5525,3.6072,3.6072,3.6393,3.6885,3.6885,3.6885,3.6885,3.6885,3.6885,3.6885,0.0,0.0,0.0,0.0,0.0,2.9131,2.9893,2.98,3.0396,3.2466,3.118,3.0752,3.2586,3.1307,3.0318,3.0318,3.0474,0.0,0.0,0.0,0.0,3.155,3.1744,3.2038,3.2433,3.2447,3.2487,0.0,0.0,0.0,3.2955,3.32,3.3334,3.3334,3.3387,3.3414,3.3414,3.3414,0.0,3.3801,3.3801,3.3975,3.4242,3.4242,3.4282,3.4322,3.4322,3.4282,3.4242,3.4175,3.4202,3.4229,3.4175,3.4162,3.4162,3.4162,3.4162,3.4108,3.3868,3.3801,3.3748,3.348,3.3414,3.3414,3.3414,3.3414,3.3414,3.3414,3.3414,3.3414,3.3414,0.0,0.0,0.0,0.0,0.0,0.0,0.0,0.0,0.0,0.0,3.3414,0.0,3.3414,3.3414,3.3414,0.0,0.0,0.0,0.0,3.3748,0.0,3.4376,3.4656,0.0,0.0,3.5191,3.5191,3.5191,3.5191,3.5191,3.5191,3.5191,3.5191,3.5191,3.5525,3.6072,3.6072,3.6393,3.6885,3.6885,3.6885,3.6885,3.6885,3.6885,3.6885,0.0,0.0,0.0,0.0,0.0,0.0,0.0,2.9606,0.0,3.073,3.0038,2.9937,3.1165,3.0762,3.0368,3.0368,3.0768,3.1089,3.1236,3.1517,3.181,3.2152,3.2313,0.0,3.2808,0.0,3.2888,3.2986,0.0,0.0,0.0,0.0,3.3414,3.3414,3.3414,3.3414,3.3427,0.0,0.0,3.3895,3.4055,3.4282,3.4549,3.4549,3.4643,3.4776,3.4776,3.4776,3.4723,3.4429,3.4429,3.4523,3.4362,3.4322,3.4322,3.4322,3.4322,3.4295,3.4148,3.4108,3.4068,3.3921,3.3774,3.3654,3.3654,3.3534,3.3414,3.3414,3.3414,3.3414,3.3414,3.3414,0.0,0.0,0.0,0.0,0.0,0.0,0.0,0.0,0.0,0.0,0.0,0.0,0.0,0.0,0.0,0.0,0.0,0.0,3.3694,0.0,0.0,0.0,3.5191,0.0,3.5191,3.5191,3.5191,3.5191,3.5191,3.5191,3.5191,3.5191,3.5191,3.5525,3.6099,3.6393,3.6687,3.6885,3.6885,3.6885,3.6885,3.6885,3.6885,3.6885,0.0,2.9282,0.0,0.0,2.9766,0.0,3.0426,3.0493,3.0333,2.982,2.9967,3.0194,3.048,3.0768,3.0982,3.0982,3.1303,3.161,3.1885,3.2064,3.2332,3.2674,3.2688,3.2822,3.3066,3.3066,3.3187,0.0,0.0,0.0,0.0,0.0,3.3414,3.3414,3.348,3.3507,0.0,0.0,3.4015,3.4095,3.4322,3.4589,3.4909,3.4909,3.5004,3.5191,3.5191,3.5191,3.5124,3.4656,3.4656,3.4869,3.4576,3.4509,3.4509,3.4509,3.4509,3.4496,3.4429,3.4416,3.4402,3.4336,3.4148,3.3975,3.3975,3.3734,3.3507,3.3507,3.3454,3.3414,3.3414,3.3414,0.0,0.0,0.0,0.0,0.0,0.0,0.0,0.0,0.0,0.0,0.0,0.0,0.0,0.0,0.0,0.0,3.3414,0.0,0.0,0.0,0.0,3.4603,3.5191,0.0,3.5191,3.5191,3.5191,3.5191,3.5191,3.5191,3.5191,3.5191,3.5191,3.5525,3.6112,3.6687,3.6885,3.6885,3.6885,3.6885,3.6885,3.6885,3.6885,3.6885,0.0,0.0,0.0,0.0,0.0,0.0,3.0742,3.0755,3.0728,3.0675,3.0688,3.0715,3.0755,3.1249,3.1631,3.1631,3.2152,3.2487,3.2514,3.2541,3.2688,3.2969,3.2933,3.3066,3.336,3.3374,3.3387,0.0,0.0,0.0,0.0,0.0,0.0,0.0,0.0,0.0,0.0,3.4148,3.4429,3.4735,3.4762,3.4897,3.5151,3.5151,3.5177,3.5191,3.5191,3.5191,3.5191,3.5137,3.5137,3.5151,3.5124,3.511,3.511,3.511,3.511,3.5057,3.479,3.4775,3.4656,3.4389,3.4295,3.4282,3.4282,3.4055,3.3841,3.3841,3.3614,3.3414,3.3414,3.3414,3.3414,0.0,0.0,0.0,0.0,0.0,0.0,0.0,0.0,0.0,0.0,3.3414,0.0,0.0,3.3414,0.0,0.0,0.0,0.0,3.4295,3.4322,3.4603,3.5191,3.5191,3.5191,3.5191,3.5191,3.5191,3.5191,3.5191,3.5191,3.5191,3.5191,3.5525,3.6112,3.6687,3.6885,3.6885,3.6885,3.6885,3.6885,3.6885,3.6885,3.6885,0.0,0.0,0.0,0.0,0.0,0.0,0.0,3.1898,3.1898,3.1898,3.1591,3.1497,3.1858,3.2099,3.2246,3.2246,3.246,3.2661,3.2848,3.2848,3.2982,3.3227,3.324,3.3293,3.3414,3.3414,3.3414,0.0,0.0,0.0,0.0,0.0,0.0,0.0,0.0,3.3988,3.4162,3.4456,3.4656,3.4829,3.495,3.5097,3.5191,3.5191,3.5191,3.5191,3.5191,3.5191,3.5191,3.5191,3.5191,3.5191,3.5191,3.5191,3.5191,3.5191,3.5191,3.5177,3.5057,3.5017,3.499,3.487,3.471,3.4524,3.4589,3.4362,3.4148,3.4148,3.3908,3.3641,3.3454,3.3414,3.3414,0.0,0.0,0.0,0.0,0.0,0.0,0.0,0.0,0.0,0.0,0.0,0.0,0.0,0.0,0.0,0.0,0.0,0.0,3.4309,0.0,3.4776,3.5191,3.5191,3.5191,3.5191,3.5191,3.5191,3.5191,3.5191,3.5191,3.5217,3.5565,3.5859,3.6112,3.6687,3.6885,3.6885,3.6885,3.6885,3.6885,3.6885,3.6885,3.6885,3.1303,0.0,3.1677,0.0,3.2104,3.2353,3.2567,3.2594,3.2621,3.2714,3.2353,3.2233,3.2554,3.2674,3.2728,3.2728,3.2795,3.2942,3.3093,3.3106,3.32,3.34,3.3414,0.0,3.3414,3.3414,3.3414,3.3414,3.3414,0.0,0.0,0.0,0.0,0.0,3.4108,3.4255,3.4469,3.4763,3.4949,3.491,3.511,3.5191,3.5191,3.5191,3.5191,3.5191,3.5191,3.5191,3.5191,3.5191,3.5191,3.5191,3.5191,3.5191,3.5191,3.5191,3.5191,3.5191,3.5191,3.5191,3.5191,3.5191,3.5044,3.4883,3.4883,3.4656,3.4429,3.4336,3.4162,3.3921,3.3614,3.3547,3.3521,3.3427,0.0,0.0,0.0,0.0,0.0,0.0,0.0,3.3414,3.3414,3.3414,0.0,0.0,0.0,0.0,0.0,0.0,0.0,0.0,0.0,0.0,3.5191,3.5191,3.5191,3.5191,3.5191,3.5191,3.5191,3.5191,3.5191,3.5231,3.5819,3.6072,3.6112,3.6687,3.6885,3.6885,3.6885,3.6885,3.6885,3.6885,3.6885,3.6885,3.2567,3.2581,3.2581,3.2581,3.2581,3.2594,3.2594,3.2594,3.2701,3.2982,3.2973,3.2902,3.2621,3.2848,3.2973,3.2973,3.324,3.34,3.34,3.3414,3.3414,0.0,0.0,3.3414,3.3414,3.3414,3.3414,3.3414,0.0,0.0,3.3414,0.0,3.4042,3.4322,3.4629,3.4802,3.4829,3.507,3.5191,3.5191,3.5191,3.5191,3.5191,3.5191,3.5191,3.5191,3.5191,3.5191,3.5191,3.5191,3.5191,3.5191,3.5191,3.5191,3.5191,3.5191,3.5191,3.5191,3.5191,3.5191,3.5191,3.5191,3.5191,3.5191,3.5191,3.4963,3.467,3.4376,3.4322,3.4229,3.3935,3.3881,3.3774,3.3467,0.0,0.0,0.0,0.0,0.0,0.0,3.3414,3.3414,3.3414,3.3414,0.0,0.0,0.0,0.0,0.0,0.0,0.0,3.4309,3.4603,0.0,3.5191,3.5191,3.5191,3.5191,3.5191,3.5191,3.5191,3.5191,3.5191,3.5231,3.5819,3.6072,3.6112,3.6687,3.6885,3.6885,3.6885,3.6885,3.6885,3.6885,3.6885,3.6885,3.2594,3.2755,3.2888,3.2888,3.3,3.3133,3.3133,3.3133,3.3173,3.3253,3.328,3.324,3.3146,3.3213,3.328,0.0,3.336,3.3414,0.0,3.3414,3.3414,3.3414,3.3414,3.3414,3.3414,3.3414,3.3521,3.3734,0.0,0.0,0.0,3.4135,3.4336,3.4629,3.4775,3.4922,3.5057,3.5151,3.5191,3.5191,3.5191,3.5191,3.5191,3.5191,3.5191,3.5191,3.5191,3.5191,3.5191,3.5191,3.5191,3.5191,3.5191,3.5191,3.5191,3.5191,3.5191,3.5191,3.5191,3.5191,3.5191,3.5191,3.5191,3.5191,3.5191,3.5124,3.4977,3.4683,3.4629,3.4536,3.4242,3.4189,3.4082,3.3788,3.3734,0.0,0.0,0.0,0.0,0.0,3.3414,3.3414,0.0,3.3414,0.0,0.0,0.0,0.0,0.0,0.0,0.0,0.0,3.491,0.0,3.5191,3.5191,3.5191,3.5191,3.5191,3.5191,3.5191,3.5191,3.5191,3.5231,3.5819,3.6072,3.6112,3.6687,3.6885,3.6885,3.6885,3.6885,3.6885,3.6885,3.6885,3.6885,3.2915,3.3013,3.3146,3.3146,3.3293,3.3414,3.3414,3.3414,3.3414,3.3414,3.3414,3.3414,3.3414,3.3414,0.0,3.3414,3.3414,3.3414,3.3414,3.3414,3.3414,3.3414,3.3521,3.3587,3.3587,3.3694,0.0,3.4055,3.4055,3.4202,3.4482,3.4482,3.4643,3.4923,3.4923,3.503,3.5191,3.5191,3.5191,3.5191,3.5191,3.5191,3.5191,3.5191,3.5191,3.5191,3.5191,3.5191,3.5191,3.5191,3.5191,3.5191,3.5191,3.5191,3.5191,3.5191,3.5191,3.5191,3.5191,3.5191,3.5191,3.5191,3.5191,3.5191,3.5191,3.5191,3.5151,3.4963,3.4923,3.483,3.4536,3.4482,3.4389,3.4095,3.4055,3.3975,3.3788,0.0,0.0,0.0,0.0,0.0,0.0,3.3748,3.3828,0.0,0.0,0.0,0.0,0.0,0.0,3.4802,3.5044,0.0,3.5191,3.5191,3.5191,3.5191,3.5191,3.5191,3.5191,3.5191,3.5191,3.5231,3.5819,3.6072,3.6112,3.6687,3.6885,3.6885,3.6885,3.6885,3.6885,3.6885,3.6885,3.6885,3.3414,3.3414,3.3414,0.0,3.3414,3.3414,3.3414,3.3414,3.3414,3.3414,3.3427,3.344,3.344,3.3467,3.3467,3.3467,0.0,0.0,0.0,3.344,3.3454,3.3467,3.3761,3.3921,3.3921,3.4189,3.4336,3.4349,3.4376,3.4523,3.4842,3.4842,3.4937,3.5191,3.5191,3.5191,3.5191,3.5191,3.5191,3.5191,3.5191,3.5191,3.5191,3.5191,3.5191,3.5191,3.5191,3.5191,3.5191,3.5191,3.5191,3.5191,3.5191,3.5191,3.5191,3.5191,3.5191,3.5191,3.5191,3.5191,3.5191,3.5191,3.5191,3.5191,3.5191,3.5191,3.5191,3.5191,3.5191,3.511,3.4895,3.4842,3.4696,3.4402,3.4349,3.4349,3.4322,0.0,0.0,0.0,0.0,0.0,0.0,3.4322,3.4322,0.0,0.0,0.0,0.0,0.0,3.4842,3.4842,3.5057,3.5191,3.5191,3.5191,3.5191,3.5191,3.5191,3.5191,3.5191,3.5191,3.5191,3.5231,3.5792,3.6059,3.6112,3.6687,3.6901,3.6885,3.6885,3.6885,3.6885,3.6885,3.6885,3.6885,0.0,0.0,3.3414,3.3414,3.3414,3.3414,3.3414,3.3414,3.3414,3.3414,3.3627,3.3774,3.3774,3.3975,3.4108,3.4108,3.3681,3.3507,3.3761,3.3774,3.3868,3.4095,3.4175,3.4215,3.4215,3.4282,3.4429,3.4656,3.4883,3.503,3.5097,3.5097,3.5137,3.5191,3.5191,3.5191,3.5191,3.5191,3.5191,3.5191,3.5191,3.5191,3.5191,3.5191,3.5191,3.5191,3.5191,3.5191,3.5191,3.5191,3.5191,3.5191,3.5191,3.5191,3.5191,3.5191,3.5191,3.5191,3.5191,3.5191,3.5191,3.5191,3.5191,3.5191,3.5191,3.5191,3.5191,3.5191,3.5191,3.5177,3.511,3.5097,3.5004,3.471,3.4656,3.4576,3.4349,3.4322,0.0,0.0,3.4322,3.4322,3.4322,3.4322,3.4416,0.0,0.0,0.0,3.5084,3.5097,3.5097,3.5097,3.5164,3.5191,3.5191,3.5191,3.5191,3.5191,3.5191,3.5191,3.5191,3.5191,3.5191,3.5217,3.5578,3.5859,3.6153,3.6473,3.6727,3.6885,3.6885,3.6885,3.6885,3.6885,3.6885,3.6885,3.3414,3.3414,3.3414,3.3414,3.3534,3.3627,3.3627,3.3748,3.3828,3.3828,3.3975,3.4082,3.4082,3.4229,3.4322,3.4322,3.4015,3.3895,3.4068,3.4082,3.4148,3.4309,3.4456,3.4523,3.4523,3.4656,3.4803,3.4963,3.5124,3.5191,3.5191,3.5191,3.5191,3.5191,3.5191,3.5191,3.5191,3.5191,3.5191,3.5191,3.5191,3.5191,3.5191,3.5191,3.5191,3.5191,3.5191,3.5191,3.5191,3.5191,3.5191,3.5191,3.5191,3.5191,3.5191,3.5191,3.5191,3.5191,3.5191,3.5191,3.5191,3.5191,3.5191,3.5191,3.5191,3.5191,3.5191,3.5191,3.5191,3.5191,3.5191,3.5191,3.5151,3.499,3.4963,3.491,3.475,3.4723,0.0,3.4723,3.4723,3.4723,3.4723,3.4723,3.479,3.495,3.4963,0.0,3.5191,3.5191,3.5191,3.5191,3.5191,3.5191,3.5191,3.5191,3.5191,3.5191,3.5191,3.5191,3.5191,3.5191,3.5191,3.5204,3.5498,3.5805,3.6099,3.6393,3.6687,3.6885,3.6885,3.6885,3.6885,3.6885,3.6885,3.6885,3.3467,3.348,3.3494,3.3547,3.3774,3.3948,3.3948,3.4162,3.4322,3.4322,3.4362,3.4389,3.4389,3.4429,3.4456,3.4456,3.4456,3.4429,3.4389,3.4389,3.4402,3.4456,3.4696,3.4882,3.4882,3.507,3.5191,3.5191,3.5191,3.5191,3.5191,3.5191,3.5191,3.5191,3.5191,3.5191,3.5191,3.5191,3.5191,3.5191,3.5191,3.5191,3.5191,3.5191,3.5191,3.5191,3.5191,3.5191,3.5191,3.5191,3.5191,3.5191,3.5191,3.5191,3.5191,3.5191,3.5191,3.5191,3.5191,3.5191,3.5191,3.5191,3.5191,3.5191,3.5191,3.5191,3.5191,3.5191,3.5191,3.5191,3.5191,3.5191,3.5191,3.5191,3.5191,3.5191,3.5191,0.0,3.5191,3.5191,3.5191,3.5191,3.5191,3.5191,3.5191,3.5191,3.5191,3.5191,3.5191,3.5191,3.5191,3.5191,3.5191,3.5191,3.5191,3.5191,3.5191,3.5191,3.5191,3.5191,3.5191,3.5191,3.5191,3.5204,3.5458,3.5752,3.614,3.634,3.6592,3.6885,3.6885,3.6885,3.6885,3.6885,3.6885,3.6885,3.3761,3.3814,3.3895,3.4135,3.4215,3.4255,3.4255,3.4295,3.4322,3.4322,3.4536,3.4748,3.4748,3.491,3.5057,3.5057,3.5057,3.495,3.4762,3.4748,3.4803,3.5044,3.511,3.5124,3.5124,3.5177,3.5191,3.5191,3.5191,3.5191,3.5191,3.5191,3.5191,3.5191,3.5191,3.5191,3.5191,3.5191,3.5191,3.5191,3.5191,3.5191,3.5191,3.5191,3.5191,3.5191,3.5191,3.5191,3.5191,3.5191,3.5191,3.5191,3.5191,3.5191,3.5191,3.5191,3.5191,3.5191,3.5191,3.5191,3.5191,3.5191,3.5191,3.5191,3.5191,3.5191,3.5191,3.5191,3.5191,3.5191,3.5191,3.5191,3.5191,3.5191,3.5191,3.5191,3.5191,0.0,3.5191,3.5191,3.5191,3.5191,3.5191,3.5191,3.5191,3.5191,3.5191,3.5191,3.5191,3.5191,3.5191,3.5191,3.5191,3.5191,3.5191,3.5191,3.5191,3.5191,3.5191,3.5191,3.5191,3.5191,3.5191,3.5204,3.5244,3.5578,3.6072,3.6126,3.6473,3.6885,3.6885,3.6885,3.6885,3.6885,3.6885,3.6885,3.4055,3.4122,3.4162,3.4295,3.4456,3.4563,3.4563,3.4696,3.479,3.479,3.491,3.5004,3.5004,3.5124,3.5191,3.5191,3.5191,3.5137,3.5004,3.5004,3.5057,3.5191,3.5191,3.5191,3.5191,3.5191,3.5191,3.5191,3.5191,3.5191,3.5191,3.5191,3.5191,3.5191,3.5191,3.5191,3.5191,3.5191,3.5191,3.5191,3.5191,3.5284,3.5418,3.5257,3.5297,3.5404,3.5257,3.5191,3.5191,3.5191,3.5191,3.5191,3.5191,3.5191,3.5191,3.5191,3.5191,3.5191,3.5191,3.5191,3.5191,3.5191,3.5191,3.5191,3.5191,3.5191,3.5191,3.5191,3.5191,3.5191,3.5191,3.5191,3.5191,3.5191,3.5191,0.0,0.0,3.5191,3.5191,3.5191,3.5191,3.5191,3.5191,3.5191,3.5191,3.5191,3.5191,3.5191,3.5191,3.5191,3.5191,3.5191,3.5191,3.5191,3.5191,3.5191,3.5191,3.5191,3.5191,3.5191,3.5191,3.5191,3.5191,3.5191,3.5191,3.5444,3.5832,3.5832,3.6179,3.6659,3.6659,3.6794,3.6885,3.6885,3.6885,3.6885,3.4362,3.4416,3.4442,3.4509,3.471,3.487,3.487,3.5057,3.5191,3.5191,3.5191,3.5191,3.5191,3.5191,3.5191,3.5191,3.5191,3.5191,3.5191,3.5191,3.5191,3.5191,3.5191,3.5191,3.5191,3.5191,3.5191,3.5191,3.5191,3.5191,3.5191,3.5191,3.5191,3.5191,3.5191,3.5191,3.5204,3.5271,3.5297,3.5311,3.5378,3.5538,3.5712,3.5485,3.5498,3.5551,3.5378,3.5257,3.5191,3.5191,3.5191,3.5191,3.5191,3.5191,3.5191,3.5191,3.5191,3.5191,3.5191,3.5191,3.5191,3.5191,3.5191,3.5191,3.5191,3.5191,3.5191,3.5191,3.5191,3.5191,3.5191,3.5191,3.5191,3.5191,0.0,0.0,0.0,3.5191,3.5191,3.5191,3.5191,3.5191,3.5191,3.5191,3.5191,3.5191,3.5191,3.5191,3.5191,3.5191,3.5191,3.5191,3.5191,3.5191,3.5191,3.5191,3.5191,3.5191,3.5191,3.5191,3.5191,3.5191,3.5191,3.5191,3.5191,3.5364,3.5578,3.5578,3.5939,3.6393,3.6393,3.654,3.6727,3.6727,3.6727,3.6727,3.4721,3.4723,3.4751,3.5084,3.5151,3.5164,3.5164,3.5177,3.5191,3.5191,3.5191,3.5191,3.5191,3.5191,3.5191,3.5191,3.5191,3.5191,3.5191,3.5191,3.5191,3.5191,3.5191,3.5191,3.5191,3.5191,3.5191,3.5191,3.5191,3.5191,3.5191,3.5191,3.5191,3.5191,3.5191,3.5191,3.5217,3.5485,3.5591,3.5618,3.5899,3.6073,3.6046,3.6019,3.5845,3.5631,3.5605,3.5418,3.5191,3.5191,3.5191,3.5191,3.5191,3.5191,3.5191,3.5191,3.5191,3.5191,3.5191,3.5191,3.5191,3.5191,3.5191,3.5191,3.5191,3.5191,3.5191,3.5191,3.5191,3.5191,3.5191,3.5191,3.5191,3.5191,0.0,0.0,3.5191,3.5191,3.5191,3.5191,3.5191,3.5191,3.5191,3.5191,3.5191,3.5191,3.5191,3.5191,3.5191,3.5191,3.5191,3.5191,3.5191,3.5191,3.5191,3.5191,3.5191,3.5191,3.5191,3.5191,3.5191,3.5191,3.5191,3.5191,3.5191,3.5364,3.5578,3.5578,3.5819,3.6099,3.6099,3.6112,3.6139,3.6139,3.6139,3.6139,3.4977,3.503,3.5057,3.5177,3.5191,3.5191,3.5191,3.5191,3.5191,3.5191,3.5191,3.5191,3.5191,3.5191,3.5191,3.5191,3.5191,3.5191,3.5191,3.5191,3.5191,3.5191,3.5191,3.5191,3.5191,3.5191,3.5191,3.5191,3.5191,3.5191,3.5191,3.5191,3.5191,3.5191,3.5191,3.5297,3.5471,3.5578,3.5738,3.5912,3.6032,3.6179,3.6326,3.6139,3.6112,3.6126,3.5711,3.5551,3.5431,3.5257,3.5191,3.5191,3.5191,3.5191,3.5191,3.5191,3.5191,3.5191,3.5191,3.5191,3.5191,3.5191,3.5191,3.5191,3.5191,3.5191,3.5191,3.5191,3.5191,3.5191,3.5191,3.5191,3.5191,3.5191,0.0,3.5191,3.5191,3.5191,3.5191,3.5191,3.5191,3.5191,3.5191,3.5191,3.5191,3.5191,3.5191,3.5191,3.5191,3.5191,3.5191,3.5191,3.5191,3.5191,3.5191,3.5191,3.5191,3.5191,3.5191,3.5191,3.5191,3.5191,3.5191,3.5191,3.5191,3.5257,3.5364,3.5364,3.5538,3.5805,3.5805,3.5912,3.6072,3.6072,3.6072,3.6072,3.5151,3.5191,3.5191,3.5191,3.5191,3.5191,3.5191,3.5191,3.5191,3.5191,3.5191,3.5191,3.5191,3.5191,3.5191,3.5191,3.5191,3.5191,3.5191,3.5191,3.5191,3.5191,3.5191,3.5191,3.5191,3.5191,3.5191,3.5191,3.5191,3.5191,3.5191,3.5191,3.5191,3.5191,3.5191,3.5364,3.5631,3.5725,3.5939,3.6219,3.6313,3.6473,3.662,3.6433,3.6393,3.6433,3.5939,3.5712,3.5591,3.5297,3.5191,3.5191,3.5191,3.5191,3.5191,3.5191,3.5191,3.5191,3.5191,3.5191,3.5191,3.5191,3.5191,3.5191,3.5191,3.5191,3.5191,3.5191,3.5191,3.5191,3.5191,3.5191,3.5191,3.5191,3.5191,3.5191,3.5191,3.5191,3.5191,3.5191,3.5191,3.5191,3.5191,3.5191,3.5191,3.5191,3.5191,3.5191,3.5191,3.5191,3.5191,3.5191,3.5191,3.5191,3.5191,3.5191,3.5191,3.5191,3.5191,3.5191,3.5191,3.5191,3.5191,3.5191,3.5191,3.5191,3.5191,3.5191,3.5311,3.5498,3.5498,3.5618,3.5805,3.5805,3.5805,3.5805,3.5191,3.5191,3.5191,3.5191,3.5191,3.5191,3.5191,3.5191,3.5191,3.5191,3.5191,3.5191,3.5191,3.5191,3.5191,3.5191,3.5191,3.5191,3.5191,3.5191,3.5191,3.5191,3.5191,3.5191,3.5191,3.5191,3.5191,3.5191,3.5191,3.5191,3.5191,3.5191,3.5191,3.5191,3.5191,3.5364,3.5658,3.5952,3.6246,3.654,3.6779,3.6885,3.6885,3.6885,3.6754,3.6473,3.6179,3.5885,3.5538,3.5297,3.5191,3.5191,3.5191,3.5191,3.5191,3.5191,3.5191,3.5191,3.5191,3.5191,3.5191,3.5191,3.5191,3.5191,3.5191,3.5191,3.5191,3.5191,3.5191,3.5191,3.5191,3.5191,3.5191,3.5191,3.5191,3.5191,3.5191,3.5191,3.5191,3.5191,3.5191,3.5191,3.5191,3.5191,3.5191,3.5191,3.5191,3.5191,3.5191,3.5191,3.5191,3.5191,3.5191,3.5191,3.5191,3.5191,3.5191,3.5191,3.5191,3.5191,3.5191,3.5191,3.5191,3.5191,3.5191,3.5191,3.5191,3.5191,3.5191,3.5191,3.5191,3.5191,3.5191,3.5191,3.5191,3.5191,3.5191,3.5191,3.5191,3.5191,3.5191,3.5191,3.5191,3.5191,3.5191,3.5191,3.5191,3.5191,3.5191,3.5191,3.5191,3.5191,3.5191,3.5191,3.5191,3.5191,3.5191,3.5191,3.5191,3.5191,3.5191,3.5191,3.5191,3.5191,3.5191,3.5191,3.5191,3.5191,3.5191,3.5191,3.5191,3.5471,3.5952,3.6032,3.6353,3.6779,3.6845,3.6885,3.6885,3.6885,3.6845,3.6699,3.6246,3.6019,3.5859,3.5364,3.5191,3.5191,3.5191,3.5191,3.5191,3.5191,3.5191,3.5191,3.5191,3.5191,3.5191,3.5191,3.5191,3.5191,3.5191,3.5191,3.5191,3.5191,3.5191,3.5191,3.5191,3.5191,3.5191,3.5191,3.5191,3.5191,3.5191,3.5191,3.5191,3.5191,3.5191,3.5191,3.5191,3.5191,3.5191,3.5191,3.5191,3.5191,3.5191,3.5191,3.5191,3.5191,3.5191,3.5191,3.5191,3.5191,3.5191,3.5191,3.5191,3.5191,3.5191,3.5191,3.5191,3.5191,3.5191,3.5191,3.5191,3.5191,3.5191,3.5191,3.5191,3.5191,3.5191,3.5191,3.5191,3.5191,3.5191,3.5191,3.5191,3.5191,3.5191,3.5191,3.5191,3.5191,3.5191,3.5191,3.5191,3.5191,3.5191,3.5191,3.5191,3.5191,3.5191,3.5191,3.5191,3.5191,3.5191,3.5191,3.5191,3.5191,3.5191,3.5191,3.5191,3.5191,3.5191,3.5191,3.5191,3.5191,3.5191,3.5191,3.5191,3.5525,3.6072,3.6072,3.6393,3.6885,3.6885,3.6885,3.6885,3.6885,3.6805,3.6672,3.6233,3.5992,3.5832,3.5351,3.5191,3.5191,3.5191,3.5191,3.5191,3.5191,3.5191,3.5191,3.5191,3.5191,3.5191,3.5191,3.5191,3.5191,3.5191,3.5191,3.5191,3.5191,3.5191,3.5191,3.5191,3.5191,3.5191,3.5191,3.5191,3.5191,3.5191,3.5191,3.5191,3.5191,3.5191,3.5191,3.5191,3.5191,3.5191,3.5191,3.5191,3.5191,3.5191,3.5191,3.5191,3.5191,3.5191,3.5191,3.5191,3.5191,3.5191,3.5191,3.5191,3.5191,3.5191,3.5191,3.5191,3.5191,3.5191,3.5191,3.5191,3.5191,3.5191,3.5191,3.5191,3.5191,3.5191,3.5191,3.5191,3.5191,3.5191,3.5191,3.5191,3.5191,3.5191,3.5191,3.5191,3.5191,3.5191,3.5191,3.5191,3.5191,3.5191,3.5191,3.5191,3.5191,3.5191,3.5191,3.5191,3.5191,3.5191,3.5191,3.5191,3.5191,3.5191,3.5191,3.5191,3.5191,3.5191,3.5191,3.5191,3.5191,3.5191,3.5191,3.5191,3.5511,3.6032,3.6113,3.6393,3.6845,3.6885,3.6885,3.6885,3.6885,3.6754,3.6473,3.6179,3.5885,3.5591,3.5297,3.5191,3.5191,3.5191,3.5191,3.5191,3.5191,3.5191,3.5191,3.5191,3.5191,3.5191,3.5191,3.5191,3.5191,3.5191,3.5191,3.5191,3.5191,3.5191,3.5191,3.5191,3.5191,3.5191,3.5191,3.5191,3.5191,3.5191,3.5191,3.5191,3.5191,3.5191,3.5191,3.5191,3.5191,3.5191,3.5191,3.5191,3.5191,3.5191,3.5191,3.5191,3.5191,3.5191,3.5204,3.5231,3.5231,3.5217,3.5191,3.5191,3.5191,3.5191,3.5191,3.5191,3.5191,3.5191,3.5191,3.5191,3.5191,3.5191,3.5191,3.5191,3.5191,3.5191,3.5191,3.5191,3.5191,3.5191,3.5191,3.5191,3.5191,3.5191,3.5191,3.5191,3.5191,3.5191,3.5191,3.5191,3.5191,3.5191,3.5191,3.5191,3.5191,3.5191,3.5191,3.5191,3.5191,3.5191,3.5191,3.5191,3.5191,3.5191,3.5191,3.5191,3.5191,3.5191,3.5191,3.5191,3.5191,3.5191,3.5191,3.5191,3.5391,3.5738,3.5979,3.6273,3.662,3.6834,3.6885,3.6885,3.6885,3.6754,3.6473,3.6179,3.5885,3.5591,3.5297,3.5191,3.5191,3.5191,3.5191,3.5191,3.5191,3.5191,3.5191,3.5191,3.5191,3.5191,3.5191,3.5191,3.5191,3.5191,3.5191,3.5191,3.5191,3.5191,3.5191,3.5191,3.5191,3.5191,3.5191,3.5191,3.5191,3.5191,3.5191,3.5191,3.5191,3.5191,3.5191,3.5191,3.5191,3.5191,3.5191,3.5191,3.5191,3.5191,3.5191,3.5191,3.5191,3.5191,3.5311,3.5538,3.5538,3.5418,3.5191,3.5191,3.5191,3.5191,3.5191,3.5191,3.5191,3.5191,3.5191,3.5191,3.5191,3.5191,3.5191,3.5191,3.5191,3.5191,3.5191,3.5191,3.5191,3.5191,3.5191,3.5191,3.5191,3.5191,3.5191,3.5191,3.5191,3.5191,3.5191,3.5191,3.5191,3.5191,3.5191,3.5191,3.5191,3.5191,3.5191,3.5191,3.5191,3.5191,3.5191,3.5191,3.5191,3.5191,3.5191,3.5191,3.5191,3.5191,3.5191,3.5191,3.5191,3.5191,3.5191,3.5191,3.5364,3.5591,3.5792,3.6032,3.6313,3.6473,3.654,3.654,3.654,3.634,3.6072,3.5912,3.5672,3.5404,3.5244,3.5191,3.5191,3.5191,3.5191,3.5191,3.5191,3.5191,3.5191,3.5191,3.5191,3.5191,3.5191,3.5191,3.5191,3.5191,3.5191,3.5191,3.5191,3.5191,3.5191,3.5191,3.5191,3.5191,3.5191,3.5191,3.5191,3.5191,3.5191,3.5191,3.5191,3.5191,3.5191,3.5191,3.5191,3.5191,3.5191,3.5191,3.5191,3.5191,3.5324,3.5404,3.5404,3.5538,3.5685,3.5845,3.5845,3.5765,3.5618,3.5471,3.5404,3.5404,3.5257,3.5191,3.5191,3.5191,3.5191,3.5191,3.5191,3.5191,3.5191,3.5191,3.5191,3.5191,3.5191,3.5191,3.5191,3.5191,3.5191,3.5191,3.5191,3.5191,3.5191,3.5191,3.5191,3.5191,3.5191,3.5191,3.5191,3.5191,3.5191,3.5191,3.5191,3.5191,3.5191,3.5191,3.5191,3.5191,3.5191,3.5191,3.5191,3.5191,3.5191,3.5191,3.5191,3.5191,3.5191,3.5191,3.5191,3.5191,3.5191,3.5191,3.5324,3.5551,3.5551,3.5778,3.6006,3.61,3.6072,3.6072,3.6072,3.5885,3.5578,3.5578,3.5444,3.5191,3.5191,3.5191,3.5191,3.5191,3.5191,3.5191,3.5191,3.5191,3.5191,3.5191,3.5191,3.5191,3.5191,3.5191,3.5191,3.5191,3.5191,3.5191,3.5191,3.5191,3.5191,3.5191,3.5191,3.5191,3.5191,3.5191,3.5191,3.5191,3.5191,3.5191,3.5191,3.5191,3.5191,3.5191,3.5191,3.5191,3.5191,3.5191,3.5217,3.5271,3.5498,3.5658,3.5698,3.5939,3.6099,3.6139,3.6153,3.5949,3.5432,3.5145,3.5256,3.5698,3.5404,3.5271,3.5271,3.5217,3.5191,3.5191,3.5191,3.5191,3.5191,3.5191,3.5191,3.5191,3.5191,3.5191,3.5191,3.5191,3.5191,3.5191,3.5191,3.5191,3.5191,3.5191,3.5191,3.5191,3.5191,3.5191,3.5191,3.5191,3.5191,3.5191,3.5191,3.5191,3.5191,3.5191,3.5191,3.5191,3.5191,3.5191,3.5191,3.5191,3.5191,3.5191,3.5191,3.5191,3.5191,3.5191,3.5191,3.5191,3.5191,3.5191,3.5217,3.5271,3.5525,3.5658,3.5712,3.5965,3.6072,3.6072,3.6072,3.5885,3.5578,3.5578,3.5444,3.5191,3.5191,3.5191,3.5191,3.5191,3.5191,3.5191,3.5191,3.5191,3.5191,3.5191,3.5191,3.5191,3.5191,3.5191,3.5191,3.5191,3.5191,3.5191,3.5191,3.5191,3.5191,3.5191,3.5191,3.5191,3.5191,3.5191,3.5191,3.5191,3.5191,3.5191,3.5191,3.5191,3.5191,3.5191,3.5191,3.5191,3.5191,3.5191,3.5311,3.5551,3.5551,3.5752,3.6006,3.61,3.6193,3.6433,3.6433,3.5265,3.2904,3.2641,3.3741,3.6006,3.5698,3.5578,3.5551,3.5311,3.5191,3.5191,3.5191,3.5191,3.5191,3.5191,3.5191,3.5191,3.5191,3.5191,3.5191,3.5191,3.5191,3.5191,3.5191,3.5191,3.5191,3.5191,3.5191,3.5191,3.5191,3.5191,3.5191,3.5191,3.5191,3.5191,3.5191,3.5191,3.5191,3.5191,3.5191,3.5191,3.5191,3.5191,3.5191,3.5191,3.5191,3.5191,3.5191,3.5191,3.5191,3.5191,3.5191,3.5191,3.5191,3.5191,3.5191,3.5204,3.5338,3.5391,3.5404,3.5538,3.5578,3.5578,3.5578,3.5498,3.5391,3.5391,3.5311,3.5191,3.5191,3.5191,3.5191,3.5191,3.5191,3.5191,3.5191,3.5191,3.5191,3.5191,3.5191,3.5191,3.5191,3.5191,3.5191,3.5191,3.5191,3.5191,3.5191,3.5191,3.5191,3.5191,3.5191,3.5191,3.5191,3.5191,3.5191,3.5191,3.5191,3.5191,3.5191,3.5191,3.5191,3.5191,3.5191,3.5271,3.5431,3.5431,3.5565,3.5859,3.6032,3.5393,3.3833,3.3941,3.3291,3.173,3.1674,3.1093,2.9889,2.9746,3.0243,3.1215,3.0866,3.0693,3.0681,3.0427,3.0365,3.0365,3.0365,3.0365,3.0365,3.0365,3.0365,3.0365,3.0365,3.0365,3.0365]},{"header":{"parameterUnit":"m.s-1","parameterCategory":1,"la1":30.6,"la2":28.766,"lo1":-90.7593,"lo2":-88.6598,"dy":0.0162,"dx":0.0183,"nx":116,"ny":114,"refTime":"2023-11-09T18:00:00:Z","depth":0,"parameterNumber":3,"parameterNumberName":"V-component_of_WINDS"},"data":[0.0,0.0,0.0,0.0,0.0,0.0,0.0,0.0,0.0,0.0,0.0,0.0,0.0,0.0,0.0,0.0,0.0,0.0,0.0,0.0,0.0,0.0,0.0,0.0,0.0,0.0,0.0,0.0,0.0,0.0,0.0,0.0,0.0,0.0,0.0,0.0,0.0,0.0,0.0,0.0,0.0,0.0,0.0,0.0,0.0,0.0,0.0,0.0,0.0,0.0,0.0,0.0,0.0,0.0,0.0,0.0,0.0,0.0,0.0,0.0,0.0,0.0,0.0,0.0,0.0,0.0,0.0,0.0,0.0,0.0,0.0,0.0,0.0,0.0,0.0,0.0,0.0,0.0,0.0,0.0,0.0,0.0,0.0,0.0,0.0,0.0,0.0,0.0,0.0,0.0,0.0,0.0,0.0,0.0,0.0,0.0,0.0,0.0,0.0,0.0,0.0,0.0,0.0,0.0,0.0,0.0,0.0,0.0,0.0,0.0,0.0,0.0,0.0,0.0,0.0,0.0,0.0,0.0,0.0,0.0,0.0,0.0,0.0,0.0,0.0,0.0,0.0,0.0,0.0,0.0,0.0,0.0,0.0,0.0,0.0,0.0,0.0,0.0,0.0,0.0,0.0,0.0,0.0,0.0,0.0,0.0,0.0,0.0,0.0,0.0,0.0,0.0,0.0,0.0,0.0,0.0,0.0,0.0,0.0,0.0,0.0,0.0,0.0,0.0,0.0,0.0,0.0,0.0,0.0,0.0,0.0,0.0,0.0,0.0,0.0,0.0,0.0,0.0,0.0,0.0,0.0,0.0,0.0,0.0,0.0,0.0,0.0,0.0,0.0,0.0,0.0,0.0,0.0,0.0,0.0,0.0,0.0,0.0,0.0,0.0,0.0,0.0,0.0,0.0,0.0,0.0,0.0,0.0,0.0,0.0,0.0,0.0,0.0,0.0,0.0,0.0,0.0,0.0,0.0,0.0,0.0,0.0,0.0,0.0,0.0,0.0,0.0,0.0,0.0,0.0,0.0,0.0,0.0,0.0,0.0,0.0,0.0,0.0,0.0,0.0,0.0,0.0,0.0,0.0,0.0,0.0,0.0,0.0,0.0,0.0,0.0,0.0,0.0,0.0,0.0,0.0,0.0,0.0,0.0,0.0,0.0,0.0,0.0,0.0,0.0,0.0,0.0,0.0,0.0,0.0,0.0,0.0,0.0,0.0,0.0,0.0,0.0,0.0,0.0,0.0,0.0,0.0,0.0,0.0,0.0,0.0,0.0,0.0,0.0,0.0,0.0,0.0,0.0,0.0,0.0,0.0,0.0,0.0,0.0,0.0,0.0,0.0,0.0,0.0,0.0,0.0,0.0,0.0,0.0,0.0,0.0,0.0,0.0,0.0,0.0,0.0,0.0,0.0,0.0,0.0,0.0,0.0,0.0,0.0,0.0,0.0,0.0,0.0,0.0,0.0,0.0,0.0,0.0,0.0,0.0,0.0,0.0,0.0,0.0,0.0,0.0,0.0,0.0,0.0,0.0,0.0,0.0,0.0,0.0,0.0,0.0,0.0,0.0,0.0,0.0,0.0,0.0,0.0,0.0,0.0,0.0,0.0,0.0,0.0,0.0,0.0,0.0,0.0,0.0,0.0,0.0,0.0,0.0,0.0,0.0,0.0,0.0,0.0,0.0,0.0,0.0,0.0,0.0,0.0,0.0,0.0,0.0,0.0,0.0,0.0,0.0,0.0,0.0,0.0,0.0,0.0,0.0,0.0,0.0,0.0,0.0,0.0,0.0,0.0,0.0,0.0,0.0,0.0,0.0,0.0,0.0,0.0,0.0,0.0,0.0,0.0,0.0,0.0,0.0,0.0,0.0,0.0,0.0,0.0,0.0,0.0,0.0,0.0,0.0,0.0,0.0,0.0,0.0,0.0,0.0,0.0,0.0,0.0,0.0,0.0,0.0,0.0,0.0,0.0,0.0,0.0,0.0,0.0,0.0,0.0,0.0,0.0,0.0,0.0,0.0,0.0,0.0,0.0,0.0,0.0,0.0,0.0,0.0,0.0,0.0,0.0,0.0,0.0,0.0,0.0,0.0,0.0,0.0,0.0,0.0,0.0,0.0,0.0,0.0,0.0,0.0,0.0,0.0,0.0,0.0,0.0,0.0,0.0,0.0,0.0,0.0,0.0,0.0,0.0,0.0,0.0,0.0,0.0,0.0,0.0,0.0,0.0,0.0,0.0,0.0,0.0,0.0,0.0,0.0,0.0,0.0,0.0,0.0,0.0,0.0,0.0,0.0,0.0,0.0,0.0,0.0,0.0,0.0,0.0,0.0,0.0,0.0,0.0,0.0,0.0,0.0,0.0,0.0,0.0,0.0,0.0,0.0,0.0,0.0,0.0,0.0,0.0,0.0,0.0,0.0,0.0,0.0,0.0,0.0,0.0,0.0,0.0,0.0,0.0,0.0,0.0,0.0,0.0,0.0,0.0,0.0,0.0,0.0,0.0,0.0,0.0,0.0,0.0,0.0,0.0,0.0,0.0,0.0,0.0,0.0,0.0,0.0,0.0,0.0,0.0,0.0,0.0,0.0,0.0,0.0,0.0,0.0,0.0,0.0,0.0,0.0,0.0,0.0,0.0,0.0,0.0,0.0,0.0,0.0,0.0,0.0,0.0,0.0,0.0,0.0,0.0,0.0,0.0,0.0,0.0,0.0,0.0,0.0,0.0,0.0,0.0,0.0,0.0,0.0,0.0,0.0,0.0,0.0,0.0,0.0,0.0,0.0,0.0,0.0,0.0,0.0,0.0,0.0,0.0,0.0,0.0,0.0,0.0,0.0,0.0,0.0,0.0,0.0,0.0,0.0,0.0,0.0,0.0,0.0,0.0,0.0,0.0,0.0,0.0,0.0,0.0,0.0,0.0,0.0,0.0,0.0,0.0,0.0,0.0,0.0,0.0,0.0,0.0,0.0,0.0,0.0,0.0,0.0,0.0,0.0,0.0,0.0,0.0,0.0,0.0,0.0,0.0,0.0,0.0,0.0,0.0,0.0,0.0,0.0,0.0,0.0,0.0,0.0,0.0,0.0,0.0,0.0,0.0,0.0,0.0,0.0,0.0,0.0,0.0,0.0,0.0,0.0,0.0,0.0,0.0,0.0,0.0,0.0,0.0,0.0,0.0,0.0,0.0,0.0,0.0,0.0,0.0,0.0,0.0,0.0,0.0,0.0,0.0,0.0,0.0,0.0,0.0,0.0,0.0,0.0,0.0,0.0,0.0,0.0,0.0,0.0,0.0,0.0,0.0,0.0,0.0,0.0,0.0,0.0,0.0,0.0,0.0,0.0,0.0,0.0,0.0,0.0,0.0,0.0,0.0,0.0,0.0,0.0,0.0,0.0,0.0,0.0,0.0,0.0,0.0,0.0,0.0,0.0,0.0,0.0,0.0,0.0,0.0,0.0,0.0,0.0,0.0,0.0,0.0,0.0,0.0,0.0,0.0,0.0,0.0,0.0,0.0,0.0,0.0,0.0,0.0,0.0,0.0,0.0,0.0,0.0,0.0,0.0,0.0,0.0,0.0,0.0,0.0,0.0,0.0,0.0,0.0,0.0,0.0,0.0,0.0,0.0,0.0,0.0,0.0,0.0,0.0,0.0,0.0,0.0,0.0,0.0,0.0,0.0,0.0,0.0,0.0,0.0,0.0,0.0,0.0,0.0,0.0,0.0,0.0,0.0,0.0,0.0,0.0,0.0,0.0,0.0,0.0,0.0,0.0,0.0,0.0,0.0,0.0,0.0,0.0,0.0,0.0,0.0,0.0,0.0,0.0,0.0,0.0,0.0,0.0,0.0,0.0,0.0,0.0,0.0,0.0,0.0,0.0,0.0,0.0,0.0,0.0,0.0,0.0,0.0,0.0,0.0,0.0,0.0,0.0,0.0,0.0,0.0,0.0,0.0,0.0,0.0,0.0,0.0,0.0,0.0,0.0,0.0,0.0,0.0,0.0,0.0,0.0,0.0,0.0,0.0,0.0,0.0,0.0,0.0,0.0,0.0,0.0,0.0,0.0,0.0,0.0,0.0,0.0,0.0,0.0,0.0,0.0,0.0,0.0,0.0,0.0,0.0,0.0,0.0,0.0,0.0,0.0,0.0,0.0,0.0,0.0,0.0,0.0,0.0,0.0,0.0,0.0,0.0,0.0,0.0,0.0,0.0,0.0,0.0,0.0,0.0,0.0,0.0,0.0,0.0,0.0,0.0,0.0,0.0,0.0,0.0,0.0,0.0,0.0,0.0,0.0,0.0,0.0,0.0,0.0,0.0,0.0,0.0,0.0,0.0,0.0,0.0,0.0,0.0,0.0,0.0,0.0,0.0,0.0,0.0,0.0,0.0,0.0,0.0,0.0,0.0,0.0,0.0,0.0,0.0,0.0,0.0,0.0,0.0,0.0,0.0,0.0,0.0,0.0,0.0,0.0,0.0,0.0,0.0,0.0,0.0,0.0,0.0,0.0,0.0,0.0,0.0,0.0,0.0,0.0,0.0,0.0,0.0,0.0,0.0,0.0,0.0,0.0,0.0,0.0,0.0,0.0,0.0,0.0,0.0,0.0,0.0,0.0,0.0,0.0,0.0,0.0,0.0,0.0,0.0,0.0,0.0,0.0,0.0,0.0,0.0,0.0,0.0,0.0,0.0,0.0,0.0,0.0,0.0,0.0,0.0,0.0,0.0,0.0,0.0,0.0,0.0,0.0,0.0,0.0,0.0,0.0,0.0,0.0,0.0,0.0,0.0,0.0,0.0,0.0,0.0,0.0,0.0,0.0,0.0,0.0,0.0,0.0,0.0,0.0,0.0,0.0,0.0,0.0,0.0,0.0,0.0,0.0,0.0,0.0,0.0,0.0,0.0,0.0,0.0,0.0,0.0,0.0,0.0,0.0,0.0,0.0,0.0,0.0,0.0,0.0,0.0,0.0,0.0,0.0,0.0,0.0,0.0,0.0,0.0,0.0,0.0,0.0,0.0,0.0,0.0,0.0,0.0,0.0,0.0,0.0,0.0,0.0,0.0,0.0,0.0,0.0,0.0,0.0,0.0,0.0,0.0,0.0,0.0,0.0,0.0,0.0,0.0,0.0,0.0,0.0,0.0,0.0,0.0,0.0,0.0,0.0,0.0,0.0,0.0,0.0,0.0,0.0,0.0,0.0,0.0,0.0,0.0,0.0,0.0,0.0,0.0,0.0,0.0,0.0,0.0,0.0,0.0,0.0,0.0,0.0,0.0,0.0,0.0,0.0,0.0,0.0,0.0,0.0,0.0,0.0,0.0,0.0,0.0,0.0,0.0,0.0,0.0,0.0,0.0,0.0,0.0,0.0,0.0,0.0,0.0,0.0,0.0,0.0,0.0,0.0,0.0,0.0,0.0,0.0,0.0,0.0,0.0,0.0,0.0,0.0,0.0,0.0,0.0,0.0,0.0,0.0,0.0,0.0,0.0,0.0,0.0,0.0,0.0,0.0,0.0,0.0,0.0,0.0,0.0,0.0,0.0,0.0,0.0,0.0,0.0,0.0,0.0,0.0,0.0,0.0,0.0,0.0,0.0,0.0,0.0,0.0,0.0,0.0,0.0,0.0,0.0,0.0,0.0,0.0,0.0,0.0,0.0,0.0,0.0,0.0,0.0,0.0,0.0,0.0,0.0,0.0,0.0,0.0,0.0,0.0,0.0,0.0,0.0,0.0,0.0,0.0,0.0,0.0,0.0,0.0,0.0,0.0,0.0,0.0,0.0,0.0,0.0,0.0,0.0,0.0,0.0,0.0,0.0,0.0,0.0,0.0,0.0,0.0,0.0,0.0,0.0,0.0,0.0,0.0,0.0,0.0,0.0,0.0,0.0,0.0,0.0,0.0,0.0,0.0,0.0,0.0,0.0,0.0,0.0,0.0,0.0,0.0,0.0,0.0,0.0,0.0,0.0,0.0,0.0,0.0,0.0,0.0,0.0,0.0,0.0,0.0,0.0,0.0,0.0,0.0,0.0,0.0,0.0,0.0,0.0,0.0,0.0,0.0,0.0,0.0,0.0,0.0,0.0,0.0,0.0,0.0,0.0,0.0,0.0,0.0,0.0,0.0,5.328,0.0,0.0,0.0,0.0,0.0,0.0,0.0,0.0,0.0,0.0,0.0,0.0,0.0,0.0,0.0,0.0,0.0,0.0,0.0,0.0,0.0,0.0,0.0,0.0,0.0,0.0,0.0,0.0,0.0,0.0,0.0,0.0,0.0,0.0,0.0,0.0,0.0,0.0,0.0,5.2334,5.2334,5.2334,5.2334,5.1911,5.1201,0.0,0.0,0.0,0.0,0.0,0.0,0.0,0.0,0.0,0.0,0.0,0.0,0.0,0.0,0.0,0.0,0.0,0.0,0.0,0.0,0.0,0.0,0.0,0.0,0.0,0.0,0.0,0.0,0.0,0.0,0.0,0.0,0.0,0.0,0.0,0.0,0.0,0.0,0.0,0.0,0.0,0.0,0.0,0.0,0.0,0.0,0.0,0.0,0.0,0.0,0.0,0.0,0.0,0.0,0.0,0.0,0.0,0.0,0.0,0.0,0.0,0.0,0.0,0.0,0.0,0.0,0.0,0.0,0.0,0.0,0.0,5.3518,0.0,0.0,0.0,0.0,0.0,0.0,0.0,0.0,0.0,0.0,0.0,0.0,0.0,0.0,0.0,0.0,0.0,0.0,0.0,0.0,0.0,0.0,0.0,0.0,5.3518,5.3518,5.3518,5.3518,0.0,0.0,0.0,0.0,0.0,0.0,0.0,5.3518,5.3518,5.3518,5.3518,5.3518,5.3518,5.3518,5.2824,5.1607,5.1607,0.0,0.0,0.0,0.0,0.0,0.0,0.0,0.0,0.0,0.0,0.0,0.0,0.0,0.0,0.0,0.0,0.0,0.0,0.0,0.0,0.0,0.0,0.0,0.0,0.0,0.0,0.0,0.0,0.0,0.0,0.0,0.0,0.0,0.0,0.0,0.0,0.0,0.0,0.0,0.0,0.0,0.0,0.0,0.0,0.0,0.0,0.0,0.0,0.0,0.0,0.0,0.0,0.0,0.0,0.0,0.0,0.0,0.0,0.0,0.0,0.0,0.0,0.0,5.3687,5.3754,5.3873,5.3873,5.3873,5.3873,5.3873,5.3754,5.3518,5.3518,0.0,0.0,0.0,0.0,0.0,0.0,0.0,0.0,0.0,0.0,0.0,0.0,0.0,0.0,0.0,0.0,0.0,0.0,0.0,0.0,0.0,5.345,5.3518,5.3518,5.3518,5.3518,0.0,0.0,0.0,0.0,0.0,0.0,5.3518,5.3518,5.3518,5.3518,5.3518,5.3518,5.3518,5.3518,5.3382,5.3213,5.3213,5.2807,5.2164,0.0,0.0,0.0,0.0,0.0,0.0,0.0,0.0,0.0,0.0,0.0,0.0,0.0,0.0,0.0,0.0,0.0,0.0,0.0,0.0,0.0,0.0,0.0,0.0,0.0,0.0,0.0,0.0,0.0,0.0,0.0,0.0,0.0,0.0,0.0,0.0,0.0,0.0,0.0,0.0,0.0,5.3518,5.3518,0.0,0.0,0.0,0.0,0.0,0.0,0.0,0.0,0.0,0.0,0.0,0.0,0.0,5.3518,5.3518,5.3518,5.3822,5.4431,5.4431,5.4803,5.5395,5.5395,5.5395,5.5395,5.5395,0.0,5.3518,5.3518,0.0,0.0,0.0,0.0,0.0,0.0,0.0,0.0,0.0,0.0,0.0,0.0,0.0,0.0,0.0,0.0,0.0,0.0,0.0,0.0,0.0,5.3518,5.3518,5.3518,5.3518,5.3518,5.3518,5.3518,0.0,0.0,0.0,5.3518,5.3518,5.3518,5.3518,5.3518,5.3518,5.3518,5.3518,5.3518,5.3518,5.3518,5.3518,5.3315,5.2976,5.2976,0.0,0.0,0.0,0.0,0.0,0.0,0.0,0.0,0.0,0.0,0.0,0.0,0.0,0.0,0.0,0.0,0.0,0.0,0.0,0.0,0.0,0.0,0.0,0.0,0.0,0.0,0.0,0.0,0.0,0.0,0.0,0.0,0.0,0.0,0.0,0.0,0.0,0.0,0.0,5.3518,5.3518,5.3518,5.3518,5.3518,0.0,0.0,0.0,0.0,0.0,0.0,0.0,0.0,0.0,5.4718,5.4718,5.4718,5.4718,5.4718,5.4887,5.5209,5.5209,5.5395,5.5699,5.5699,5.5699,5.5699,5.5699,5.5327,5.4718,5.4718,5.4718,5.4718,0.0,0.0,0.0,0.0,5.4718,5.4718,0.0,0.0,0.0,0.0,0.0,0.0,0.0,0.0,0.0,0.0,0.0,0.0,5.3518,5.3518,5.3518,5.3518,5.3518,5.3518,5.3518,5.3518,0.0,5.3518,5.3518,5.3518,5.3518,5.3518,5.3518,5.3518,5.3518,5.3518,5.3518,5.3518,5.3518,5.3518,5.3518,5.3518,5.3518,5.3518,5.3518,5.3518,0.0,0.0,0.0,0.0,0.0,0.0,0.0,0.0,0.0,0.0,0.0,0.0,0.0,0.0,0.0,0.0,0.0,0.0,0.0,0.0,0.0,0.0,0.0,0.0,0.0,0.0,0.0,0.0,0.0,0.0,0.0,0.0,0.0,0.0,0.0,0.0,0.0,5.3518,5.3518,5.3518,5.3518,5.3585,0.0,0.0,0.0,0.0,0.0,0.0,5.4837,5.4871,5.5141,5.5665,5.5699,5.5699,5.5699,5.5902,5.6071,5.6274,5.6443,5.6646,5.6815,5.6815,5.6815,5.6815,5.6815,5.6815,5.6781,5.6003,5.5699,5.5699,5.5699,5.5699,5.5699,5.5699,5.5699,5.5699,0.0,0.0,0.0,0.0,0.0,0.0,0.0,0.0,0.0,0.0,0.0,5.3518,5.3518,5.3518,5.3518,5.3518,5.3518,5.3518,5.3518,5.3518,5.3518,5.3518,5.3518,5.3518,5.3518,5.3518,5.3518,5.3518,5.3518,5.3518,5.3518,5.3518,5.3518,5.3518,5.3518,5.3518,5.3518,5.3518,5.3518,5.3518,5.3518,0.0,0.0,0.0,0.0,0.0,0.0,0.0,0.0,0.0,0.0,0.0,0.0,0.0,0.0,0.0,0.0,0.0,0.0,0.0,0.0,0.0,0.0,0.0,0.0,0.0,0.0,0.0,0.0,0.0,0.0,0.0,0.0,0.0,0.0,0.0,0.0,0.0,0.0,5.3518,5.3518,0.0,0.0,0.0,0.0,5.553,5.5597,5.5597,5.5631,5.5631,5.5665,5.5699,5.5699,5.5699,5.5699,5.6375,5.7103,5.778,5.849,5.9201,5.9877,5.9877,5.9877,5.9877,5.9877,5.9877,5.9674,5.6849,5.5699,5.5699,5.5699,5.5699,5.5699,5.5699,5.5699,5.5699,0.0,0.0,0.0,0.0,0.0,0.0,0.0,0.0,5.3518,5.3518,5.3518,5.3518,5.3518,5.3518,5.3518,5.3518,5.3518,5.3518,5.3518,5.3518,5.3518,5.3518,5.3518,5.3518,5.3518,5.3518,5.3518,5.3518,5.3518,5.3518,5.3518,5.3518,5.3518,5.3518,5.3518,5.3518,5.3518,5.3518,5.3518,5.3518,5.3518,5.3518,0.0,0.0,0.0,0.0,0.0,0.0,0.0,0.0,0.0,0.0,0.0,0.0,0.0,0.0,0.0,0.0,0.0,0.0,0.0,0.0,0.0,0.0,0.0,0.0,0.0,0.0,0.0,0.0,0.0,0.0,0.0,0.0,0.0,0.0,0.0,0.0,0.0,5.4853,5.4921,0.0,5.5259,5.531,5.5428,5.5665,5.5699,5.6105,5.707,5.7103,5.7543,5.849,5.8524,5.8524,5.8524,5.8795,5.9066,5.9302,5.9573,5.9844,6.0114,6.0114,6.0114,6.0114,6.0114,6.0114,6.0013,5.8964,5.8524,5.8524,5.8524,5.8524,5.8524,5.8524,5.8524,5.8524,0.0,0.0,0.0,0.0,0.0,0.0,0.0,0.0,5.3518,5.3518,5.3518,5.3518,5.3518,5.3518,5.3518,5.3518,5.3518,5.3518,5.3518,5.3518,5.3518,5.3518,5.3518,5.3518,5.3518,5.3518,5.3518,5.3518,5.3518,5.3518,5.3518,5.3518,5.3518,5.3518,5.3518,5.3518,5.3518,5.3518,5.3518,5.3518,5.3518,5.3518,5.3518,0.0,0.0,0.0,0.0,0.0,0.0,0.0,0.0,0.0,0.0,0.0,0.0,0.0,0.0,0.0,0.0,0.0,0.0,0.0,0.0,0.0,0.0,0.0,0.0,0.0,0.0,0.0,0.0,0.0,0.0,0.0,0.0,0.0,0.0,0.0,5.5141,5.5631,5.5699,5.58,5.6037,5.6308,5.6544,5.6781,5.7052,5.7611,5.8592,5.8626,5.9099,6.008,6.0351,6.052,6.052,6.0994,6.1264,6.1264,6.1501,6.1637,6.1637,6.1637,6.1637,6.1637,6.1637,6.1637,6.1637,6.1637,6.1637,6.1535,6.0486,6.0114,6.0114,6.0114,6.0114,6.0114,0.0,0.0,0.0,0.0,0.0,0.0,0.0,5.3518,5.3518,5.3518,5.3518,5.3518,5.3518,5.3518,5.3518,5.3518,5.3518,5.3518,5.3518,5.3518,5.3518,5.3518,5.3518,5.3518,5.3518,5.3518,5.3518,5.3518,5.3518,5.3518,5.3518,5.3518,5.3518,5.3518,5.3518,5.3518,5.3518,5.3518,5.3518,5.3518,5.3518,5.3518,5.3518,0.0,0.0,0.0,0.0,0.0,0.0,0.0,0.0,0.0,0.0,0.0,0.0,0.0,0.0,0.0,0.0,0.0,0.0,0.0,0.0,0.0,0.0,0.0,0.0,0.0,0.0,0.0,0.0,0.0,0.0,0.0,0.0,0.0,5.5733,5.5733,5.5767,5.58,5.58,5.6105,5.6833,5.7543,5.8254,5.8979,5.9708,6.0148,6.0182,6.0182,6.0216,6.025,6.0994,6.14,6.14,6.2801,6.3511,6.3545,6.4275,6.4613,6.4613,6.4613,6.4613,6.4613,6.4613,6.4613,6.4613,6.4613,6.4613,6.4309,6.1366,6.025,6.025,6.025,6.025,6.025,0.0,0.0,0.0,0.0,0.0,0.0,0.0,5.3518,5.3518,5.3518,5.3518,5.3518,5.3518,5.3518,5.3518,5.3518,5.3518,5.3518,5.3518,5.3518,5.3518,5.3518,5.3518,5.3518,5.3518,5.3518,5.3518,5.3518,5.3518,5.3518,5.3518,5.3518,5.3518,5.3518,5.3518,5.3518,5.3518,5.3518,5.3518,5.3518,5.3518,5.3518,5.3518,0.0,0.0,0.0,0.0,0.0,0.0,0.0,0.0,0.0,0.0,0.0,0.0,0.0,0.0,0.0,0.0,0.0,0.0,0.0,0.0,0.0,0.0,0.0,0.0,0.0,0.0,0.0,0.0,0.0,0.0,0.0,0.0,5.7103,5.6562,5.6494,5.6883,5.7965,5.81,5.8371,5.9133,5.937,5.9573,5.9776,6.052,6.1197,6.1738,6.2279,6.2821,6.3362,6.3565,6.37,6.37,6.4106,6.4309,6.4309,6.4512,6.4613,6.4613,6.4613,6.4613,6.4613,6.4613,6.4613,6.4613,6.4613,6.4613,6.4512,6.37,6.3362,6.3362,6.3362,6.3362,6.3362,0.0,0.0,0.0,0.0,0.0,0.0,0.0,5.3518,5.3518,5.3518,5.3518,5.3518,5.3518,5.3518,5.3518,5.3518,5.3518,5.3518,5.3518,5.3518,5.3518,5.3518,5.3518,5.3518,5.3518,5.3518,5.3518,5.3518,5.3518,5.3518,5.3518,5.3518,5.3518,5.3518,5.3518,5.3518,5.3518,5.3518,5.3518,5.3518,5.3518,5.3518,5.3518,5.3518,5.3518,5.3518,5.3518,5.3518,5.3518,5.3518,0.0,0.0,0.0,0.0,0.0,0.0,0.0,0.0,0.0,0.0,0.0,0.0,0.0,0.0,0.0,0.0,0.0,0.0,0.0,0.0,0.0,0.0,0.0,0.0,5.8355,5.866,5.8254,5.7915,5.8134,5.9317,5.9471,5.9776,6.052,6.0892,6.1197,6.1501,6.2245,6.2854,6.3294,6.3734,6.4309,6.5019,6.5358,6.5662,6.5967,6.6305,6.6474,6.6474,6.6474,6.6474,6.6474,6.6474,6.6474,6.6474,6.6474,6.6474,6.6474,6.6474,6.6731,0.0,0.0,0.0,0.0,0.0,6.4613,6.4613,0.0,0.0,0.0,0.0,0.0,0.0,0.0,5.3518,5.3518,5.3518,5.3518,5.3518,5.3518,5.3518,5.3518,5.3518,5.3518,5.3518,5.3518,5.3518,5.3518,5.3518,5.3518,5.3518,5.3518,5.3518,5.3518,5.3518,5.3518,5.3518,5.3518,5.3518,5.3518,5.3518,5.3518,5.3518,5.3518,5.3585,5.3619,5.3619,5.3704,5.3653,5.3518,5.3518,5.3518,5.3518,5.3518,5.3551,5.3619,5.3619,0.0,0.0,0.0,0.0,0.0,0.0,0.0,0.0,0.0,0.0,0.0,0.0,0.0,0.0,0.0,0.0,0.0,0.0,0.0,0.0,0.0,0.0,0.0,0.0,5.9742,6.025,6.0351,5.9877,5.9723,6.0283,6.0351,6.0723,6.1603,6.2245,6.2922,6.3579,6.4377,6.485,6.485,0.0,0.0,0.0,0.0,6.7387,6.803,6.8741,6.9113,6.9113,6.9113,6.9113,6.9113,6.9113,6.9113,6.9113,6.9113,6.9113,6.9113,6.9231,6.9872,7.0427,6.683,6.5459,6.5439,6.5298,6.5291,6.5271,0.0,0.0,0.0,0.0,0.0,0.0,0.0,5.3518,5.3518,5.3518,5.3518,5.3518,5.3518,5.3518,5.3518,5.3518,5.3518,5.3518,5.3518,5.3518,5.3518,5.3518,5.3518,5.3518,5.3518,5.3518,5.3518,5.3518,5.3518,5.3518,5.3518,5.3518,5.3518,5.3518,5.3518,5.3518,5.3551,5.4126,5.4414,5.4431,5.5023,5.4549,5.3518,5.3518,5.3518,5.3518,5.3518,5.389,5.4414,5.4414,5.4769,5.5259,5.5259,5.5259,0.0,0.0,0.0,0.0,0.0,0.0,0.0,0.0,0.0,0.0,0.0,0.0,0.0,0.0,0.0,0.0,0.0,0.0,0.0,5.9877,6.0554,6.1264,6.1873,6.2347,6.2463,6.2009,6.196,6.2482,6.3835,6.4072,6.4241,6.4377,6.5608,6.6352,6.6352,6.7557,6.8301,6.8436,6.8571,6.8741,6.8876,6.9011,6.9113,6.9113,0.0,0.0,6.9113,6.9113,6.9113,6.9113,6.9113,6.9113,6.9144,6.9983,7.0887,7.1717,7.0932,7.0646,7.0553,6.9723,6.944,6.9299,0.0,0.0,0.0,0.0,0.0,0.0,0.0,5.3518,5.3518,5.3518,5.3518,5.3518,5.3518,5.3518,5.3518,5.3518,5.3518,5.3518,5.3518,5.3518,5.3518,5.3518,5.3518,5.3687,5.4025,5.4059,5.4228,5.4583,5.4583,5.4583,5.4583,5.4583,5.4583,5.4583,5.4583,5.4583,5.4634,5.4989,5.5141,5.5175,5.5564,5.5259,5.4583,5.4583,5.4583,5.4583,5.4583,5.4837,5.5141,5.5141,5.5395,5.5699,5.5699,5.5699,5.5767,0.0,0.0,0.0,0.0,0.0,0.0,0.0,0.0,0.0,0.0,0.0,0.0,0.0,0.0,5.9674,0.0,0.0,6.1231,6.1231,6.2212,6.3091,6.3429,6.3835,6.3903,6.3531,6.3497,6.4072,6.5561,6.5696,6.6034,6.6779,6.7523,6.7963,6.7963,6.8673,6.9282,6.962,6.9654,6.9823,7.0195,7.0195,7.0195,7.0195,7.0195,7.0195,7.0195,7.0195,7.0195,7.0195,7.0195,7.0195,7.0328,7.1816,7.303,7.401,7.4513,7.3632,7.2027,7.1525,7.1336,7.1294,0.0,0.0,0.0,0.0,0.0,0.0,0.0,5.3518,5.3518,5.3518,5.3518,5.3518,5.3518,5.3518,5.3518,5.3518,5.3518,5.3518,5.3518,5.3619,5.3721,5.3721,5.3856,5.4194,5.4803,5.4803,5.5108,5.5699,5.5699,5.5699,5.5699,5.5699,5.5699,5.5699,5.5699,5.5699,5.5699,5.5834,5.5902,5.5936,5.6071,5.6139,5.6139,5.6139,5.5936,5.5699,5.5699,5.58,5.5902,5.5902,5.6003,5.6139,5.6139,5.6139,5.624,5.6833,5.7137,0.0,0.0,0.0,0.0,0.0,0.0,0.0,0.0,0.0,6.0148,6.0317,6.0452,6.0588,6.0723,6.1873,6.284,6.284,6.4072,6.5019,6.5019,6.529,6.5459,6.5459,6.5222,6.5628,6.7096,6.7252,6.776,6.9011,6.9214,6.9316,6.9316,6.9451,6.9789,7.0398,7.0398,7.0703,7.1289,7.1289,7.1289,7.1289,7.1289,7.1289,7.1289,7.1289,7.1424,7.1578,7.182,7.1969,7.23,7.3908,7.5174,7.6181,7.6988,7.5584,7.3066,7.267,7.2652,7.2743,0.0,0.0,0.0,0.0,0.0,0.0,0.0,0.0,5.3518,5.3518,5.3518,5.3518,5.3518,5.3518,5.3518,5.3518,5.3518,5.3518,5.3518,5.4093,5.4482,5.4482,5.5108,5.5496,5.5564,5.5564,5.5631,5.5699,5.5699,5.5699,5.5699,5.5699,5.5699,5.5699,5.5699,5.5699,5.5733,5.6393,5.6697,5.6731,5.7374,5.7645,5.7645,5.7645,5.6833,5.5699,5.5699,5.6105,5.6697,5.6697,5.7103,5.7645,5.7645,5.7645,5.7663,5.7764,0.0,5.8776,5.8844,5.937,5.9877,5.9945,5.9979,6.0013,0.0,0.0,6.0317,6.1028,6.167,6.2347,6.3004,6.3802,6.4343,6.4343,6.5595,6.6555,6.6555,6.7726,6.8605,6.8605,6.7387,6.7163,6.8707,6.8842,6.891,6.9079,6.9688,7.0082,7.0082,7.0703,7.1086,7.1154,7.1176,7.1222,7.1289,7.1289,7.1289,7.1289,7.1289,7.1289,7.1289,7.1289,7.1764,7.2673,7.3591,7.446,7.5298,7.5545,7.6231,7.7165,7.7243,7.7071,7.6505,7.4708,7.4617,7.4994,0.0,0.0,0.0,0.0,0.0,0.0,0.0,0.0,0.0,5.3518,5.3518,5.3518,5.3518,5.3518,5.3687,5.4093,5.4126,5.4329,5.4752,5.5074,5.5243,5.5243,5.553,5.5902,5.6325,5.6341,5.6562,5.6968,5.6968,5.6968,5.6968,5.6968,5.6968,5.6968,5.6968,5.6968,5.7002,5.7306,5.7442,5.7476,5.7798,5.79,5.79,5.79,5.7509,5.6968,5.6968,5.7171,0.0,5.7442,5.7663,5.7949,5.8389,5.8558,5.8626,5.9066,5.9404,0.0,5.9641,5.9877,0.0,0.0,6.0791,6.0926,6.1332,6.1772,6.2158,6.2496,6.3159,6.3768,6.4072,6.5087,6.5878,0.0,6.7151,6.8132,6.8132,6.8707,6.9248,6.9688,6.918,6.9011,6.9688,6.9722,6.9925,7.0364,7.0669,7.0838,7.0838,7.1142,7.1289,7.1289,7.1289,7.1289,7.1289,7.1289,7.1289,7.1312,7.1895,7.215,7.2172,7.279,7.3272,7.3709,7.4101,7.4867,7.5787,7.5787,7.6379,7.7289,7.7289,7.7289,7.7196,7.6366,7.6297,7.6498,0.0,0.0,0.0,0.0,0.0,0.0,0.0,0.0,0.0,0.0,5.3518,5.3585,5.3788,5.3788,5.4093,5.4837,5.4905,5.5141,5.5665,5.5902,5.6003,5.6003,5.6206,5.6562,5.7103,5.7103,5.7374,5.79,5.79,5.79,5.79,5.79,5.79,5.79,5.79,5.79,5.79,5.79,5.79,5.79,5.79,5.79,5.7934,5.8137,5.8186,5.8186,5.7949,5.8035,5.8186,5.8186,5.8321,5.8592,5.9133,5.9284,5.9404,5.9945,6.025,6.0486,6.0689,0.0,0.0,6.1704,6.1907,6.211,6.2821,6.3429,6.3781,6.3781,6.4546,6.5222,6.5222,6.644,6.7434,6.7434,6.8538,6.9417,6.9417,6.9586,6.9891,7.0432,7.05,7.05,7.05,7.05,7.0737,7.1255,7.1289,7.1289,7.1289,7.1289,7.1391,7.1616,7.1594,7.1841,7.2345,7.2368,7.2488,7.2802,7.3525,7.388,7.392,7.4909,7.5361,7.538,7.5691,7.6246,7.69,7.69,7.7336,7.7986,7.7986,7.7986,7.7986,7.7986,7.7693,7.7212,0.0,0.0,0.0,0.0,0.0,0.0,0.0,0.0,0.0,0.0,0.0,0.0,0.0,5.4583,5.4871,5.5597,5.5665,5.5665,5.5699,5.6375,5.6765,5.6765,5.7442,5.7832,5.7866,5.7866,5.79,5.79,5.79,5.79,5.79,5.79,5.79,5.79,5.79,5.79,5.79,5.79,5.79,5.79,5.79,5.79,5.8001,5.8675,5.8979,5.8878,5.8152,5.8355,5.8979,5.8979,5.9419,6.0047,6.0047,6.008,0.0,6.008,6.0655,6.1434,6.2164,0.0,6.2516,6.326,6.3443,6.3612,6.4377,6.4546,6.458,6.458,6.573,6.6724,6.6724,6.7996,6.9045,6.9045,6.9654,7.0184,7.0184,7.077,7.1222,7.1255,7.1255,7.1255,0.0,7.1255,7.1255,7.1289,7.1289,7.1289,7.1289,7.1289,7.165,7.2326,7.236,7.3218,7.4959,7.4959,7.5512,7.654,7.6579,7.6599,7.6618,7.7631,7.8079,7.8132,7.9198,7.9643,7.9674,7.9674,7.969,7.9706,7.9706,7.9706,7.9706,7.9706,7.8699,7.7019,0.0,0.0,0.0,0.0,0.0,0.0,0.0,0.0,0.0,0.0,0.0,0.0,0.0,0.0,0.0,0.0,5.6427,5.663,5.7137,5.7374,5.7509,5.7509,5.7764,5.79,5.79,5.79,5.79,5.79,5.79,5.79,5.79,5.79,5.79,5.79,5.79,5.79,5.79,5.79,5.8186,5.8626,5.8626,5.893,5.937,5.9641,5.9742,5.9708,0.0,5.9505,5.9802,6.0448,6.0401,6.0295,6.1391,6.1338,6.0994,6.1467,6.1806,6.2178,6.2922,0.0,6.3328,6.4038,6.4241,6.4309,6.4546,6.5358,6.6068,6.6068,6.781,6.9336,6.9336,7.0155,7.0842,7.0842,7.1461,7.1701,7.1017,7.1703,7.2034,7.1379,7.1289,0.0,0.0,0.0,0.0,7.1289,7.1751,7.2022,7.2022,7.2496,7.3187,7.4156,7.42,7.4828,7.6157,7.6157,7.6356,7.6728,7.7372,7.808,7.878,7.9649,8.0074,8.0127,8.1008,8.1379,8.1379,8.1379,8.1379,8.1379,8.1379,8.1048,8.0608,8.0608,7.991,7.8841,0.0,0.0,0.0,0.0,0.0,0.0,0.0,0.0,0.0,0.0,0.0,0.0,0.0,0.0,0.0,0.0,0.0,5.7374,5.7866,5.79,5.79,5.79,5.79,5.8017,5.8287,5.8287,5.8423,5.8712,5.8423,5.8287,5.8287,5.8017,5.8017,5.8287,5.8287,5.8423,5.8712,5.8712,5.8964,5.9404,5.9404,5.9674,6.0148,6.0419,6.052,0.0,6.0825,6.0926,6.0954,6.1321,6.1407,6.1531,6.2307,6.2309,6.2169,6.2725,6.3013,6.3226,6.3443,6.3945,6.4547,6.5298,6.599,6.6426,6.6354,6.7243,6.8152,6.8152,6.9652,7.1086,7.1447,7.2115,7.2619,7.2619,7.3018,7.2982,7.2004,7.2707,7.2962,7.196,7.2069,7.2239,0.0,0.0,0.0,7.174,7.2733,7.3353,7.3353,7.4206,7.5081,7.6007,7.6384,7.7163,7.8527,7.8796,7.9128,7.9519,8.0187,8.0849,8.1525,8.2039,8.2296,8.2333,8.2847,8.3067,8.3067,8.3067,8.3067,8.3067,8.3067,8.2737,8.2296,8.2296,8.1966,8.1358,0.0,0.0,0.0,0.0,0.0,0.0,0.0,0.0,0.0,0.0,0.0,0.0,0.0,0.0,0.0,0.0,0.0,0.0,5.79,5.79,5.7934,5.7967,5.7967,5.8287,5.9047,5.9047,5.9385,6.0114,5.9385,5.9047,5.9047,5.8321,5.8389,5.9047,5.9047,5.9419,6.0114,6.0114,6.0114,6.0148,6.0148,6.022,6.0359,6.1081,6.1404,6.1511,6.2222,6.2479,6.2358,6.1646,6.2463,6.3537,6.2712,6.2956,6.3541,6.3698,6.416,6.4478,6.3781,6.4791,6.623,6.7011,6.8563,6.9793,6.959,7.0159,7.0719,7.0719,7.1364,7.219,0.0,0.0,7.4367,7.4367,7.4367,7.4059,7.3078,7.3745,7.3998,0.0,0.0,0.0,0.0,0.0,0.0,7.2892,0.0,7.5246,7.5281,7.6313,7.724,7.804,7.8859,8.0152,8.1942,8.2702,8.3592,8.4609,8.4609,8.4609,8.4609,8.4646,8.4646,8.4646,8.4719,8.4719,8.4719,8.4719,8.4719,8.4719,8.4719,8.4719,8.4646,8.4646,8.4646,8.4168,0.0,0.0,0.0,0.0,0.0,0.0,0.0,0.0,0.0,0.0,0.0,0.0,0.0,0.0,0.0,0.0,0.0,0.0,5.79,5.79,5.8152,5.8693,5.8727,5.9047,5.981,5.981,5.9911,6.0114,5.9911,5.981,5.981,5.9641,5.9641,5.981,5.981,5.9911,6.0114,6.0114,6.0452,6.0994,6.0994,6.1722,6.2745,6.2299,6.2525,6.3094,6.3301,6.3369,6.3335,6.3163,6.3363,6.3641,6.3305,6.3342,6.3605,6.4223,6.4477,6.4681,6.5019,6.5834,6.6957,6.8502,6.9656,7.0577,7.1265,7.2012,7.254,7.254,7.3701,7.4834,0.0,0.0,0.0,7.5422,7.5422,0.0,7.4877,7.4987,0.0,7.5646,0.0,7.5116,7.59,7.668,0.0,0.0,7.7207,7.7384,7.8044,7.8867,8.004,8.1621,8.191,8.263,8.3866,8.4085,8.4315,8.4609,8.4609,8.4609,8.4609,8.5233,8.549,8.5527,8.6151,8.6407,8.6407,8.6407,8.6407,8.6407,8.6407,8.604,8.549,8.549,8.5123,8.4499,0.0,0.0,0.0,0.0,0.0,0.0,0.0,0.0,0.0,0.0,0.0,0.0,0.0,0.0,0.0,0.0,0.0,0.0,0.0,5.8186,5.8558,5.8979,5.9317,5.9844,6.0622,6.0622,6.0791,6.1095,6.0791,6.0622,6.0622,6.0283,6.0283,6.0622,6.0622,6.0825,6.1095,6.1095,6.1366,0.0,0.0,6.2323,6.3068,6.2581,6.2717,6.3233,6.3954,6.443,6.4634,6.4236,6.3878,6.3703,6.4356,6.45,6.4559,6.5053,0.0,6.6171,6.6159,6.7673,6.9456,7.0358,7.1809,7.3048,7.319,7.3779,7.4351,7.4351,7.5117,0.0,7.6363,7.6465,0.0,0.0,0.0,0.0,7.6248,7.6841,7.7344,0.0,7.7463,0.0,7.835,7.9408,8.0285,0.0,8.0015,7.9908,8.0769,8.1655,8.2611,8.3664,8.4045,8.4695,8.562,8.5637,8.5637,8.5637,8.5637,8.5637,8.5673,8.6114,8.6518,8.6885,0.0,8.7711,8.8042,8.8042,8.8042,8.8042,8.8042,8.7785,8.7325,8.6995,8.6554,8.6114,0.0,0.0,0.0,0.0,0.0,0.0,0.0,0.0,0.0,0.0,0.0,0.0,0.0,0.0,0.0,0.0,0.0,0.0,0.0,0.0,5.9047,5.9148,5.9877,6.0622,6.1434,6.1467,6.1772,6.24,6.1772,6.1467,6.1434,6.0723,6.0791,6.1467,6.1467,6.1806,6.24,6.24,6.24,6.24,6.24,6.2479,6.2542,0.0,6.2546,6.2916,6.4349,6.5419,6.6046,6.5071,6.4275,6.3908,6.5405,6.5793,6.5746,6.5955,6.7038,6.8024,6.7318,6.964,7.2234,7.2353,7.4216,7.588,7.5113,7.5523,7.5993,7.5993,0.0,7.6264,7.715,7.7289,7.7289,7.7289,0.0,7.83,7.7485,7.8738,7.9523,7.8973,7.9991,8.0858,8.1093,8.2396,8.3265,8.3373,8.274,8.2631,8.3337,8.4272,8.4792,8.4939,8.56,8.6297,8.6978,8.7088,8.7178,8.7178,8.7271,8.7308,8.7308,8.7308,8.7675,8.8353,8.8353,0.0,8.94,8.94,8.94,8.94,8.94,8.94,8.9326,8.861,8.8353,8.828,0.0,0.0,0.0,0.0,0.0,0.0,0.0,0.0,0.0,0.0,5.7832,0.0,0.0,0.0,0.0,0.0,0.0,0.0,0.0,0.0,0.0,5.9877,6.0655,6.1434,6.2178,6.2212,6.2245,6.24,6.2245,6.2212,6.2231,6.2062,6.2076,6.2212,6.2212,6.2299,6.24,6.24,6.24,6.24,6.24,6.2836,6.3406,6.2678,0.0,0.0,6.459,6.5698,6.6901,6.5855,6.5019,6.4566,6.5427,6.5725,6.5805,6.6445,6.7254,6.8122,6.8845,7.0392,7.22,7.383,7.5046,7.603,7.6689,7.6925,0.0,0.0,7.7035,7.7082,7.7258,7.7289,7.7289,7.7289,7.8023,7.8762,7.9258,7.9408,8.0234,0.0,8.1959,8.2197,0.0,0.0,0.0,0.0,8.5194,8.5157,8.5304,8.5495,8.5894,8.6537,8.6738,8.6885,8.6978,8.7655,8.7986,8.7986,8.8666,8.8996,8.8996,8.8996,8.9069,8.9179,8.9179,0.0,8.94,8.94,8.94,8.94,8.94,8.94,8.9363,8.9253,8.9179,8.9179,0.0,0.0,0.0,0.0,0.0,0.0,0.0,0.0,0.0,0.0,5.79,5.79,0.0,0.0,0.0,0.0,0.0,0.0,0.0,0.0,0.0,0.0,6.1231,6.2042,6.2381,6.24,6.24,6.24,0.0,6.24,6.24,6.24,6.24,6.24,6.24,6.24,6.24,6.24,6.24,6.24,6.24,6.2659,6.3023,0.0,0.0,0.0,0.0,6.6279,6.762,6.6602,6.6034,6.5831,6.617,6.6271,6.6532,6.781,6.8432,6.9068,7.0927,7.1913,7.2772,7.4152,7.5152,7.5942,7.6396,0.0,0.0,0.0,7.7289,7.7289,7.7289,7.7289,7.7436,7.7913,7.8662,7.9522,8.0314,8.1017,8.1958,8.3258,8.3685,8.4256,0.0,8.56,8.6004,8.6407,8.6407,8.6407,8.6407,8.6407,8.6591,8.6978,8.7435,8.7619,8.7619,8.8409,8.8812,8.8812,8.9216,8.94,8.94,8.94,8.962,9.0024,9.0024,0.0,9.0665,9.0665,9.0665,9.0665,9.0665,9.0665,9.0592,9.017,9.0024,8.995,0.0,0.0,0.0,0.0,0.0,0.0,0.0,5.79,5.79,5.79,5.79,5.79,5.79,5.79,0.0,0.0,0.0,0.0,0.0,0.0,0.0,0.0,0.0,0.0,6.24,0.0,0.0,6.24,6.24,0.0,0.0,0.0,0.0,0.0,6.24,6.24,6.24,6.24,6.24,0.0,0.0,6.2618,0.0,0.0,0.0,0.0,0.0,6.6921,6.8068,6.712,6.6791,6.6791,6.6791,6.6791,6.7116,6.869,6.9256,6.9836,7.2223,7.2963,7.3286,7.4356,7.5227,7.5874,7.6061,7.6745,0.0,0.0,7.7289,7.7289,7.7289,7.7289,7.7582,7.8479,7.9302,8.0147,8.1122,8.25,8.3528,0.0,8.5013,0.0,8.604,8.6628,0.0,8.6978,8.7178,8.7234,8.7234,8.7234,8.7344,8.7491,8.8133,8.8463,8.8463,8.9253,8.9657,8.9657,8.984,8.9913,8.9913,8.9913,9.0244,9.0849,9.0849,0.0,0.0,9.1803,9.1803,9.1803,9.1803,9.1803,9.173,9.1106,9.0849,9.0776,0.0,0.0,0.0,0.0,0.0,0.0,0.0,5.79,5.79,5.79,5.79,5.79,5.79,5.79,0.0,0.0,0.0,0.0,0.0,0.0,0.0,0.0,0.0,0.0,0.0,0.0,0.0,6.24,6.24,0.0,0.0,0.0,0.0,0.0,0.0,6.24,6.24,6.24,0.0,0.0,0.0,0.0,0.0,0.0,0.0,0.0,0.0,6.7345,6.8068,6.712,6.6791,6.6791,6.6791,6.6791,6.6948,6.7786,0.0,0.0,7.1338,7.2337,7.3268,7.5192,7.5718,7.6044,7.6956,0.0,7.7289,7.7289,7.7289,7.7289,7.7289,7.7289,7.7582,7.8479,7.9302,8.033,8.1856,8.2847,8.3931,8.5416,0.0,0.0,8.6811,8.6941,8.6978,8.6978,8.7692,8.8096,8.8096,8.8096,8.8426,8.9143,8.9253,8.929,8.929,9.0097,9.0482,9.0501,9.1216,9.1583,9.1583,9.1583,9.162,9.1693,9.1693,0.0,0.0,9.1803,9.1803,9.1803,9.1803,9.1803,9.1803,9.173,9.1693,9.1693,0.0,0.0,0.0,0.0,0.0,0.0,0.0,5.79,5.79,5.79,5.79,5.79,5.79,5.79,5.79,0.0,0.0,0.0,0.0,0.0,0.0,0.0,0.0,0.0,0.0,0.0,6.24,6.24,6.24,0.0,0.0,0.0,0.0,0.0,0.0,6.24,6.24,6.24,0.0,0.0,0.0,0.0,0.0,0.0,0.0,0.0,0.0,0.0,6.7291,6.6925,6.6791,6.6859,6.732,6.7455,6.7718,0.0,6.9638,7.0271,7.2644,7.2589,7.2385,7.4385,7.4885,7.5138,7.6181,0.0,7.7289,7.7289,7.7289,7.7289,7.7289,7.7289,7.7729,7.9103,7.9596,8.055,8.2627,8.3618,8.4535,8.5673,8.6224,0.0,0.0,0.0,8.7198,8.7692,8.8445,8.9106,8.9638,8.9197,8.9069,8.94,8.9877,9.0097,9.0097,9.0922,9.1326,9.1326,9.1657,9.1803,9.1803,9.1803,9.1803,9.1803,9.1803,0.0,0.0,9.1803,9.1803,9.1803,9.1803,9.1803,9.1803,9.1803,9.1803,9.1803,0.0,0.0,0.0,0.0,0.0,0.0,5.79,5.79,5.79,5.79,5.79,5.79,5.79,5.79,5.79,5.79,0.0,0.0,0.0,0.0,0.0,0.0,0.0,0.0,0.0,0.0,6.24,6.24,6.24,6.24,0.0,0.0,6.24,6.24,0.0,0.0,0.0,0.0,0.0,0.0,0.0,0.0,0.0,0.0,0.0,0.0,0.0,0.0,0.0,0.0,0.0,6.7261,6.8114,6.8477,6.8845,7.0113,7.0358,7.067,7.2835,7.2582,7.2163,7.3885,7.4517,7.4994,0.0,0.0,7.7212,7.694,7.7082,7.7212,7.6888,7.7302,7.8133,7.9559,8.0,8.1012,8.3418,8.4242,8.4976,8.604,0.0,8.6978,0.0,8.7215,8.7802,8.883,8.9436,9.0097,9.0922,9.0427,9.0097,9.0097,9.0665,9.0959,9.0959,9.151,9.1803,9.1803,9.1803,9.1803,9.1803,9.1803,9.1803,9.1803,9.1803,0.0,0.0,9.1803,9.1803,9.1803,9.1803,9.1803,9.1803,9.1803,9.1803,9.1803,0.0,0.0,0.0,0.0,0.0,0.0,0.0,5.79,5.79,5.79,5.79,5.79,5.79,5.79,5.79,5.79,0.0,0.0,0.0,0.0,0.0,0.0,0.0,0.0,0.0,0.0,0.0,6.24,6.24,6.24,6.24,6.24,6.24,6.24,0.0,0.0,0.0,0.0,0.0,0.0,0.0,0.0,0.0,0.0,0.0,0.0,0.0,0.0,0.0,0.0,0.0,0.0,0.0,6.981,7.0184,7.0184,7.0184,7.0387,7.1131,7.2034,7.3044,7.4043,7.503,7.6044,0.0,7.7273,7.7019,7.6027,7.6595,7.7003,7.5993,7.7336,7.8846,7.9669,8.0461,8.1819,8.4242,8.4609,8.5196,0.0,8.6978,8.6978,8.6978,8.7729,8.8867,9.0427,9.0592,0.0,9.173,9.1767,9.1767,9.1767,9.1767,9.1803,9.1803,9.1803,9.1803,9.1803,9.1803,9.1803,9.1803,9.1803,9.1803,0.0,0.0,0.0,0.0,9.1803,9.1803,9.1803,9.1803,9.1803,9.1803,9.1803,9.1803,9.1803,0.0,0.0,0.0,0.0,0.0,0.0,0.0,5.79,5.79,5.79,5.79,5.79,5.79,5.79,5.79,5.79,0.0,0.0,0.0,0.0,0.0,0.0,0.0,0.0,0.0,0.0,0.0,0.0,0.0,6.24,6.24,6.24,6.24,6.24,6.24,6.24,0.0,0.0,0.0,0.0,0.0,0.0,0.0,0.0,0.0,0.0,0.0,0.0,0.0,0.0,0.0,0.0,0.0,0.0,0.0,7.1014,7.1445,7.1897,7.1411,7.2034,7.3029,7.4043,7.4535,7.503,7.6044,7.628,7.6161,7.5874,7.6044,7.6197,7.5874,7.732,7.862,7.8702,8.0453,8.248,8.4352,8.5086,8.582,8.6867,8.7509,8.7839,0.0,0.0,9.0041,9.0537,9.1106,9.1546,9.1803,9.1803,9.1803,9.1803,9.1803,9.1803,9.1803,9.1803,9.1803,9.1803,9.1803,9.1803,9.1803,9.1803,9.1803,0.0,0.0,0.0,0.0,9.1803,9.1803,9.1803,9.1803,9.1803,9.1803,9.1803,9.1803,9.1803,0.0,0.0,0.0,0.0,0.0,0.0,0.0,5.79,5.79,5.79,5.79,5.79,5.79,5.79,5.79,5.79,0.0,0.0,0.0,0.0,0.0,0.0,0.0,0.0,0.0,0.0,0.0,0.0,0.0,0.0,0.0,0.0,6.24,6.24,6.24,6.255,0.0,0.0,0.0,0.0,0.0,0.0,6.6791,0.0,0.0,0.0,0.0,0.0,0.0,0.0,0.0,0.0,0.0,0.0,0.0,0.0,7.2603,7.2582,7.1556,7.2582,7.3986,7.4234,7.4572,0.0,7.5649,7.551,7.512,7.4757,7.4958,7.5335,7.5621,7.72,7.8628,7.9192,8.118,8.3104,8.4425,8.527,8.6187,8.7325,8.7912,0.0,0.0,9.0005,9.0739,9.1033,9.151,9.1803,9.1803,9.1803,9.1803,9.1803,9.1803,9.1803,9.1803,9.1803,9.1803,9.1803,9.1803,9.1803,9.1803,9.1803,9.1803,0.0,0.0,0.0,0.0,9.1803,9.1803,9.1803,9.1803,9.1803,9.1803,9.1803,9.1803,9.1803,0.0,0.0,0.0,0.0,0.0,0.0,0.0,0.0,0.0,0.0,5.79,5.79,5.79,5.79,5.79,0.0,0.0,0.0,0.0,0.0,0.0,0.0,0.0,0.0,0.0,0.0,0.0,6.24,6.24,6.24,6.24,0.0,0.0,6.24,6.24,0.0,0.0,0.0,0.0,0.0,6.6542,6.6791,0.0,0.0,0.0,0.0,0.0,0.0,0.0,0.0,0.0,0.0,0.0,0.0,0.0,0.0,0.0,0.0,0.0,7.3571,0.0,0.0,0.0,0.0,7.5684,7.4903,0.0,7.3003,7.3587,7.4533,7.5356,7.7018,7.8881,8.0691,8.2394,8.3748,8.4572,8.5416,8.6518,8.8023,8.8316,0.0,9.0427,9.0665,9.0996,9.173,9.1803,9.1803,9.1803,9.1803,9.1803,9.1803,9.1803,9.1803,9.1803,9.1803,9.1803,9.1803,9.1803,9.1803,9.1803,9.1803,9.1803,0.0,0.0,0.0,0.0,9.1803,9.1803,9.1803,9.1803,9.1803,9.1803,9.1803,9.1803,9.1803,0.0,0.0,0.0,0.0,0.0,0.0,0.0,0.0,0.0,0.0,0.0,5.79,5.79,5.79,0.0,0.0,0.0,0.0,0.0,0.0,0.0,0.0,0.0,0.0,0.0,0.0,0.0,6.24,6.24,6.24,6.24,6.24,0.0,0.0,0.0,0.0,0.0,0.0,0.0,0.0,6.6724,6.6791,0.0,0.0,0.0,0.0,6.6791,6.6791,0.0,0.0,0.0,0.0,0.0,0.0,0.0,0.0,7.3532,7.3924,7.367,0.0,7.4591,0.0,0.0,7.4647,0.0,7.3869,7.3105,7.2838,7.3454,7.4301,7.5292,7.7465,7.9485,8.0583,8.2757,8.4609,8.538,8.6738,8.7766,8.8169,8.9307,9.0188,9.0537,9.1179,9.1583,9.1803,9.1803,9.1803,9.1803,9.1803,9.1803,9.1803,9.1803,9.1803,9.1803,9.1803,9.1803,9.1803,9.1803,9.1803,9.1803,9.1803,9.1803,0.0,0.0,0.0,9.1803,9.1803,9.1803,9.1803,9.1803,9.1803,9.1803,9.1803,9.1803,9.1803,0.0,0.0,0.0,0.0,0.0,0.0,0.0,0.0,0.0,0.0,0.0,0.0,0.0,0.0,0.0,0.0,0.0,0.0,0.0,0.0,0.0,0.0,0.0,0.0,0.0,6.24,0.0,0.0,0.0,6.24,0.0,0.0,0.0,0.0,0.0,0.0,0.0,0.0,0.0,0.0,6.6791,0.0,0.0,0.0,0.0,0.0,6.6791,6.6791,0.0,6.7184,6.8098,6.9147,0.0,0.0,0.0,0.0,7.2859,7.3125,7.4043,7.4628,7.4867,7.4404,7.4291,7.4177,7.3729,7.2818,7.212,7.212,7.2703,7.3791,7.5689,7.7382,7.9063,8.0855,8.2994,8.495,8.6649,8.7211,8.7906,8.9144,9.0078,9.0739,0.0,9.1546,9.1803,9.1803,9.1803,9.1803,9.1803,9.1803,9.1803,9.1803,9.1803,9.1803,9.1803,9.1803,9.1803,9.1803,9.1803,9.1803,9.1803,9.1803,9.1803,0.0,0.0,0.0,9.1803,9.1803,9.1803,9.1803,9.1803,9.1803,9.1803,9.1803,9.1803,9.1803,0.0,0.0,0.0,0.0,0.0,0.0,0.0,0.0,0.0,0.0,0.0,0.0,0.0,0.0,0.0,0.0,0.0,0.0,0.0,0.0,0.0,0.0,0.0,6.24,6.24,6.24,6.24,0.0,0.0,0.0,0.0,0.0,6.2448,0.0,0.0,0.0,0.0,0.0,0.0,0.0,6.6791,0.0,0.0,0.0,0.0,0.0,0.0,0.0,0.0,6.7658,6.8436,6.9214,6.998,0.0,0.0,0.0,0.0,0.0,7.3807,7.4922,7.5387,7.4498,7.4177,7.3831,7.3003,7.2013,7.1323,7.1424,7.2056,7.3432,7.6253,7.7223,7.858,8.1583,8.3292,8.5149,8.7594,8.7206,8.7671,9.0282,9.0702,0.0,9.173,9.1803,9.1803,9.1803,9.1803,9.1803,9.1803,9.1803,9.1803,9.1803,9.1803,9.1803,9.1803,9.1803,9.1803,9.1803,9.1803,9.1803,9.1803,9.1803,9.1803,9.1803,0.0,0.0,9.1803,9.1803,9.1803,9.1803,9.1803,9.1803,9.1803,9.1803,9.1803,9.1803,0.0,0.0,0.0,0.0,0.0,0.0,0.0,0.0,0.0,0.0,0.0,0.0,0.0,0.0,0.0,0.0,0.0,0.0,0.0,0.0,0.0,0.0,6.1941,6.24,6.24,6.24,6.24,6.24,0.0,0.0,6.24,6.24,6.2719,6.3376,0.0,0.0,0.0,0.0,0.0,6.6791,6.6791,0.0,0.0,0.0,0.0,0.0,0.0,0.0,0.0,6.7658,6.8436,6.9214,6.998,0.0,0.0,0.0,0.0,0.0,7.3966,7.4404,7.4479,7.4329,7.367,7.3003,7.2838,7.2013,7.1458,7.209,7.28,7.4139,7.6734,7.7827,7.9525,8.313,8.452,8.548,8.6629,8.72,8.8288,9.0356,9.1216,9.1657,9.1803,9.1803,9.1803,9.1803,9.1803,9.1803,9.1803,9.1803,9.1803,9.1803,9.1803,9.1803,9.1803,9.1803,9.1803,9.1803,9.1803,9.1803,9.1803,9.1803,9.1803,9.1803,0.0,9.1803,9.1803,9.1803,9.1803,9.1803,9.1803,9.1803,9.1803,9.1803,9.1803,9.1803,0.0,0.0,0.0,0.0,0.0,0.0,0.0,0.0,0.0,0.0,0.0,0.0,0.0,0.0,0.0,0.0,0.0,0.0,0.0,0.0,0.0,6.1839,6.2231,6.24,6.24,6.24,6.24,6.24,6.24,6.2584,6.299,6.3396,6.3768,6.414,0.0,0.0,0.0,0.0,6.6791,6.6791,0.0,0.0,0.0,0.0,0.0,0.0,0.0,0.0,0.0,0.0,6.8808,6.9316,7.0432,0.0,0.0,0.0,0.0,0.0,7.3905,7.3512,7.2811,7.3352,7.3131,7.2769,7.2635,7.2234,7.209,7.2834,7.3883,7.5227,7.699,7.8156,7.9729,8.2451,8.3599,8.4613,8.5987,8.7428,8.8598,0.0,0.0,9.1528,9.0907,9.1416,9.1803,9.1803,9.1803,9.1803,9.1803,9.1803,9.1803,9.1803,9.1803,9.1803,9.1803,9.1803,9.1803,9.1803,9.1803,9.1803,9.1803,9.1803,9.1803,9.1803,0.0,9.1803,9.1803,9.1803,9.1803,9.1803,9.1803,9.1803,9.184,9.2317,9.2501,9.2574,0.0,0.0,0.0,0.0,0.0,0.0,0.0,0.0,0.0,0.0,0.0,0.0,0.0,0.0,0.0,0.0,0.0,0.0,0.0,0.0,6.0994,6.2347,6.24,6.24,6.24,6.24,6.24,6.24,6.255,6.3057,6.3748,6.4512,6.485,0.0,0.0,0.0,0.0,0.0,6.6791,6.6791,0.0,0.0,0.0,0.0,0.0,0.0,0.0,0.0,0.0,0.0,0.0,0.0,0.0,0.0,0.0,7.2776,7.2448,7.2004,7.3532,7.2797,7.1832,7.2528,7.2711,7.2648,7.2429,7.2529,7.2902,7.3815,7.4897,7.6096,7.7468,7.8834,8.019,8.154,8.2507,8.3706,8.5508,8.7094,8.822,8.8596,9.0264,9.1135,9.0463,9.1249,9.1803,9.1803,9.1803,9.1803,9.1803,9.1803,9.1803,9.1803,9.1803,9.1803,9.1803,9.1803,9.1803,9.1803,9.1803,9.1803,9.1803,9.1803,9.1803,9.1803,9.1803,9.1803,9.1803,9.2024,9.2097,9.2134,9.2317,9.2391,9.2464,9.3125,9.3382,9.3455,0.0,0.0,0.0,0.0,0.0,0.0,0.0,0.0,0.0,0.0,0.0,0.0,0.0,0.0,0.0,0.0,0.0,0.0,0.0,0.0,6.1569,6.2367,6.24,6.24,6.24,6.24,6.24,6.24,6.3091,6.3781,6.4546,6.5256,6.5615,6.5628,0.0,0.0,0.0,0.0,6.6791,6.6791,6.6791,0.0,0.0,0.0,0.0,0.0,0.0,0.0,0.0,0.0,0.0,0.0,0.0,0.0,7.1688,7.3631,7.3492,7.2714,7.288,7.2797,7.2649,7.2472,7.2429,7.244,7.2417,7.2935,7.3838,7.5236,7.5642,7.6376,7.8548,8.045,8.1646,8.1375,8.2296,8.3538,8.5114,0.0,8.6649,8.9548,9.0026,9.0559,9.1583,9.1767,9.1803,9.1803,9.1803,9.1803,9.1803,9.1803,9.1803,9.1803,9.1803,9.1803,9.1803,9.1803,9.1803,9.1803,9.1803,9.1803,9.1803,9.1803,9.1803,9.1803,9.1803,9.1803,9.184,9.2684,9.3015,9.3088,9.3822,9.4116,9.4116,9.4189,9.4189,9.4226,0.0,0.0,0.0,0.0,0.0,0.0,0.0,0.0,0.0,0.0,0.0,0.0,0.0,0.0,0.0,0.0,0.0,0.0,0.0,0.0,6.1637,6.2367,6.24,6.24,6.24,6.24,6.2618,6.3091,6.4275,6.5019,6.529,6.6034,0.0,0.0,0.0,0.0,0.0,0.0,0.0,6.6791,6.6791,6.6791,0.0,0.0,0.0,0.0,0.0,0.0,0.0,0.0,6.998,7.0385,7.1504,7.2034,7.2385,7.3131,7.309,7.2797,7.2797,7.2686,7.2514,7.244,7.3105,7.3781,7.3781,7.4356,7.5168,7.6217,7.7198,0.0,0.0,8.0737,8.149,8.1326,8.307,8.4357,8.419,8.6499,8.8127,8.7803,8.9745,9.1003,9.0716,9.1379,9.1803,9.1803,9.1803,9.1803,9.1803,9.1803,9.1803,9.1803,9.1803,9.1803,9.1803,9.1803,9.1803,9.1803,9.1803,9.1803,9.1803,9.1803,9.2097,9.2611,9.2611,9.2905,9.3382,9.3712,9.3859,9.3859,9.4189,9.4299,9.4373,9.485,9.507,9.5107,0.0,0.0,0.0,0.0,0.0,0.0,0.0,0.0,0.0,0.0,0.0,0.0,0.0,0.0,0.0,0.0,0.0,0.0,0.0,6.1197,6.1873,6.24,6.24,6.24,6.24,6.2618,6.299,6.3511,6.4986,6.5797,6.6068,0.0,0.0,0.0,0.0,0.0,0.0,0.0,0.0,0.0,6.6791,6.6791,0.0,0.0,0.0,0.0,0.0,0.0,0.0,0.0,7.0561,7.1104,7.1628,7.2456,7.3272,7.3272,7.3064,7.2797,7.2797,7.2604,7.2462,7.2699,7.3849,7.5033,7.527,7.5709,7.6352,7.7401,7.8788,7.9938,8.0445,0.0,0.0,8.1934,8.3542,8.4538,8.3926,8.6731,8.8402,8.7127,8.9495,9.1041,9.0618,9.1342,9.1803,9.1803,9.1803,9.1803,9.1803,9.1803,9.1803,9.1803,9.1803,9.1803,9.1803,9.1803,9.195,9.2207,9.2207,9.2207,9.2207,9.2207,9.2684,9.3492,9.3492,9.3786,9.4299,9.4556,9.4813,9.507,9.507,9.507,9.5107,9.5694,9.5859,9.5951,0.0,0.0,0.0,0.0,0.0,0.0,0.0,0.0,0.0,0.0,0.0,0.0,0.0,0.0,0.0,0.0,0.0,0.0,6.1264,6.1975,6.24,6.24,6.24,6.24,6.2415,6.3159,6.3511,6.3511,6.4986,6.6068,6.6791,6.6791,0.0,0.0,0.0,0.0,0.0,0.0,0.0,0.0,6.6791,6.6791,6.6791,0.0,0.0,0.0,0.0,0.0,0.0,0.0,7.1354,7.2776,7.2797,7.3492,7.4272,7.4272,7.3591,7.2797,7.2776,7.2604,7.2597,7.3364,7.465,7.5912,7.6724,7.6927,7.7333,7.8822,8.0276,8.1317,8.1317,8.19,0.0,8.3389,8.349,8.3761,8.4478,8.5668,8.6841,8.8043,8.9263,9.0443,9.1657,9.1785,9.1803,9.1803,9.1803,9.1803,9.1803,9.1803,9.1803,9.1803,9.1803,9.1803,9.1803,9.1803,9.2244,9.3088,9.3125,9.3125,9.3125,9.3125,9.3565,9.4299,9.4299,9.4299,9.4373,9.518,9.5988,9.6685,9.6685,9.6685,9.6685,9.6685,9.6685,9.6685,0.0,0.0,0.0,0.0,0.0,0.0,0.0,0.0,0.0,0.0,0.0,0.0,0.0,0.0,0.0,0.0,0.0,0.0,6.1264,6.1975,6.24,6.24,6.24,6.2618,6.3139,6.441,6.5053,6.5053,6.6,6.6609,6.6791,6.6791,0.0,6.6791,0.0,0.0,0.0,0.0,0.0,0.0,6.6791,6.6791,0.0,0.0,0.0,0.0,0.0,0.0,0.0,0.0,0.0,0.0,7.3412,7.3591,7.3232,7.3232,7.3009,7.2769,7.2576,7.2836,7.3477,7.4728,7.5811,7.6893,7.8179,7.845,7.8889,8.0344,8.1012,8.1486,8.1968,8.2678,0.0,8.3456,8.3964,8.4343,8.458,8.5668,8.6536,8.6889,8.7998,8.9221,9.0404,9.0522,9.0888,9.1749,9.1803,9.1803,9.1803,9.1803,9.1803,9.1803,9.1803,9.1803,9.1803,9.2391,9.2831,9.3125,9.3675,9.3932,9.3932,9.3932,9.4373,9.5144,9.5144,9.5474,9.6025,9.6245,9.6502,9.6685,9.6685,9.6685,9.6685,9.6685,9.6685,9.6685,0.0,0.0,0.0,0.0,0.0,0.0,0.0,0.0,0.0,0.0,5.79,0.0,0.0,0.0,0.0,0.0,0.0,0.0,0.0,0.0,6.24,6.24,6.2685,6.3328,6.4343,6.5256,6.5831,6.6136,6.6576,6.6791,6.6791,6.6791,6.6791,6.6791,0.0,6.6791,0.0,0.0,6.696,6.7252,6.7252,6.7455,6.776,0.0,0.0,0.0,0.0,0.0,0.0,0.0,0.0,0.0,7.3591,7.4101,7.4423,7.365,7.3602,7.3708,7.3145,7.347,7.4221,7.5405,7.6521,7.7807,7.9566,7.9972,8.0209,8.1114,8.1791,8.2306,8.278,8.3456,0.0,8.3964,8.4309,8.4614,8.4614,8.5668,8.6414,8.6414,8.7468,8.8491,8.9185,8.9284,8.9579,9.0324,9.083,9.1097,9.1097,9.1528,9.1803,9.1803,9.1803,9.195,9.2317,9.2831,9.3418,9.4079,9.4556,9.4923,9.5217,9.4923,9.5217,9.5988,9.5988,9.6245,9.6685,9.6685,9.6685,9.6685,9.6685,9.6685,9.6685,9.6685,9.6685,9.6685,0.0,0.0,0.0,0.0,0.0,0.0,0.0,0.0,0.0,0.0,5.7967,5.8001,0.0,0.0,0.0,0.0,0.0,0.0,0.0,0.0,6.24,6.24,6.3159,6.4275,6.5683,6.5784,6.6136,6.6791,6.6791,6.6791,6.6791,6.6791,6.6825,6.6893,0.0,6.6927,6.6994,6.6994,6.7451,6.8167,6.8167,6.8574,6.9231,6.9298,0.0,0.0,0.0,0.0,0.0,0.0,0.0,0.0,7.3576,7.4885,7.6664,7.472,7.4704,7.507,7.4101,7.4261,7.4897,7.5709,7.7096,7.8846,8.0843,8.1418,8.152,8.152,8.2577,8.3524,8.3592,8.4167,8.4614,8.4614,8.4614,8.4614,8.4614,8.554,8.6252,8.6252,8.7187,8.7906,8.802,8.8043,8.8088,8.8178,8.9278,8.9899,8.9842,9.0984,9.1638,9.1638,9.184,9.2281,9.3088,9.3235,9.4042,9.5492,9.5565,9.5988,9.6685,9.5932,9.6025,9.6685,9.6685,9.6685,9.6685,9.6685,9.6685,9.6685,9.6685,9.6685,9.6685,9.6685,9.6685,9.6685,0.0,0.0,0.0,0.0,0.0,0.0,0.0,0.0,0.0,0.0,0.0,0.0,0.0,0.0,0.0,0.0,0.0,0.0,0.0,0.0,6.24,6.24,6.3666,6.4783,6.5683,6.6271,6.6622,6.6791,6.6791,6.6791,6.6791,0.0,0.0,6.7658,0.0,6.803,6.8605,6.8605,6.9139,7.0001,7.0001,7.0104,7.0346,7.0912,7.1236,0.0,0.0,0.0,0.0,0.0,0.0,0.0,7.4794,7.5048,7.4702,7.3492,7.3647,7.4128,7.3705,7.4498,7.5777,7.7164,7.9083,8.0708,8.1215,8.2171,8.3016,8.3016,8.3287,8.3693,8.4242,8.4478,8.4614,8.4614,8.4614,8.4614,8.4614,8.4811,8.4995,8.4995,8.5222,8.5735,8.6696,8.6793,8.7163,8.8133,8.8446,8.8579,8.8579,8.9724,9.0384,9.0384,9.1981,9.2905,9.3088,9.4354,9.5161,9.5492,9.6135,9.6539,9.6685,9.6539,9.6539,9.6685,9.6685,9.6685,9.6685,9.6685,9.6685,9.6685,9.6685,9.6685,9.6685,9.6685,9.6685,9.6685,0.0,0.0,0.0,0.0,0.0,0.0,0.0,0.0,0.0,0.0,0.0,0.0,0.0,0.0,0.0,0.0,0.0,0.0,0.0,0.0,0.0,6.3429,6.4512,6.5459,6.6203,6.6609,6.6791,6.6791,6.7151,6.7354,0.0,0.0,0.0,6.847,0.0,6.8707,6.9122,6.9612,7.0056,7.0511,7.1464,7.1772,0.0,0.0,7.2674,7.2359,7.3213,0.0,0.0,0.0,0.0,0.0,0.0,0.0,7.4248,7.4091,7.4231,7.4463,7.4701,7.5512,7.6623,7.8145,7.9904,8.1418,8.1731,8.2678,8.3592,8.3964,8.4031,8.414,8.4512,8.4614,8.4614,8.4614,8.4614,8.4614,8.4614,8.4614,8.4614,8.4614,8.4614,8.4838,8.5464,8.554,8.5786,8.6414,8.7008,8.7585,8.8156,8.9348,9.0465,9.1431,9.2515,9.3492,9.4244,9.5088,9.5675,9.6098,9.6502,9.6685,9.6685,9.6685,9.6685,9.6685,9.6685,9.6685,9.6685,9.6685,9.6685,9.6685,9.6685,9.6685,9.6685,9.6685,9.6685,9.6685,0.0,0.0,0.0,0.0,0.0,0.0,0.0,0.0,0.0,0.0,0.0,0.0,0.0,0.0,0.0,0.0,0.0,0.0,0.0,0.0,0.0,6.4715,6.5358,6.6034,6.6757,6.6791,6.6859,6.7015,6.759,0.0,0.0,0.0,0.0,6.9282,0.0,6.935,6.955,7.036,7.0787,7.1046,7.2707,0.0,0.0,0.0,0.0,0.0,7.4253,7.4442,7.4215,7.3733,0.0,0.0,0.0,0.0,7.4621,7.5038,7.509,7.5193,7.6058,7.677,7.7604,7.8957,8.0412,8.1629,8.2272,8.3084,8.3862,8.4478,8.4614,8.4614,8.4614,8.4614,8.4614,8.4614,8.4614,8.4614,8.4614,8.4614,8.4614,8.4614,8.4614,8.4614,8.4614,8.4614,8.4614,8.4614,8.571,8.6841,8.7838,8.9371,9.1007,9.2735,9.3252,9.4134,9.5492,9.5639,9.6061,9.6685,9.6685,9.6685,9.6685,9.6685,9.6685,9.6685,9.6685,9.6685,9.6685,9.6685,9.6685,9.6685,9.6685,9.6685,9.6685,9.6685,9.6685,9.6685,0.0,0.0,0.0,0.0,0.0,0.0,0.0,0.0,0.0,0.0,6.0655,0.0,0.0,0.0,0.0,0.0,0.0,0.0,6.24,0.0,0.0,6.5514,6.5649,6.6034,6.6757,6.6791,6.7117,6.776,0.0,0.0,0.0,0.0,0.0,7.0026,0.0,0.0,7.1007,7.1163,0.0,0.0,0.0,0.0,0.0,0.0,0.0,0.0,0.0,0.0,7.4535,7.6164,7.5737,0.0,0.0,0.0,7.5424,7.4447,7.4587,7.5297,7.6738,7.7957,7.9025,7.9837,8.1156,8.2272,8.2408,8.3464,8.4478,8.458,8.4614,8.4614,8.4614,8.4614,8.4614,8.4614,8.4614,8.4614,8.4614,8.4614,8.4614,8.4614,8.4614,8.4614,8.4614,8.4614,8.4614,8.4614,8.571,8.6488,8.6623,8.9497,9.1263,9.1514,9.3915,9.5272,9.5492,9.6208,9.6575,9.6685,9.6685,9.6685,9.6685,9.6685,9.6685,9.6685,9.6685,9.6685,9.6685,9.6685,9.6685,9.6685,9.6685,9.6685,9.6685,9.6685,9.6685,9.6685,0.0,0.0,0.0,0.0,0.0,0.0,0.0,0.0,0.0,0.0,0.0,0.0,0.0,0.0,0.0,6.24,6.24,6.2584,6.299,6.4106,6.5019,6.5683,6.6102,6.6474,6.6791,6.7218,6.759,6.7895,0.0,0.0,0.0,7.0297,7.05,0.0,0.0,0.0,0.0,0.0,0.0,0.0,0.0,0.0,0.0,0.0,0.0,0.0,0.0,0.0,0.0,0.0,7.5492,7.4196,7.365,0.0,0.0,0.0,7.4657,7.5972,7.7308,7.839,7.9397,8.0513,8.1596,8.2509,8.2915,8.3836,8.4614,8.4614,8.4614,8.4614,8.4614,8.4614,8.4614,8.4614,8.4614,8.4614,8.4614,8.4614,8.4614,8.4614,8.4614,8.4614,8.4614,8.4614,8.489,8.5566,8.6103,8.7008,8.8322,9.0264,9.1813,9.2935,9.4622,9.5712,9.6171,9.6539,9.6685,9.6685,9.6685,9.6685,9.6685,9.6685,9.6685,9.6685,9.6685,9.6685,9.6685,9.6685,9.6685,9.6685,9.6685,9.6685,9.6685,9.6685,9.6685,9.6685,0.0,0.0,0.0,0.0,0.0,0.0,0.0,0.0,0.0,0.0,0.0,0.0,0.0,0.0,0.0,0.0,6.255,6.3057,6.4005,6.5087,6.5784,6.5967,6.6508,6.6893,6.7083,6.7624,6.8098,6.847,0.0,0.0,7.05,7.1041,7.1289,0.0,7.2077,0.0,0.0,0.0,0.0,0.0,0.0,0.0,0.0,0.0,0.0,0.0,0.0,0.0,0.0,0.0,0.0,0.0,0.0,7.4437,0.0,0.0,0.0,7.731,7.8408,7.9059,7.9634,8.075,8.1731,8.2543,8.3084,8.3964,8.4614,8.4614,8.4614,8.4614,8.4614,8.4614,8.4614,8.4614,8.4614,8.4614,8.4614,8.4614,8.4614,8.4614,8.4614,8.4614,8.4614,8.4614,8.5092,8.6291,8.6672,8.7863,9.0192,9.141,9.2837,9.4538,9.5401,9.6098,9.6685,9.6685,9.6685,9.6685,9.6685,9.6685,9.6685,9.6685,9.6685,9.6685,9.6685,9.6685,9.6685,9.6685,9.6685,9.6685,9.6685,9.6685,9.6685,9.6685,9.6685,9.6685,0.0,0.0,0.0,0.0,0.0,0.0,0.0,0.0,0.0,0.0,0.0,0.0,0.0,6.24,6.24,6.24,6.3057,6.4072,6.5493,6.5683,6.6,6.669,6.6757,0.0,6.7827,6.7895,6.8605,7.0082,7.0184,0.0,7.1222,7.1289,7.1289,7.1312,7.1356,7.1873,7.2714,0.0,0.0,0.0,0.0,0.0,0.0,0.0,0.0,0.0,0.0,0.0,0.0,0.0,0.0,0.0,0.0,0.0,0.0,0.0,0.0,0.0,8.042,8.0388,8.0175,8.0242,8.1359,8.2382,8.2475,8.3565,8.4614,8.4614,8.4614,8.4614,8.4614,8.4614,8.4614,8.4614,8.4614,8.4614,8.4614,8.4614,8.4614,8.4614,8.4614,8.4614,8.4614,8.4614,8.5092,8.6291,8.7445,8.9023,9.114,9.3105,9.4537,9.5418,9.6208,9.6649,9.6685,9.6685,9.6685,9.6685,9.6685,9.6685,9.6685,9.6685,9.6685,9.6685,9.6685,9.6685,9.6685,9.6685,9.6685,9.6685,9.6685,9.6685,9.6685,9.6685,9.6685,9.6685,0.0,0.0,0.0,0.0,0.0,0.0,0.0,0.0,0.0,0.0,0.0,0.0,0.0,6.2821,6.3125,6.3125,6.4208,6.5121,6.5683,6.6136,6.6542,6.6791,6.7252,6.7624,6.7895,6.8876,6.9654,7.0217,7.0669,7.1041,7.1312,7.1982,7.2257,7.23,7.2941,7.3084,7.2941,7.4867,0.0,0.0,0.0,0.0,0.0,0.0,0.0,0.0,0.0,0.0,0.0,0.0,0.0,0.0,0.0,0.0,0.0,0.0,8.0521,8.0713,8.0786,8.1053,8.1204,8.0978,8.1663,8.2543,8.3016,8.387,8.4614,8.4614,8.4614,8.4614,8.4614,8.4614,8.4614,8.4614,8.4614,8.4614,8.4614,8.4614,8.4614,8.4614,8.4614,8.4614,8.4614,8.4614,8.5421,8.7398,8.801,8.9471,9.2317,9.3635,9.4666,9.5455,9.6282,9.6685,9.6685,9.6685,9.6685,9.6685,9.6685,9.6685,9.6685,9.6685,9.6685,9.6685,9.6685,9.6685,9.6685,9.6685,9.6685,9.6685,9.6685,9.6685,9.6685,9.6685,9.7016,9.7456,0.0,0.0,0.0,0.0,0.0,0.0,0.0,0.0,0.0,0.0,0.0,0.0,0.0,0.0,6.3951,6.4241,6.5121,6.5818,6.6034,6.6542,6.6893,6.7163,6.7658,6.8132,6.8639,6.9676,7.0297,7.0567,7.1406,7.1786,7.183,7.2818,7.3292,7.3352,7.4348,7.4442,0.0,0.0,0.0,7.6297,0.0,0.0,7.6749,0.0,0.0,0.0,0.0,0.0,0.0,0.0,0.0,0.0,0.0,0.0,0.0,0.0,0.0,8.1788,8.2204,8.2387,8.2302,8.1645,8.2535,8.3615,8.3712,8.4498,8.5188,8.5188,8.489,8.4614,8.4614,8.4614,8.4614,8.4614,8.4614,8.4614,8.4614,8.4614,8.4614,8.4614,8.4614,8.4766,8.517,8.5188,8.6202,8.8623,8.8855,9.0243,9.3325,9.4006,9.4777,9.5878,9.6428,9.6685,9.6685,9.6685,9.6685,9.6685,9.6685,9.6685,9.6685,9.6685,9.6685,9.6685,9.6685,9.6685,9.6685,9.6685,9.6685,9.6722,9.7016,9.7089,9.7126,9.7419,9.7823,9.83,0.0,0.0,0.0,0.0,0.0,0.0,0.0,0.0,0.0,0.0,0.0,0.0,0.0,0.0,0.0,6.5683,6.5751,6.6034,6.6757,6.6825,6.7151,6.7861,6.7929,6.8673,7.0184,7.0239,7.0612,7.1356,7.2364,7.2838,7.2859,7.385,7.4329,7.4385,7.5405,7.5821,7.5821,0.0,7.6432,7.7362,0.0,7.7839,7.8626,0.0,0.0,0.0,7.9511,7.9245,0.0,0.0,0.0,0.0,0.0,0.0,0.0,0.0,0.0,0.0,0.0,0.0,0.0,8.2209,8.3952,8.5614,8.4506,8.5378,8.6463,8.6463,8.5515,8.4686,8.466,8.4686,8.4686,8.466,8.4606,8.4614,8.4614,8.4614,8.4606,8.4633,8.466,8.5144,8.634,8.6463,8.7445,8.9842,9.0006,9.1248,9.4152,9.4336,9.507,9.6649,9.6685,9.6685,9.6685,9.6685,9.6685,9.6685,9.6685,9.6685,9.6685,9.6685,9.6685,9.6685,9.6685,9.6685,9.6685,9.6685,9.6722,9.6795,9.7603,9.7897,9.8007,9.8814,9.9125,9.9145,0.0,0.0,0.0,0.0,0.0,0.0,0.0,0.0,0.0,0.0,0.0,0.0,0.0,0.0,0.0,6.644,6.6508,6.6576,6.6791,6.732,6.7692,6.7895,6.8977,6.9777,7.0184,7.1452,7.2165,7.2406,7.3392,7.3905,7.3889,7.4903,0.0,0.0,7.6449,7.6909,7.6909,7.6909,0.0,0.0,7.8259,7.8736,0.0,0.0,0.0,0.0,0.0,8.2588,0.0,0.0,8.3581,8.3948,0.0,0.0,0.0,0.0,0.0,0.0,8.5232,0.0,0.0,0.0,0.0,0.0,8.5502,8.6609,8.77,8.77,8.7457,8.6937,8.6053,8.6634,8.6913,8.6028,8.517,8.4614,8.4614,8.4614,8.4917,8.5811,8.5877,8.6365,8.7585,8.77,8.8357,0.0,9.0042,9.1321,9.4152,9.5401,9.6245,9.6685,9.6685,9.6685,9.6685,9.6685,9.6685,9.6685,9.6685,9.6685,9.6685,9.6685,9.6685,9.6685,9.6685,9.6685,9.6685,9.6685,9.7052,9.7566,9.7787,9.8264,9.8778,9.9035,9.9475,9.9989,0.0,0.0,0.0,0.0,0.0,0.0,0.0,0.0,0.0,0.0,0.0,0.0,0.0,0.0,0.0,0.0,6.7083,6.7252,6.7252,6.7996,6.8538,6.8842,6.9722,7.0539,7.1255,7.2291,7.3023,7.3432,7.4423,7.4922,7.494,0.0,0.0,0.0,0.0,0.0,0.0,0.0,0.0,0.0,7.8956,0.0,0.0,8.1305,8.2223,0.0,0.0,0.0,8.4609,8.4609,8.4829,0.0,0.0,0.0,0.0,0.0,0.0,0.0,0.0,0.0,0.0,0.0,0.0,0.0,8.7205,8.8114,8.8985,8.8985,8.8557,8.7975,8.7258,8.7723,8.7975,8.7293,8.6561,8.6078,8.6078,8.6078,8.634,8.708,8.714,8.7631,8.8819,8.8985,8.9489,9.0657,9.0791,9.1826,9.4171,9.5841,9.6685,9.6685,9.6685,9.6685,9.6685,9.6685,9.6685,9.6685,9.6685,9.6685,9.6685,9.6685,9.6685,9.6685,9.6685,9.6906,9.7199,9.7199,9.7456,9.797,9.8631,9.9181,9.9659,9.9989,10.0393,10.0796,0.0,0.0,0.0,0.0,0.0,0.0,0.0,0.0,0.0,0.0,0.0,0.0,0.0,0.0,0.0,0.0,6.759,6.803,6.803,6.8774,0.0,0.0,0.0,0.0,0.0,7.307,7.3556,7.446,7.5475,7.5976,7.5993,0.0,0.0,0.0,0.0,0.0,0.0,0.0,0.0,7.9066,7.9779,8.0991,0.0,0.0,8.3471,0.0,8.4829,8.4939,8.5013,8.5123,8.56,0.0,0.0,0.0,0.0,0.0,8.6978,0.0,0.0,0.0,0.0,0.0,0.0,0.0,8.9141,8.9721,9.026,9.0224,8.9348,8.8557,8.8424,8.8513,8.8557,8.8424,8.8513,8.8513,8.8223,8.8201,8.8246,8.838,8.8402,8.8863,9.0067,9.026,9.0693,9.1712,9.195,9.2721,9.4226,9.5841,9.6685,9.6685,9.6685,9.6685,9.6685,9.6685,9.6685,9.6685,9.6685,9.6685,9.6685,9.6685,9.6685,9.6685,9.6685,9.7163,9.7916,9.8007,9.81,9.832,9.9732,10.0393,10.0503,10.12,10.1514,10.1514,0.0,0.0,0.0,0.0,0.0,0.0,0.0,0.0,0.0,0.0,0.0,0.0,0.0,0.0,0.0,0.0,0.0,6.8876,0.0,0.0,0.0,0.0,0.0,0.0,0.0,0.0,7.5298,7.551,7.6514,7.7003,7.7003,0.0,0.0,0.0,0.0,0.0,0.0,0.0,0.0,8.1489,8.1689,0.0,8.3308,8.4609,8.527,8.5637,8.6297,8.6958,8.7619,0.0,8.8556,8.8592,0.0,0.0,0.0,0.0,0.0,0.0,0.0,0.0,0.0,0.0,0.0,0.0,9.0283,9.0905,9.1454,9.1454,9.1249,9.0793,8.9842,9.0424,9.0774,8.9822,9.0463,9.0404,8.8468,8.8201,8.8557,8.9537,8.9677,9.02,9.1342,9.1454,9.1565,9.1785,9.3051,9.3932,9.4263,9.5841,9.6685,9.6685,9.6685,9.6685,9.6685,9.6685,9.6685,9.6685,9.6685,9.6685,9.6685,9.6685,9.6685,9.6685,9.6685,9.7163,9.7953,9.8594,9.9255,9.9842,10.0209,10.0686,10.1294,10.1384,10.1514,10.1514,0.0,0.0,0.0,0.0,0.0,0.0,0.0,0.0,0.0,0.0,0.0,0.0,0.0,0.0,0.0,0.0,0.0,0.0,0.0,0.0,0.0,0.0,0.0,0.0,0.0,0.0,0.0,7.6547,7.7051,7.7289,0.0,0.0,0.0,0.0,0.0,0.0,0.0,0.0,8.2663,8.3398,8.3398,0.0,8.4719,8.593,8.6664,8.7105,8.7895,8.8445,8.8849,8.9253,8.94,0.0,0.0,8.8776,8.8702,0.0,8.8189,8.8189,0.0,0.0,0.0,8.9307,0.0,0.0,0.0,9.151,9.1803,9.1803,9.1803,9.162,9.1003,9.1398,9.1602,9.0984,9.1416,9.1379,9.0184,8.9986,9.0244,9.0849,9.0943,9.119,9.173,9.1803,9.1803,9.1803,9.3345,9.4299,9.4299,9.5841,9.6685,9.6685,9.6685,9.6685,9.6685,9.6685,9.6685,9.6685,9.6685,9.6685,9.6685,9.6685,9.6685,9.6685,9.6685,9.7383,9.8521,9.8924,9.9805,10.0907,10.0907,10.109,10.1514,10.1514,10.1514,10.1514,0.0,0.0,0.0,0.0,0.0,0.0,0.0,0.0,0.0,0.0,0.0,0.0,0.0,0.0,0.0,0.0,0.0,0.0,0.0,0.0,0.0,0.0,0.0,7.5048,0.0,0.0,0.0,7.7289,7.7289,7.7399,7.7546,0.0,0.0,0.0,0.0,0.0,8.2223,0.0,0.0,8.5086,0.0,8.56,8.6114,8.6921,8.7729,8.8536,8.9326,8.962,8.9657,8.9803,0.0,8.984,8.9693,8.962,0.0,0.0,0.0,0.0,0.0,0.0,0.0,0.0,0.0,9.0996,0.0,0.0,0.0,9.1803,9.1803,9.1803,9.1803,9.1803,9.1693,9.14,9.1583,9.1693,9.1363,9.1583,9.1803,9.1803,9.1803,9.1803,9.1803,9.1803,9.1803,9.1803,9.3198,9.4153,9.4299,9.5694,9.6539,9.6685,9.6685,9.6685,9.6685,9.6685,9.6685,9.6685,9.6685,9.6685,9.6685,9.6685,9.6685,9.6685,9.6685,9.7603,9.9108,9.9108,9.9989,10.1514,10.1514,10.1514,10.1514,10.1514,10.1514,10.1514,6.6812,6.6724,0.0,0.0,0.0,0.0,0.0,0.0,0.0,6.8842,0.0,0.0,0.0,0.0,0.0,0.0,0.0,0.0,7.2444,0.0,0.0,0.0,0.0,0.0,7.7134,0.0,0.0,7.7289,7.7289,7.7693,7.8442,0.0,0.0,0.0,8.1175,0.0,0.0,0.0,8.5894,0.0,8.7509,8.7435,0.0,8.7766,8.8573,8.9363,9.017,9.0482,9.0592,0.0,9.1546,9.14,0.0,9.0482,0.0,0.0,0.0,0.0,0.0,0.0,0.0,0.0,9.1143,0.0,0.0,0.0,9.1803,9.1803,0.0,9.1803,9.1803,0.0,0.0,8.9913,9.0886,9.1289,8.9877,9.0922,9.1803,9.1803,9.1803,9.1803,9.1803,9.1803,9.1803,9.1803,9.2684,9.3565,9.4263,9.5144,9.5951,9.6685,9.6685,9.6685,9.6685,9.6685,9.6685,9.6685,9.6685,9.6685,9.6685,9.6685,9.6685,9.6685,9.6685,9.7603,9.9108,9.9108,9.9989,10.1514,10.1514,10.1514,10.1514,10.1514,10.1514,10.1514,0.0,6.7827,0.0,0.0,0.0,0.0,0.0,0.0,0.0,6.9113,0.0,0.0,0.0,0.0,0.0,0.0,0.0,0.0,0.0,0.0,0.0,0.0,0.0,0.0,0.0,0.0,0.0,0.0,7.8075,7.8479,7.9302,0.0,0.0,0.0,8.2406,0.0,8.4389,0.0,8.6958,0.0,0.0,0.0,0.0,8.9454,9.0078,9.0849,9.1179,9.1289,9.1363,0.0,9.1803,0.0,0.0,0.0,0.0,0.0,0.0,0.0,0.0,0.0,0.0,0.0,0.0,0.0,0.0,0.0,9.1803,0.0,0.0,0.0,0.0,0.0,0.0,0.0,9.1363,9.1546,9.0886,9.1363,9.1803,9.1803,9.1803,9.1803,9.1803,9.1803,9.1803,9.1803,9.2611,9.3455,9.4263,9.507,9.5878,9.6685,9.6685,9.6685,9.6685,9.6685,9.6685,9.6685,9.6685,9.6685,9.6685,9.6685,9.6685,9.6685,9.6685,9.7603,9.9108,9.9108,9.9989,10.1514,10.1514,10.1514,10.1514,10.1514,10.1514,10.1514,0.0,0.0,0.0,0.0,0.0,0.0,0.0,0.0,0.0,0.0,0.0,0.0,7.05,7.0973,0.0,0.0,0.0,7.2236,0.0,0.0,7.5174,0.0,0.0,0.0,0.0,0.0,0.0,7.8919,7.8919,7.9449,8.0477,8.1048,0.0,0.0,0.0,8.4829,8.6187,0.0,8.7912,8.8904,8.9473,9.0207,9.0922,9.0922,9.1289,9.1803,9.1803,9.1803,9.1803,9.1803,9.1803,0.0,9.1803,0.0,0.0,0.0,0.0,0.0,9.1803,0.0,0.0,0.0,0.0,0.0,0.0,0.0,0.0,0.0,0.0,0.0,0.0,0.0,0.0,0.0,0.0,9.1657,9.1216,9.151,9.1803,9.1803,9.1803,9.1803,9.1803,9.1803,9.1803,9.1803,9.2391,9.3088,9.3932,9.474,9.5547,9.6355,9.6575,9.6685,9.6685,9.6685,9.6685,9.6685,9.6685,9.6685,9.6685,9.6685,9.6685,9.6685,9.6685,9.7603,9.9108,9.9108,9.9989,10.1514,10.1514,10.1514,10.1514,10.1514,10.1514,10.1514,7.015,6.9553,0.0,0.0,0.0,0.0,0.0,0.0,0.0,0.0,0.0,0.0,0.0,0.0,0.0,0.0,0.0,7.3576,7.558,0.0,7.6214,0.0,0.0,0.0,0.0,0.0,0.0,0.0,0.0,8.0587,8.2113,8.215,8.2994,0.0,8.5343,8.6187,8.7014,8.7839,8.9087,9.0519,9.0555,9.1033,9.1767,0.0,9.1767,9.1803,9.1803,0.0,0.0,9.1803,9.1803,0.0,0.0,0.0,0.0,0.0,0.0,0.0,0.0,0.0,0.0,9.1803,0.0,0.0,0.0,0.0,9.1803,0.0,0.0,0.0,0.0,0.0,0.0,0.0,0.0,0.0,0.0,9.0812,9.1803,9.1803,9.1803,9.1803,9.1803,9.1803,9.1803,9.1803,9.184,9.2207,9.3088,9.3896,9.4703,9.5492,9.6282,9.6685,9.6685,9.6685,9.6685,9.6685,9.6685,9.6685,9.6685,9.6685,9.6685,9.6685,9.6685,9.7603,9.9108,9.9108,9.9989,10.1514,10.1514,10.1514,10.1514,10.1514,10.1514,10.1514,0.0,0.0,0.0,0.0,0.0,0.0,0.0,7.1289,0.0,0.0,0.0,0.0,0.0,0.0,7.171,0.0,0.0,7.3635,7.5666,7.5787,0.0,0.0,0.0,7.8552,0.0,0.0,0.0,0.0,0.0,8.2186,8.3801,8.4315,8.5159,8.6207,0.0,8.7839,0.0,0.0,0.0,0.0,0.0,9.1546,9.1803,0.0,0.0,9.1803,9.1803,9.1803,0.0,9.1803,9.1803,9.1803,9.1803,9.1803,9.1803,9.1803,9.1803,0.0,0.0,0.0,9.1803,9.1803,0.0,0.0,0.0,0.0,0.0,0.0,0.0,0.0,0.0,0.0,0.0,0.0,0.0,0.0,0.0,9.1473,9.1803,9.1803,9.1803,0.0,9.1803,9.1803,9.1803,9.1803,9.1803,9.217,9.3051,9.3859,9.4666,9.5455,9.6282,9.6685,9.6685,9.6685,9.6685,9.6685,9.6685,9.6685,9.6685,9.6685,9.6685,9.6685,9.6685,9.7603,9.9108,9.9108,9.9989,10.1514,10.1514,10.1514,10.1514,10.1514,10.1514,10.1514,7.1289,0.0,0.0,0.0,0.0,0.0,0.0,0.0,0.0,0.0,7.1289,0.0,7.1289,0.0,7.2215,0.0,7.3655,7.4698,7.6682,7.6819,0.0,7.8977,7.9045,0.0,0.0,0.0,0.0,0.0,0.0,8.3728,8.5049,8.5857,8.6664,8.7455,8.828,8.9069,8.984,9.0391,9.0776,0.0,0.0,9.1803,0.0,0.0,9.1803,9.1803,0.0,9.1803,9.1803,9.1803,9.1803,9.1803,9.1803,9.1803,9.1803,9.1803,9.1803,9.1803,9.1803,9.1803,0.0,9.1803,9.1803,0.0,9.1803,0.0,0.0,0.0,0.0,0.0,0.0,0.0,0.0,0.0,0.0,0.0,0.0,9.1803,9.1803,9.1803,9.1803,0.0,0.0,9.1803,9.1803,9.1803,9.1803,9.206,9.2611,9.3675,9.452,9.507,9.6135,9.6685,9.6685,9.6685,9.6685,9.6685,9.6685,9.6685,9.6685,9.6685,9.6685,9.6685,9.6685,9.7603,9.9108,9.9108,9.9989,10.1514,10.1514,10.1514,10.1514,10.1514,10.1514,10.1514,0.0,0.0,0.0,0.0,7.288,0.0,0.0,0.0,7.1412,0.0,7.1412,7.1412,7.1379,7.2313,7.3342,7.4362,7.5335,0.0,7.8542,7.8699,0.0,0.0,7.9963,8.0697,8.226,0.0,0.0,0.0,0.0,0.0,8.5947,8.6738,8.7545,8.8353,8.9106,8.9913,9.0665,9.0665,9.1106,9.1803,9.1803,9.1803,9.1803,9.1803,9.1803,9.1803,9.1803,9.1803,9.1803,9.1803,9.1803,9.1803,9.1803,9.1803,9.1803,9.1803,9.1803,9.1803,9.1803,9.1803,9.1803,9.1803,0.0,0.0,0.0,0.0,9.1803,0.0,0.0,0.0,0.0,0.0,0.0,0.0,0.0,0.0,0.0,0.0,0.0,0.0,0.0,0.0,0.0,9.1803,9.1803,9.1803,9.1803,9.1803,0.0,9.3345,9.4263,9.4299,9.5804,9.6649,9.6685,9.6685,9.6685,9.6685,9.6685,9.6685,9.6685,9.6685,9.6685,9.6685,9.6685,9.7603,9.9108,9.9108,9.9989,10.1514,10.1514,10.1514,10.1514,10.1514,10.1514,10.1514,7.3532,7.412,7.4498,0.0,7.3908,7.3846,0.0,0.0,0.0,0.0,7.3064,7.3267,7.2498,7.3841,7.5217,7.6231,7.7089,0.0,0.0,0.0,0.0,8.1525,8.215,8.2957,8.3948,8.3985,0.0,8.549,0.0,0.0,8.7582,8.8409,8.9216,9.0005,9.0207,9.0739,9.1473,9.1473,9.162,9.1803,9.1803,9.1803,0.0,0.0,9.1803,9.1803,9.1803,9.1803,9.1803,9.1803,9.1803,9.1803,9.1803,9.1803,9.1803,9.1803,9.1803,9.1803,9.1803,9.1803,9.1803,9.1803,9.1803,9.1803,0.0,0.0,0.0,0.0,0.0,0.0,0.0,0.0,0.0,0.0,0.0,0.0,0.0,0.0,0.0,9.1803,0.0,0.0,9.1803,9.1803,9.1803,9.1803,9.1803,9.1803,9.1803,9.2831,9.3675,9.4263,9.529,9.6098,9.6685,9.6685,9.6685,9.6685,9.6685,9.6685,9.6685,9.6685,9.6685,9.6685,9.6685,9.7603,9.9108,9.9108,9.9989,10.1514,10.1514,10.1514,10.1514,10.1514,10.1514,10.1514,7.4291,0.0,0.0,7.5048,0.0,0.0,7.4423,0.0,0.0,7.3532,7.4229,0.0,7.4042,7.5609,7.6893,7.7465,7.8678,0.0,0.0,0.0,0.0,8.3214,8.3691,8.4462,8.5637,8.5637,0.0,8.7362,0.0,0.0,8.8739,8.9546,9.017,9.0629,9.0959,9.1363,9.1803,9.1803,9.1803,9.1803,9.1803,9.2024,0.0,9.2354,9.2574,9.2868,9.2868,9.2684,9.2317,9.1913,9.206,9.2281,9.1913,9.1803,9.1803,9.1803,9.1803,9.1803,9.1803,9.1803,9.1803,9.1803,9.1803,9.1803,9.1803,9.1803,9.1803,0.0,0.0,0.0,0.0,0.0,0.0,0.0,0.0,0.0,0.0,0.0,0.0,0.0,9.1803,9.1803,9.1803,9.1803,9.1803,9.1803,9.1803,9.1803,0.0,9.2648,9.3455,9.4263,9.507,9.5914,9.6685,9.6685,9.6685,9.6685,9.6685,9.6685,9.6685,9.6685,9.6685,9.6685,9.6685,9.7603,9.9108,9.9108,9.9989,10.1514,10.1514,10.1514,10.1514,10.1514,10.1514,10.1514,0.0,0.0,0.0,0.0,0.0,0.0,0.0,7.4951,0.0,7.4801,0.0,7.6019,7.5887,7.7577,7.8705,7.8705,0.0,8.1782,8.248,8.3287,8.4078,8.4903,8.5013,8.5783,8.7271,8.7308,0.0,0.0,0.0,0.0,8.9583,9.0391,9.0776,9.0812,9.1473,9.1803,9.1803,9.1803,9.1877,9.195,9.195,9.2501,9.3272,9.3272,9.3675,9.4299,9.4299,9.3859,9.3125,9.2391,9.2611,9.3125,9.2354,9.2134,9.2134,9.2134,9.2134,9.2097,9.1987,9.195,9.195,9.184,9.1803,9.1803,9.1803,9.1803,9.1803,9.1803,9.1803,9.1803,0.0,0.0,0.0,0.0,0.0,0.0,0.0,0.0,0.0,0.0,0.0,0.0,9.1803,9.1803,9.1803,9.1803,9.1803,9.1803,0.0,0.0,9.3345,9.4263,9.4997,9.5768,9.6685,9.6685,9.6685,9.6685,9.6685,9.6685,9.6685,9.6685,9.6685,9.6685,9.6685,9.7603,9.9108,9.9108,9.9989,10.1514,10.1514,10.1514,10.1514,10.1514,10.1514,10.1514,0.0,0.0,0.0,0.0,0.0,7.9228,7.8902,7.8269,7.7787,7.754,7.8402,7.8697,7.7828,7.999,8.1496,8.1496,8.3021,0.0,0.0,0.0,0.0,8.6537,8.7215,8.8023,8.8959,8.8996,8.9106,0.0,0.0,0.0,9.0391,9.1216,9.1583,9.1583,9.173,9.1803,9.1803,9.1803,0.0,9.2868,9.2868,9.3345,9.4079,9.4079,9.4189,9.4299,9.4299,9.4189,9.4079,9.3896,9.3969,9.4042,9.3896,9.3859,9.3859,9.3859,9.3859,9.3712,9.3051,9.2868,9.2721,9.1987,9.1803,9.1803,9.1803,9.1803,9.1803,9.1803,9.1803,9.1803,9.1803,0.0,0.0,0.0,0.0,0.0,0.0,0.0,0.0,0.0,0.0,9.1803,0.0,9.1803,9.1803,9.1803,0.0,0.0,0.0,0.0,9.2721,0.0,9.4446,9.5217,0.0,0.0,9.6685,9.6685,9.6685,9.6685,9.6685,9.6685,9.6685,9.6685,9.6685,9.7603,9.9108,9.9108,9.9989,10.1514,10.1514,10.1514,10.1514,10.1514,10.1514,10.1514,0.0,0.0,0.0,0.0,0.0,0.0,0.0,8.1342,0.0,7.9795,8.0475,8.1012,8.0925,8.2414,8.3434,8.3434,8.4535,8.5416,8.582,8.6591,8.7399,8.8189,8.8629,0.0,8.9987,0.0,9.0207,9.0629,0.0,0.0,0.0,0.0,9.1803,9.1803,9.1803,9.1803,9.184,0.0,0.0,9.3125,9.3565,9.4189,9.4923,9.4923,9.518,9.5547,9.5547,9.5547,9.5401,9.4593,9.4593,9.485,9.441,9.4299,9.4299,9.4299,9.4299,9.4226,9.3822,9.3712,9.3602,9.3198,9.2794,9.2464,9.2464,9.2134,9.1803,9.1803,9.1803,9.1803,9.1803,9.1803,0.0,0.0,0.0,0.0,0.0,0.0,0.0,0.0,0.0,0.0,0.0,0.0,0.0,0.0,0.0,0.0,0.0,0.0,9.2574,0.0,0.0,0.0,9.6685,0.0,9.6685,9.6685,9.6685,9.6685,9.6685,9.6685,9.6685,9.6685,9.6685,9.7603,9.9181,9.9989,10.0796,10.1514,10.1514,10.1514,10.1514,10.1514,10.1514,10.1514,0.0,8.0587,0.0,0.0,8.1782,0.0,8.3454,8.3638,8.3197,8.1929,8.2333,8.2957,8.3601,8.4535,8.5123,8.5123,8.6004,8.6848,8.7455,8.8096,8.883,8.962,8.9657,9.0024,9.0849,9.0849,9.1179,0.0,0.0,0.0,0.0,0.0,9.1803,9.1803,9.1987,9.206,0.0,0.0,9.3455,9.3675,9.4299,9.5034,9.5749,9.5749,9.6171,9.6685,9.6685,9.6685,9.6502,9.5217,9.5217,9.5639,9.4997,9.4813,9.4813,9.4813,9.4813,9.4777,9.4593,9.4556,9.452,9.4336,9.3822,9.3345,9.3345,9.2684,9.206,9.206,9.1913,9.1803,9.1803,9.1803,0.0,0.0,0.0,0.0,0.0,0.0,0.0,0.0,0.0,0.0,0.0,0.0,0.0,0.0,0.0,0.0,9.1803,0.0,0.0,0.0,0.0,9.507,9.6685,0.0,9.6685,9.6685,9.6685,9.6685,9.6685,9.6685,9.6685,9.6685,9.6685,9.7603,9.9218,10.0796,10.1514,10.1514,10.1514,10.1514,10.1514,10.1514,10.1514,10.1514,0.0,0.0,0.0,0.0,0.0,0.0,8.4462,8.4499,8.4425,8.4278,8.4315,8.4389,8.4499,8.5857,8.6757,8.6757,8.8189,8.9106,8.9179,8.9253,8.9657,9.0427,9.0482,9.0849,9.1657,9.1693,9.173,0.0,0.0,0.0,0.0,0.0,0.0,0.0,0.0,0.0,0.0,9.3822,9.4593,9.5272,9.5345,9.5878,9.6575,9.6575,9.6649,9.6685,9.6685,9.6685,9.6685,9.6539,9.6539,9.6575,9.6502,9.6465,9.6465,9.6465,9.6465,9.6318,9.5584,9.5382,9.5217,9.4483,9.4226,9.4189,9.4189,9.3565,9.2978,9.2978,9.2354,9.1803,9.1803,9.1803,9.1803,0.0,0.0,0.0,0.0,0.0,0.0,0.0,0.0,0.0,0.0,9.1803,0.0,0.0,9.1803,0.0,0.0,0.0,0.0,9.4226,9.4299,9.507,9.6685,9.6685,9.6685,9.6685,9.6685,9.6685,9.6685,9.6685,9.6685,9.6685,9.6685,9.7603,9.9218,10.0796,10.1514,10.1514,10.1514,10.1514,10.1514,10.1514,10.1514,10.1514,0.0,0.0,0.0,0.0,0.0,0.0,0.0,8.7491,8.7491,8.7491,8.6647,8.639,8.7381,8.8042,8.8445,8.8445,8.9033,8.9583,9.0097,9.0097,9.0464,9.1289,9.1326,9.1473,9.1803,9.1803,9.1803,0.0,0.0,0.0,0.0,0.0,0.0,0.0,0.0,9.3382,9.3859,9.4666,9.5217,9.5528,9.6025,9.6428,9.6685,9.6685,9.6685,9.6685,9.6685,9.6685,9.6685,9.6685,9.6685,9.6685,9.6685,9.6685,9.6685,9.6685,9.6685,9.6649,9.6318,9.6208,9.6135,9.5804,9.5364,9.5016,9.5034,9.441,9.3822,9.3822,9.3161,9.2427,9.1913,9.1803,9.1803,0.0,0.0,0.0,0.0,0.0,0.0,0.0,0.0,0.0,0.0,0.0,0.0,0.0,0.0,0.0,0.0,0.0,0.0,9.4263,0.0,9.5547,9.6685,9.6685,9.6685,9.6685,9.6685,9.6685,9.6685,9.6685,9.6685,9.6759,9.7713,9.8521,9.9218,10.0796,10.1514,10.1514,10.1514,10.1514,10.1514,10.1514,10.1514,10.1514,8.6004,0.0,8.7031,0.0,8.8206,8.8739,8.9326,8.94,8.9473,8.973,8.8739,8.8409,8.929,8.962,8.9767,8.9767,8.995,9.0354,9.0922,9.0959,9.1216,9.1767,9.1803,0.0,9.1803,9.1803,9.1803,9.1803,9.1803,0.0,0.0,0.0,0.0,0.0,9.3712,9.4116,9.4703,9.5511,9.5859,9.5914,9.6465,9.6685,9.6685,9.6685,9.6685,9.6685,9.6685,9.6685,9.6685,9.6685,9.6685,9.6685,9.6685,9.6685,9.6685,9.6685,9.6685,9.6685,9.6685,9.6685,9.6685,9.6685,9.6282,9.5841,9.5841,9.5217,9.4593,9.4336,9.3859,9.3198,9.2354,9.217,9.2097,9.184,0.0,0.0,0.0,0.0,0.0,0.0,0.0,9.1803,9.1803,9.1803,0.0,0.0,0.0,0.0,0.0,0.0,0.0,0.0,0.0,0.0,9.6685,9.6685,9.6685,9.6685,9.6685,9.6685,9.6685,9.6685,9.6685,9.6795,9.8411,9.9108,9.9218,10.0796,10.1514,10.1514,10.1514,10.1514,10.1514,10.1514,10.1514,10.1514,8.9326,8.9363,8.9363,8.9363,8.9363,8.94,8.94,8.94,8.9693,9.0464,9.0592,9.0244,8.9473,9.0097,9.0592,9.0592,9.1326,9.1767,9.1767,9.1803,9.1803,0.0,0.0,9.1803,9.1803,9.1803,9.1803,9.1803,0.0,0.0,9.1803,0.0,9.3529,9.4299,9.5144,9.5455,9.5528,9.6355,9.6685,9.6685,9.6685,9.6685,9.6685,9.6685,9.6685,9.6685,9.6685,9.6685,9.6685,9.6685,9.6685,9.6685,9.6685,9.6685,9.6685,9.6685,9.6685,9.6685,9.6685,9.6685,9.6685,9.6685,9.6685,9.6685,9.6685,9.6061,9.5254,9.4446,9.4299,9.4042,9.3235,9.3088,9.2794,9.195,0.0,0.0,0.0,0.0,0.0,0.0,9.1803,9.1803,9.1803,9.1803,0.0,0.0,0.0,0.0,0.0,0.0,0.0,9.4263,9.507,0.0,9.6685,9.6685,9.6685,9.6685,9.6685,9.6685,9.6685,9.6685,9.6685,9.6795,9.8411,9.9108,9.9218,10.0796,10.1514,10.1514,10.1514,10.1514,10.1514,10.1514,10.1514,10.1514,8.94,8.984,9.0207,9.0207,9.0665,9.1033,9.1033,9.1033,9.1143,9.1363,9.1436,9.1326,9.1069,9.1253,9.1436,0.0,9.1657,9.1803,0.0,9.1803,9.1803,9.1803,9.1803,9.1803,9.1803,9.1803,9.2097,9.2684,0.0,0.0,0.0,9.3786,9.4336,9.5144,9.5382,9.5785,9.6318,9.6575,9.6685,9.6685,9.6685,9.6685,9.6685,9.6685,9.6685,9.6685,9.6685,9.6685,9.6685,9.6685,9.6685,9.6685,9.6685,9.6685,9.6685,9.6685,9.6685,9.6685,9.6685,9.6685,9.6685,9.6685,9.6685,9.6685,9.6685,9.6502,9.6098,9.529,9.5144,9.4887,9.4079,9.3932,9.3639,9.2831,9.2684,0.0,0.0,0.0,0.0,0.0,9.1803,9.1803,0.0,9.1803,0.0,0.0,0.0,0.0,0.0,0.0,0.0,0.0,9.5914,0.0,9.6685,9.6685,9.6685,9.6685,9.6685,9.6685,9.6685,9.6685,9.6685,9.6795,9.8411,9.9108,9.9218,10.0796,10.1514,10.1514,10.1514,10.1514,10.1514,10.1514,10.1514,10.1514,9.028,9.0702,9.1069,9.1069,9.1473,9.1803,9.1803,9.1803,9.1803,9.1803,9.1803,9.1803,9.1803,9.1803,0.0,9.1803,9.1803,9.1803,9.1803,9.1803,9.1803,9.1803,9.2097,9.2281,9.2281,9.2574,0.0,9.3565,9.3565,9.3969,9.474,9.474,9.518,9.5951,9.5951,9.6245,9.6685,9.6685,9.6685,9.6685,9.6685,9.6685,9.6685,9.6685,9.6685,9.6685,9.6685,9.6685,9.6685,9.6685,9.6685,9.6685,9.6685,9.6685,9.6685,9.6685,9.6685,9.6685,9.6685,9.6685,9.6685,9.6685,9.6685,9.6685,9.6685,9.6685,9.6575,9.6061,9.5951,9.5694,9.4887,9.474,9.4483,9.3675,9.3565,9.3345,9.2831,0.0,0.0,0.0,0.0,0.0,0.0,9.2721,9.2941,0.0,0.0,0.0,0.0,0.0,0.0,9.5455,9.6282,0.0,9.6685,9.6685,9.6685,9.6685,9.6685,9.6685,9.6685,9.6685,9.6685,9.6795,9.8411,9.9108,9.9218,10.0796,10.1514,10.1514,10.1514,10.1514,10.1514,10.1514,10.1514,10.1514,9.1803,9.1803,9.1803,0.0,9.1803,9.1803,9.1803,9.1803,9.1803,9.1803,9.184,9.1877,9.1877,9.195,9.195,9.195,0.0,0.0,0.0,9.1877,9.1913,9.195,9.2758,9.3198,9.3198,9.3932,9.4336,9.4373,9.4446,9.485,9.5565,9.5565,9.5988,9.6685,9.6685,9.6685,9.6685,9.6685,9.6685,9.6685,9.6685,9.6685,9.6685,9.6685,9.6685,9.6685,9.6685,9.6685,9.6685,9.6685,9.6685,9.6685,9.6685,9.6685,9.6685,9.6685,9.6685,9.6685,9.6685,9.6685,9.6685,9.6685,9.6685,9.6685,9.6685,9.6685,9.6685,9.6685,9.6685,9.6465,9.5712,9.5565,9.5327,9.452,9.4373,9.4373,9.4299,0.0,0.0,0.0,0.0,0.0,0.0,9.4299,9.4299,0.0,0.0,0.0,0.0,0.0,9.5565,9.5565,9.6318,9.6685,9.6685,9.6685,9.6685,9.6685,9.6685,9.6685,9.6685,9.6685,9.6685,9.6795,9.8337,9.9071,9.9218,10.0796,10.1384,10.1514,10.1514,10.1514,10.1514,10.1514,10.1514,10.1514,0.0,0.0,9.1803,9.1803,9.1803,9.1803,9.1803,9.1803,9.1803,9.1803,9.2391,9.2794,9.2794,9.3345,9.3712,9.3712,9.2537,9.206,9.2758,9.2794,9.3051,9.3675,9.3896,9.4006,9.4006,9.4189,9.4593,9.5217,9.5841,9.6245,9.6428,9.6428,9.6539,9.6685,9.6685,9.6685,9.6685,9.6685,9.6685,9.6685,9.6685,9.6685,9.6685,9.6685,9.6685,9.6685,9.6685,9.6685,9.6685,9.6685,9.6685,9.6685,9.6685,9.6685,9.6685,9.6685,9.6685,9.6685,9.6685,9.6685,9.6685,9.6685,9.6685,9.6685,9.6685,9.6685,9.6685,9.6685,9.6685,9.6649,9.6465,9.6428,9.6171,9.5364,9.5217,9.4997,9.4373,9.4299,0.0,0.0,9.4299,9.4299,9.4299,9.4299,9.4556,0.0,0.0,0.0,9.6392,9.6428,9.6428,9.6428,9.6612,9.6685,9.6685,9.6685,9.6685,9.6685,9.6685,9.6685,9.6685,9.6685,9.6685,9.6759,9.775,9.8521,9.9162,10.0209,10.0907,10.1514,10.1514,10.1514,10.1514,10.1514,10.1514,10.1514,9.1803,9.1803,9.1803,9.1803,9.2134,9.2391,9.2391,9.2721,9.2941,9.2941,9.3345,9.3639,9.3639,9.4042,9.4299,9.4299,9.3455,9.3125,9.3602,9.3639,9.3822,9.4263,9.4666,9.485,9.485,9.5217,9.5621,9.6061,9.6502,9.6685,9.6685,9.6685,9.6685,9.6685,9.6685,9.6685,9.6685,9.6685,9.6685,9.6685,9.6685,9.6685,9.6685,9.6685,9.6685,9.6685,9.6685,9.6685,9.6685,9.6685,9.6685,9.6685,9.6685,9.6685,9.6685,9.6685,9.6685,9.6685,9.6685,9.6685,9.6685,9.6685,9.6685,9.6685,9.6685,9.6685,9.6685,9.6685,9.6685,9.6685,9.6685,9.6685,9.6575,9.6135,9.6061,9.5914,9.5474,9.5401,0.0,9.5401,9.5401,9.5401,9.5401,9.5401,9.5584,9.6025,9.6061,0.0,9.6685,9.6685,9.6685,9.6685,9.6685,9.6685,9.6685,9.6685,9.6685,9.6685,9.6685,9.6685,9.6685,9.6685,9.6685,9.6722,9.753,9.8374,9.9181,9.9989,10.0796,10.1514,10.1514,10.1514,10.1514,10.1514,10.1514,10.1514,9.195,9.1987,9.2024,9.217,9.2794,9.3272,9.3272,9.3859,9.4299,9.4299,9.441,9.4483,9.4483,9.4593,9.4666,9.4666,9.4666,9.4593,9.4483,9.4483,9.452,9.4666,9.5327,9.5675,9.5675,9.6355,9.6685,9.6685,9.6685,9.6685,9.6685,9.6685,9.6685,9.6685,9.6685,9.6685,9.6685,9.6685,9.6685,9.6685,9.6685,9.6685,9.6685,9.6685,9.6685,9.6685,9.6685,9.6685,9.6685,9.6685,9.6685,9.6685,9.6685,9.6685,9.6685,9.6685,9.6685,9.6685,9.6685,9.6685,9.6685,9.6685,9.6685,9.6685,9.6685,9.6685,9.6685,9.6685,9.6685,9.6685,9.6685,9.6685,9.6685,9.6685,9.6685,9.6685,9.6685,0.0,9.6685,9.6685,9.6685,9.6685,9.6685,9.6685,9.6685,9.6685,9.6685,9.6685,9.6685,9.6685,9.6685,9.6685,9.6685,9.6685,9.6685,9.6685,9.6685,9.6685,9.6685,9.6685,9.6685,9.6685,9.6685,9.6722,9.7419,9.8227,9.9125,9.9842,10.0706,10.1514,10.1514,10.1514,10.1514,10.1514,10.1514,10.1514,9.2758,9.2905,9.3125,9.3786,9.4006,9.4116,9.4116,9.4226,9.4299,9.4299,9.4887,9.5308,9.5308,9.5914,9.6318,9.6318,9.6318,9.6025,9.5345,9.5308,9.5621,9.6282,9.6465,9.6502,9.6502,9.6649,9.6685,9.6685,9.6685,9.6685,9.6685,9.6685,9.6685,9.6685,9.6685,9.6685,9.6685,9.6685,9.6685,9.6685,9.6685,9.6685,9.6685,9.6685,9.6685,9.6685,9.6685,9.6685,9.6685,9.6685,9.6685,9.6685,9.6685,9.6685,9.6685,9.6685,9.6685,9.6685,9.6685,9.6685,9.6685,9.6685,9.6685,9.6685,9.6685,9.6685,9.6685,9.6685,9.6685,9.6685,9.6685,9.6685,9.6685,9.6685,9.6685,9.6685,9.6685,0.0,9.6685,9.6685,9.6685,9.6685,9.6685,9.6685,9.6685,9.6685,9.6685,9.6685,9.6685,9.6685,9.6685,9.6685,9.6685,9.6685,9.6685,9.6685,9.6685,9.6685,9.6685,9.6685,9.6685,9.6685,9.6685,9.6722,9.6832,9.775,9.9108,9.9255,10.0209,10.1514,10.1514,10.1514,10.1514,10.1514,10.1514,10.1514,9.3565,9.3749,9.3859,9.4226,9.4666,9.496,9.496,9.5327,9.5584,9.5584,9.5914,9.6171,9.6171,9.6502,9.6685,9.6685,9.6685,9.6539,9.6171,9.6171,9.6318,9.6685,9.6685,9.6685,9.6685,9.6685,9.6685,9.6685,9.6685,9.6685,9.6685,9.6685,9.6685,9.6685,9.6685,9.6685,9.6685,9.6685,9.6685,9.6685,9.6685,9.6942,9.7309,9.6869,9.6979,9.7273,9.6869,9.6685,9.6685,9.6685,9.6685,9.6685,9.6685,9.6685,9.6685,9.6685,9.6685,9.6685,9.6685,9.6685,9.6685,9.6685,9.6685,9.6685,9.6685,9.6685,9.6685,9.6685,9.6685,9.6685,9.6685,9.6685,9.6685,9.6685,9.6685,0.0,0.0,9.6685,9.6685,9.6685,9.6685,9.6685,9.6685,9.6685,9.6685,9.6685,9.6685,9.6685,9.6685,9.6685,9.6685,9.6685,9.6685,9.6685,9.6685,9.6685,9.6685,9.6685,9.6685,9.6685,9.6685,9.6685,9.6685,9.6685,9.6685,9.7383,9.8447,9.8447,9.9402,10.089,10.089,10.109,10.1514,10.1514,10.1514,10.1514,9.441,9.4556,9.463,9.4813,9.5364,9.5804,9.5804,9.6318,9.6685,9.6685,9.6685,9.6685,9.6685,9.6685,9.6685,9.6685,9.6685,9.6685,9.6685,9.6685,9.6685,9.6685,9.6685,9.6685,9.6685,9.6685,9.6685,9.6685,9.6685,9.6685,9.6685,9.6685,9.6685,9.6685,9.6685,9.6685,9.6722,9.6906,9.6979,9.7016,9.7199,9.764,9.8117,9.7493,9.753,9.7843,9.7199,9.6869,9.6685,9.6685,9.6685,9.6685,9.6685,9.6685,9.6685,9.6685,9.6685,9.6685,9.6685,9.6685,9.6685,9.6685,9.6685,9.6685,9.6685,9.6685,9.6685,9.6685,9.6685,9.6685,9.6685,9.6685,9.6685,9.6685,0.0,0.0,0.0,9.6685,9.6685,9.6685,9.6685,9.6685,9.6685,9.6685,9.6685,9.6685,9.6685,9.6685,9.6685,9.6685,9.6685,9.6685,9.6685,9.6685,9.6685,9.6685,9.6685,9.6685,9.6685,9.6685,9.6685,9.6685,9.6685,9.6685,9.6685,9.7163,9.7916,9.7916,9.8741,9.9989,9.9989,10.0393,10.0907,10.0907,10.0907,10.0907,9.5235,9.5401,9.564,9.6392,9.6575,9.6612,9.6612,9.6649,9.6685,9.6685,9.6685,9.6685,9.6685,9.6685,9.6685,9.6685,9.6685,9.6685,9.6685,9.6685,9.6685,9.6685,9.6685,9.6685,9.6685,9.6685,9.6685,9.6685,9.6685,9.6685,9.6685,9.6685,9.6685,9.6685,9.6685,9.6685,9.6759,9.7493,9.7787,9.786,9.8631,9.8941,9.9035,9.8961,9.8484,9.7897,9.7823,9.7309,9.6685,9.6685,9.6685,9.6685,9.6685,9.6685,9.6685,9.6685,9.6685,9.6685,9.6685,9.6685,9.6685,9.6685,9.6685,9.6685,9.6685,9.6685,9.6685,9.6685,9.6685,9.6685,9.6685,9.6685,9.6685,9.6685,0.0,0.0,9.6685,9.6685,9.6685,9.6685,9.6685,9.6685,9.6685,9.6685,9.6685,9.6685,9.6685,9.6685,9.6685,9.6685,9.6685,9.6685,9.6685,9.6685,9.6685,9.6685,9.6685,9.6685,9.6685,9.6685,9.6685,9.6685,9.6685,9.6685,9.6685,9.7163,9.7916,9.7916,9.8411,9.9181,9.9181,9.9218,9.9292,9.9292,9.9292,9.9292,9.6098,9.6245,9.6318,9.6649,9.6685,9.6685,9.6685,9.6685,9.6685,9.6685,9.6685,9.6685,9.6685,9.6685,9.6685,9.6685,9.6685,9.6685,9.6685,9.6685,9.6685,9.6685,9.6685,9.6685,9.6685,9.6685,9.6685,9.6685,9.6685,9.6685,9.6685,9.6685,9.6685,9.6685,9.6685,9.6979,9.7456,9.775,9.819,9.8668,9.8998,9.9402,9.9805,9.9292,9.9218,9.9255,9.8283,9.7676,9.7346,9.6869,9.6685,9.6685,9.6685,9.6685,9.6685,9.6685,9.6685,9.6685,9.6685,9.6685,9.6685,9.6685,9.6685,9.6685,9.6685,9.6685,9.6685,9.6685,9.6685,9.6685,9.6685,9.6685,9.6685,9.6685,0.0,9.6685,9.6685,9.6685,9.6685,9.6685,9.6685,9.6685,9.6685,9.6685,9.6685,9.6685,9.6685,9.6685,9.6685,9.6685,9.6685,9.6685,9.6685,9.6685,9.6685,9.6685,9.6685,9.6685,9.6685,9.6685,9.6685,9.6685,9.6685,9.6685,9.6685,9.6869,9.7163,9.7163,9.764,9.8374,9.8374,9.8668,9.9108,9.9108,9.9108,9.9108,9.6575,9.6685,9.6685,9.6685,9.6685,9.6685,9.6685,9.6685,9.6685,9.6685,9.6685,9.6685,9.6685,9.6685,9.6685,9.6685,9.6685,9.6685,9.6685,9.6685,9.6685,9.6685,9.6685,9.6685,9.6685,9.6685,9.6685,9.6685,9.6685,9.6685,9.6685,9.6685,9.6685,9.6685,9.6685,9.7163,9.7897,9.8154,9.8741,9.9512,9.9769,10.0209,10.0613,10.0099,9.9989,10.0099,9.8741,9.8117,9.7787,9.6979,9.6685,9.6685,9.6685,9.6685,9.6685,9.6685,9.6685,9.6685,9.6685,9.6685,9.6685,9.6685,9.6685,9.6685,9.6685,9.6685,9.6685,9.6685,9.6685,9.6685,9.6685,9.6685,9.6685,9.6685,9.6685,9.6685,9.6685,9.6685,9.6685,9.6685,9.6685,9.6685,9.6685,9.6685,9.6685,9.6685,9.6685,9.6685,9.6685,9.6685,9.6685,9.6685,9.6685,9.6685,9.6685,9.6685,9.6685,9.6685,9.6685,9.6685,9.6685,9.6685,9.6685,9.6685,9.6685,9.6685,9.6685,9.6685,9.7016,9.753,9.753,9.786,9.8374,9.8374,9.8374,9.8374,9.6685,9.6685,9.6685,9.6685,9.6685,9.6685,9.6685,9.6685,9.6685,9.6685,9.6685,9.6685,9.6685,9.6685,9.6685,9.6685,9.6685,9.6685,9.6685,9.6685,9.6685,9.6685,9.6685,9.6685,9.6685,9.6685,9.6685,9.6685,9.6685,9.6685,9.6685,9.6685,9.6685,9.6685,9.6685,9.7163,9.797,9.8778,9.9585,10.0393,10.122,10.1514,10.1514,10.1514,10.098,10.0209,9.9402,9.8594,9.7806,9.6979,9.6685,9.6685,9.6685,9.6685,9.6685,9.6685,9.6685,9.6685,9.6685,9.6685,9.6685,9.6685,9.6685,9.6685,9.6685,9.6685,9.6685,9.6685,9.6685,9.6685,9.6685,9.6685,9.6685,9.6685,9.6685,9.6685,9.6685,9.6685,9.6685,9.6685,9.6685,9.6685,9.6685,9.6685,9.6685,9.6685,9.6685,9.6685,9.6685,9.6685,9.6685,9.6685,9.6685,9.6685,9.6685,9.6685,9.6685,9.6685,9.6685,9.6685,9.6685,9.6685,9.6685,9.6685,9.6685,9.6685,9.6685,9.6685,9.6685,9.6685,9.6685,9.6685,9.6685,9.6685,9.6685,9.6685,9.6685,9.6685,9.6685,9.6685,9.6685,9.6685,9.6685,9.6685,9.6685,9.6685,9.6685,9.6685,9.6685,9.6685,9.6685,9.6685,9.6685,9.6685,9.6685,9.6685,9.6685,9.6685,9.6685,9.6685,9.6685,9.6685,9.6685,9.6685,9.6685,9.6685,9.6685,9.6685,9.6685,9.6685,9.6685,9.7456,9.8778,9.8998,9.9879,10.122,10.1404,10.1514,10.1514,10.1514,10.1404,10.1,9.9585,9.8961,9.8521,9.7163,9.6685,9.6685,9.6685,9.6685,9.6685,9.6685,9.6685,9.6685,9.6685,9.6685,9.6685,9.6685,9.6685,9.6685,9.6685,9.6685,9.6685,9.6685,9.6685,9.6685,9.6685,9.6685,9.6685,9.6685,9.6685,9.6685,9.6685,9.6685,9.6685,9.6685,9.6685,9.6685,9.6685,9.6685,9.6685,9.6685,9.6685,9.6685,9.6685,9.6685,9.6685,9.6685,9.6685,9.6685,9.6685,9.6685,9.6685,9.6685,9.6685,9.6685,9.6685,9.6685,9.6685,9.6685,9.6685,9.6685,9.6685,9.6685,9.6685,9.6685,9.6685,9.6685,9.6685,9.6685,9.6685,9.6685,9.6685,9.6685,9.6685,9.6685,9.6685,9.6685,9.6685,9.6685,9.6685,9.6685,9.6685,9.6685,9.6685,9.6685,9.6685,9.6685,9.6685,9.6685,9.6685,9.6685,9.6685,9.6685,9.6685,9.6685,9.6685,9.6685,9.6685,9.6685,9.6685,9.6685,9.6685,9.6685,9.6685,9.6685,9.6685,9.7603,9.9108,9.9108,9.9989,10.1514,10.1514,10.1514,10.1514,10.1514,10.1294,10.0927,9.9548,9.8888,9.8447,9.7126,9.6685,9.6685,9.6685,9.6685,9.6685,9.6685,9.6685,9.6685,9.6685,9.6685,9.6685,9.6685,9.6685,9.6685,9.6685,9.6685,9.6685,9.6685,9.6685,9.6685,9.6685,9.6685,9.6685,9.6685,9.6685,9.6685,9.6685,9.6685,9.6685,9.6685,9.6685,9.6685,9.6685,9.6685,9.6685,9.6685,9.6685,9.6685,9.6685,9.6685,9.6685,9.6685,9.6685,9.6685,9.6685,9.6685,9.6685,9.6685,9.6685,9.6685,9.6685,9.6685,9.6685,9.6685,9.6685,9.6685,9.6685,9.6685,9.6685,9.6685,9.6685,9.6685,9.6685,9.6685,9.6685,9.6685,9.6685,9.6685,9.6685,9.6685,9.6685,9.6685,9.6685,9.6685,9.6685,9.6685,9.6685,9.6685,9.6685,9.6685,9.6685,9.6685,9.6685,9.6685,9.6685,9.6685,9.6685,9.6685,9.6685,9.6685,9.6685,9.6685,9.6685,9.6685,9.6685,9.6685,9.6685,9.6685,9.6685,9.6685,9.6685,9.7566,9.8998,9.9052,9.9989,10.1404,10.1514,10.1514,10.1514,10.1514,10.098,10.0209,9.9402,9.8594,9.7787,9.6979,9.6685,9.6685,9.6685,9.6685,9.6685,9.6685,9.6685,9.6685,9.6685,9.6685,9.6685,9.6685,9.6685,9.6685,9.6685,9.6685,9.6685,9.6685,9.6685,9.6685,9.6685,9.6685,9.6685,9.6685,9.6685,9.6685,9.6685,9.6685,9.6685,9.6685,9.6685,9.6685,9.6685,9.6685,9.6685,9.6685,9.6685,9.6685,9.6685,9.6685,9.6685,9.6685,9.6685,9.6722,9.6795,9.6795,9.6759,9.6685,9.6685,9.6685,9.6685,9.6685,9.6685,9.6685,9.6685,9.6685,9.6685,9.6685,9.6685,9.6685,9.6685,9.6685,9.6685,9.6685,9.6685,9.6685,9.6685,9.6685,9.6685,9.6685,9.6685,9.6685,9.6685,9.6685,9.6685,9.6685,9.6685,9.6685,9.6685,9.6685,9.6685,9.6685,9.6685,9.6685,9.6685,9.6685,9.6685,9.6685,9.6685,9.6685,9.6685,9.6685,9.6685,9.6685,9.6685,9.6685,9.6685,9.6685,9.6685,9.6685,9.6685,9.7236,9.819,9.8851,9.9659,10.0613,10.12,10.1514,10.1514,10.1514,10.098,10.0209,9.9402,9.8594,9.7787,9.6979,9.6685,9.6685,9.6685,9.6685,9.6685,9.6685,9.6685,9.6685,9.6685,9.6685,9.6685,9.6685,9.6685,9.6685,9.6685,9.6685,9.6685,9.6685,9.6685,9.6685,9.6685,9.6685,9.6685,9.6685,9.6685,9.6685,9.6685,9.6685,9.6685,9.6685,9.6685,9.6685,9.6685,9.6685,9.6685,9.6685,9.6685,9.6685,9.6685,9.6685,9.6685,9.6685,9.6685,9.7016,9.764,9.764,9.7309,9.6685,9.6685,9.6685,9.6685,9.6685,9.6685,9.6685,9.6685,9.6685,9.6685,9.6685,9.6685,9.6685,9.6685,9.6685,9.6685,9.6685,9.6685,9.6685,9.6685,9.6685,9.6685,9.6685,9.6685,9.6685,9.6685,9.6685,9.6685,9.6685,9.6685,9.6685,9.6685,9.6685,9.6685,9.6685,9.6685,9.6685,9.6685,9.6685,9.6685,9.6685,9.6685,9.6685,9.6685,9.6685,9.6685,9.6685,9.6685,9.6685,9.6685,9.6685,9.6685,9.6685,9.6685,9.7163,9.7953,9.8337,9.8998,9.9769,10.0209,10.0393,10.0393,10.0393,9.9842,9.9108,9.8668,9.8007,9.7273,9.6832,9.6685,9.6685,9.6685,9.6685,9.6685,9.6685,9.6685,9.6685,9.6685,9.6685,9.6685,9.6685,9.6685,9.6685,9.6685,9.6685,9.6685,9.6685,9.6685,9.6685,9.6685,9.6685,9.6685,9.6685,9.6685,9.6685,9.6685,9.6685,9.6685,9.6685,9.6685,9.6685,9.6685,9.6685,9.6685,9.6685,9.6685,9.6685,9.6685,9.7052,9.7273,9.7273,9.764,9.8043,9.8484,9.8484,9.8264,9.786,9.7456,9.7273,9.7273,9.6869,9.6685,9.6685,9.6685,9.6685,9.6685,9.6685,9.6685,9.6685,9.6685,9.6685,9.6685,9.6685,9.6685,9.6685,9.6685,9.6685,9.6685,9.6685,9.6685,9.6685,9.6685,9.6685,9.6685,9.6685,9.6685,9.6685,9.6685,9.6685,9.6685,9.6685,9.6685,9.6685,9.6685,9.6685,9.6685,9.6685,9.6685,9.6685,9.6685,9.6685,9.6685,9.6685,9.6685,9.6685,9.6685,9.6685,9.6685,9.6685,9.6685,9.7052,9.7676,9.7843,9.83,9.8924,9.9015,9.9108,9.9108,9.9108,9.8594,9.7916,9.7916,9.7383,9.6685,9.6685,9.6685,9.6685,9.6685,9.6685,9.6685,9.6685,9.6685,9.6685,9.6685,9.6685,9.6685,9.6685,9.6685,9.6685,9.6685,9.6685,9.6685,9.6685,9.6685,9.6685,9.6685,9.6685,9.6685,9.6685,9.6685,9.6685,9.6685,9.6685,9.6685,9.6685,9.6685,9.6685,9.6685,9.6685,9.6685,9.6685,9.6685,9.6759,9.6906,9.753,9.797,9.808,9.8741,9.9181,9.9292,9.9328,9.9444,9.9712,9.8902,9.8365,9.808,9.7273,9.6906,9.6906,9.6759,9.6685,9.6685,9.6685,9.6685,9.6685,9.6685,9.6685,9.6685,9.6685,9.6685,9.6685,9.6685,9.6685,9.6685,9.6685,9.6685,9.6685,9.6685,9.6685,9.6685,9.6685,9.6685,9.6685,9.6685,9.6685,9.6685,9.6685,9.6685,9.6685,9.6685,9.6685,9.6685,9.6685,9.6685,9.6685,9.6685,9.6685,9.6685,9.6685,9.6685,9.6685,9.6685,9.6685,9.6685,9.6685,9.6685,9.6759,9.6906,9.7603,9.797,9.8117,9.8814,9.9108,9.9108,9.9108,9.8594,9.7916,9.7916,9.7383,9.6685,9.6685,9.6685,9.6685,9.6685,9.6685,9.6685,9.6685,9.6685,9.6685,9.6685,9.6685,9.6685,9.6685,9.6685,9.6685,9.6685,9.6685,9.6685,9.6685,9.6685,9.6685,9.6685,9.6685,9.6685,9.6685,9.6685,9.6685,9.6685,9.6685,9.6685,9.6685,9.6685,9.6685,9.6685,9.6685,9.6685,9.6685,9.6685,9.7016,9.7676,9.7843,9.8227,9.8924,9.9015,9.9438,10.0099,10.0099,10.0806,10.2217,10.1399,10.0297,9.8924,9.808,9.775,9.7676,9.7016,9.6685,9.6685,9.6685,9.6685,9.6685,9.6685,9.6685,9.6685,9.6685,9.6685,9.6685,9.6685,9.6685,9.6685,9.6685,9.6685,9.6685,9.6685,9.6685,9.6685,9.6685,9.6685,9.6685,9.6685,9.6685,9.6685,9.6685,9.6685,9.6685,9.6685,9.6685,9.6685,9.6685,9.6685,9.6685,9.6685,9.6685,9.6685,9.6685,9.6685,9.6685,9.6685,9.6685,9.6685,9.6685,9.6685,9.6685,9.6722,9.7089,9.7236,9.7273,9.764,9.775,9.775,9.775,9.753,9.7236,9.7236,9.7016,9.6685,9.6685,9.6685,9.6685,9.6685,9.6685,9.6685,9.6685,9.6685,9.6685,9.6685,9.6685,9.6685,9.6685,9.6685,9.6685,9.6685,9.6685,9.6685,9.6685,9.6685,9.6685,9.6685,9.6685,9.6685,9.6685,9.6685,9.6685,9.6685,9.6685,9.6685,9.6685,9.6685,9.6685,9.6685,9.6685,9.6906,9.7346,9.7346,9.7713,9.8521,9.8998,9.9601,10.0389,10.0889,10.1516,10.2383,10.2401,10.2701,10.3383,10.3099,10.2303,10.1111,9.9788,9.9229,9.9191,9.837,9.7981,9.7981,9.7981,9.7981,9.7981,9.7981,9.7981,9.7981,9.7981,9.7981,9.7981]}]]